GFSSW_prec_cloud_003.txt.gz
Cloud_Cover
0 4 8 12 16 2 68 6 65 100 17 5 8 5 5 0 0 0 47 2 0 6 0 0 0 8 32 9 22 56 20 0 0 2 3 0 0 0 0 5 5 0 0 0 0
1 1 5 0 4 5 0 1 30 31 86 40 3 4 5 5 1 22 0 2 0 91 0 0 0 0 0 0 2 0 0 0 0 0 0 0 0 0 0 5 5 0 0 0 0
57 90 12 6 5 7 6 0 0 14 4 2 0 17 5 5 58 9 0 48 2 96 37 1 2 3 2 0 0 0 0 5 0 0 0 0 0 0 0 5 0 0 0 0 5
34 88 9 57 99 69 18 1 1 13 95 57 2 5 7 5 14 0 0 31 5 86 81 19 2 2 0 0 0 0 0 5 3 0 0 0 0 0 0 12 0 0 0 0 5
86 62 100 94 100 100 16 12 6 2 50 100 11 5 24 91 37 0 0 6 2 72 87 12 42 2 0 0 0 0 0 5 5 3 0 0 0 0 0 0 0 7 3 0 2
16 100 96 100 100 100 91 60 35 5 60 70 83 5 12 97 3 4 33 4 0 22 66 9 40 0 7 5 3 0 0 2 4 0 0 0 0 0 0 0 4 92 17 4 5
66 98 89 100 100 100 100 90 5 100 7 42 100 4 60 5 3 86 99 2 0 0 5 0 10 23 2 8 4 3 0 0 0 5 0 0 0 0 0 5 98 100 71 34 8
100 97 100 100 100 100 100 100 23 36 70 62 98 68 100 0 5 30 80 13 0 0 13 5 77 56 100 22 8 3 38 4 3 5 0 0 0 0 0 47 100 100 99 18 8
83 75 100 100 100 100 100 100 66 82 5 94 77 96 74 0 0 5 59 35 6 0 16 9 91 88 80 82 50 61 83 2 3 5 0 0 0 0 4 71 100 100 56 5 4
100 100 100 100 100 100 100 100 98 99 98 100 98 94 48 0 0 5 78 56 4 0 89 94 88 65 100 46 88 33 73 2 5 3 0 0 0 0 9 35 98 100 100 83 60
100 100 100 100 100 100 100 100 100 100 100 46 27 98 2 0 0 68 100 73 22 53 100 100 100 85 0 94 3 95 10 5 5 4 0 0 0 3 86 97 74 100 100 90 16
100 100 100 100 100 100 100 100 100 100 100 100 100 85 86 1 0 30 99 46 35 86 100 89 93 2 14 5 98 100 5 5 5 4 0 0 1 5 100 100 97 75 44 14 9
100 100 100 100 100 100 100 100 100 100 100 100 97 21 100 2 0 4 48 52 8 87 100 75 57 100 9 66 56 37 16 5 5 0 0 0 0 0 89 95 19 28 14 96 100
100 100 100 100 100 100 100 100 100 100 100 100 30 64 100 26 0 69 100 68 3 95 5 100 64 52 100 88 99 96 55 95 6 0 0 0 0 5 65 100 6 70 98 87 100
100 100 100 100 100 100 100 100 100 100 92 7 7 47 95 34 4 96 100 100 2 4 100 100 97 31 100 88 12 61 95 87 33 3 3 1 2 0 99 57 5 42 100 80 15
100 100 100 100 100 100 100 100 100 100 100 47 59 66 100 28 60 100 100 100 87 64 100 47 5 7 8 84 54 96 92 87 5 4 3 2 4 0 88 48 5 5 100 100 93
100 100 100 100 100 100 100 100 100 100 98 100 53 67 99 100 99 100 100 100 86 43 99 95 98 100 79 100 94 79 90 74 4 2 0 3 5 0 99 5 5 1 2 5 20
100 100 100 100 100 100 100 100 100 100 100 100 92 100 99 100 96 100 100 100 55 32 35 82 100 41 100 93 19 5 5 5 0 0 0 0 4 2 97 5 5 5 5 0 0
100 100 100 100 100 100 100 100 100 100 98 100 100 100 100 100 100 100 100 100 85 12 52 100 9 26 5 5 5 5 5 0 0 5 8 0 0 0 100 14 5 5 5 2 1
100 98 90 100 100 100 100 100 100 100 100 100 100 100 100 100 96 100 100 99 74 22 75 48 47 33 5 5 16 5 4 0 4 5 5 0 0 0 99 38 5 2 5 7 0
56 100 100 100 100 100 100 100 100 100 100 41 100 100 82 72 100 100 100 100 93 96 86 6 4 12 34 5 5 5 0 0 0 1 1 0 0 0 50 54 32 5 5 5 10
57 97 100 100 100 100 100 100 100 100 100 85 46 100 100 100 100 100 100 89 73 78 96 41 78 4 6 5 5 0 0 0 0 0 0 0 0 0 18 100 22 99 97 7 87
27 100 100 100 100 100 100 100 100 100 100 100 54 47 56 28 58 98 94 10 75 51 78 57 61 94 89 33 2 0 0 0 0 0 0 11 11 0 7 100 100 100 100 100 100
51 100 100 100 100 100 96 100 100 100 100 100 100 100 78 87 97 5 38 75 52 89 100 88 98 34 28 44 2 0 5 14 2 0 71 12 4 0 5 100 100 100 100 100 100
14 97 100 100 100 100 78 100 100 100 100 100 100 100 100 100 100 96 62 34 87 89 88 70 88 97 64 5 0 0 5 9 0 50 23 17 0 0 78 100 100 100 100 100 100
5 80 100 100 100 100 94 78 65 100 100 100 96 100 100 100 100 100 100 100 100 100 100 99 77 47 65 100 2 0 0 3 53 16 5 6 85 100 100 100 100 100 100 100 100
5 22 100 28 100 99 100 100 93 84 99 100 100 100 100 100 100 100 100 100 100 100 100 100 64 57 48 5 5 0 4 5 5 40 100 100 100 100 100 96 97 100 100 99 88

GFSSW_prec_cloud_006.txt.gz
Cloud_Cover
0 0 1 6 0 1 10 14 81 100 74 58 16 63 24 9 8 1 38 0 5 1 0 0 0 2 96 100 50 5 100 100 100 33 11 29 84 49 11 5 5 44 7 0 0
0 0 5 1 1 6 12 14 97 6 64 80 92 13 15 19 50 85 0 0 57 10 3 4 0 0 11 8 45 23 18 0 51 100 89 5 7 5 4 0 0 6 100 2 0
0 0 0 0 5 4 98 100 88 29 4 21 5 71 100 27 49 11 3 0 56 27 82 70 0 2 0 3 18 5 31 5 5 6 6 5 2 5 3 0 0 5 7 5 0
0 0 2 10 5 73 100 100 100 98 74 37 0 5 100 32 36 56 0 0 5 7 100 82 5 3 0 0 0 0 0 0 3 5 9 20 0 0 0 0 0 5 4 3 0
0 0 67 100 3 38 100 100 100 100 45 13 3 4 66 96 36 0 4 7 0 4 100 100 16 0 0 0 0 0 0 0 0 3 3 0 0 0 0 0 0 4 0 0 5
5 38 34 18 16 98 100 100 100 100 98 34 22 5 60 81 1 3 54 7 28 0 68 100 27 0 13 0 0 0 0 0 0 1 0 0 0 0 0 0 0 0 0 4 36
85 98 13 5 86 100 100 100 100 100 47 6 100 14 68 2 12 0 5 79 7 36 43 90 13 50 63 69 1 5 3 2 0 0 5 1 0 0 0 0 0 0 0 5 5
100 100 66 5 5 100 100 100 100 100 24 5 97 99 37 12 58 0 5 100 9 4 100 97 46 12 100 99 55 16 24 4 0 0 4 2 0 0 0 0 0 0 1 18 94
100 100 96 94 83 100 100 100 100 100 65 30 99 100 24 100 44 0 18 96 42 5 100 99 48 100 100 100 92 100 62 35 0 0 1 1 0 0 0 0 0 0 0 14 100
100 100 100 85 100 100 100 100 100 100 90 96 64 100 13 100 100 0 66 100 98 5 100 100 93 56 100 98 100 41 100 31 0 4 4 0 0 0 0 0 0 0 6 100 100
100 100 100 100 100 100 100 100 100 100 80 100 49 100 58 5 85 0 88 100 100 34 100 95 95 100 6 0 2 7 12 5 4 5 0 0 0 0 0 0 5 5 98 100 100
100 100 100 100 100 100 100 100 100 100 100 100 85 100 100 100 82 3 98 100 99 9 66 100 96 43 99 35 87 6 99 50 5 5 0 1 0 0 0 2 5 5 88 97 99
100 100 100 100 100 100 100 100 100 100 100 100 99 100 100 100 44 26 100 99 90 100 50 100 60 18 43 6 34 93 84 64 3 5 0 0 0 0 0 2 5 2 96 100 100
100 100 100 100 100 100 100 100 100 100 100 100 96 91 82 98 55 69 100 97 100 38 56 99 96 99 71 60 15 97 36 100 24 23 1 0 0 0 0 0 56 64 5 100 100
81 100 100 100 100 100 100 100 100 100 100 100 66 99 74 92 4 76 100 100 100 12 65 70 92 100 100 59 5 3 88 98 100 100 5 0 0 0 0 0 5 5 5 95 100
8 100 100 100 100 100 100 100 100 100 100 100 29 12 97 26 81 99 99 70 100 100 72 100 100 97 23 100 29 73 76 100 100 100 34 0 0 0 0 0 5 4 5 4 100
35 99 100 100 100 100 100 100 100 100 100 98 30 15 74 10 90 56 64 73 87 57 66 66 16 22 100 95 61 100 98 100 76 48 2 0 2 0 0 0 0 0 5 5 100
39 88 85 100 100 100 100 100 100 100 100 88 4 47 94 8 96 100 100 100 99 7 19 78 100 100 100 36 26 100 100 59 5 4 0 0 1 0 0 0 0 0 5 5 100
36 100 100 100 100 100 100 100 100 100 100 100 24 73 81 92 96 100 100 100 100 32 32 100 66 32 53 46 53 100 84 63 5 5 3 0 0 0 0 0 0 0 1 5 5
100 86 90 100 100 100 100 100 100 100 97 92 100 22 99 100 100 100 100 100 100 68 4 5 6 22 96 61 100 91 70 45 5 5 0 0 0 0 0 0 0 0 0 31 6
88 55 100 100 100 100 100 100 100 100 17 48 40 66 60 37 100 100 100 100 100 98 64 7 31 89 100 72 52 99 46 42 41 6 0 0 0 0 0 0 0 0 0 28 99
4 92 100 100 100 100 100 100 100 100 32 43 39 100 100 60 100 100 100 100 55 29 61 18 16 89 91 11 100 87 63 5 5 0 0 0 0 0 0 0 0 0 0 5 20
17 100 100 100 100 100 100 100 100 100 84 48 27 77 100 39 100 100 100 90 99 98 31 41 89 29 98 70 5 7 5 6 12 0 0 0 0 0 0 0 0 1 2 5 11
58 100 100 100 100 100 100 100 100 100 100 100 70 87 100 86 87 100 100 100 90 73 72 97 97 9 5 5 5 4 5 5 0 0 0 0 0 0 0 1 16 5 5 22 7
9 98 100 100 100 100 100 100 100 100 100 100 85 8 94 98 46 99 59 98 97 100 97 97 94 98 64 12 37 46 67 43 2 0 0 0 0 0 0 92 77 5 56 79 18
60 69 100 100 100 100 100 100 100 100 100 100 100 100 54 5 35 24 99 95 5 36 81 100 97 100 100 97 100 13 5 0 0 0 0 0 0 0 64 90 70 99 72 37 100
64 100 100 100 100 100 100 100 100 100 100 100 100 100 95 100 58 76 90 91 100 100 100 100 100 100 73 75 66 3 4 0 0 5 0 1 2 82 28 38 85 100 100 100 100

GFSSW_prec_cloud_009.txt.gz
Cloud_Cover
0 0 0 1 3 2 1 7 18 99 100 2 57 69 96 6 9 48 58 0 0 22 45 2 0 0 0 0 14 100 100 62 76 33 5 5 5 5 5 5 5 5 5 16 5
8 10 3 5 0 3 3 10 0 0 3 4 51 23 36 36 56 82 1 0 0 0 12 63 42 0 0 0 0 94 96 17 5 34 47 76 5 4 4 5 2 5 21 32 6
6 7 0 0 0 0 6 8 6 0 3 39 100 8 98 46 71 28 1 0 0 5 0 100 17 46 0 0 3 2 71 7 5 5 12 100 99 79 12 30 27 17 5 5 5
5 5 0 0 0 2 57 5 5 100 100 100 100 44 94 92 26 5 2 0 0 7 0 72 89 99 6 0 0 0 0 5 5 5 5 3 5 16 43 21 5 5 5 4 0
6 5 5 0 0 26 32 2 5 73 99 100 100 89 9 86 28 0 5 0 2 83 0 50 83 96 84 0 0 0 0 0 3 5 5 5 5 5 5 5 1 4 5 3 0
5 5 7 5 20 9 1 37 100 81 97 100 100 93 39 86 4 5 57 25 0 100 12 15 8 100 17 9 0 0 0 0 1 5 5 5 4 0 0 4 2 0 0 0 2
5 12 6 95 5 5 7 19 93 100 100 100 100 67 52 34 2 5 10 93 73 84 10 4 56 100 97 25 0 0 3 0 0 0 0 0 0 0 0 0 0 0 0 1 0
12 16 100 100 100 84 7 93 88 100 100 100 98 76 100 74 100 100 100 98 100 8 5 8 93 100 100 70 7 15 56 3 0 0 0 0 1 1 0 0 0 0 0 0 0
11 56 100 100 100 100 98 60 100 100 100 100 49 30 100 100 100 100 100 100 100 89 66 100 100 100 100 97 86 99 6 1 0 0 1 0 0 0 0 0 0 0 0 0 4
65 81 89 100 100 99 100 100 100 100 100 100 73 63 22 94 100 100 94 100 89 93 100 100 100 100 100 8 93 96 99 68 1 3 0 0 0 4 0 0 0 0 0 0 0
50 93 82 100 100 100 98 100 100 100 100 100 100 100 31 80 54 83 97 100 91 100 100 76 100 100 86 5 37 100 16 5 0 5 5 0 0 0 0 0 0 0 0 0 5
31 100 98 100 100 100 100 100 100 100 100 100 100 100 100 16 46 72 39 100 96 100 100 100 100 89 100 77 100 8 100 5 4 8 10 0 0 0 0 0 0 0 0 4 5
62 100 100 100 100 100 100 100 100 100 100 100 100 100 100 54 100 91 30 100 100 100 99 10 100 100 100 93 26 5 5 3 5 54 20 0 0 0 0 0 0 0 1 5 20
91 52 83 100 100 100 100 100 100 100 100 100 100 100 96 96 100 77 100 89 100 100 100 76 100 100 100 90 12 5 32 5 6 39 5 5 4 0 0 0 0 0 5 5 5
76 49 9 98 100 100 100 100 100 100 100 100 100 100 74 79 100 99 100 85 100 100 90 99 100 100 98 68 25 20 54 23 73 80 32 1 5 0 3 0 2 0 3 5 5
99 67 21 49 100 100 100 100 100 100 100 100 100 100 99 94 100 100 46 100 100 100 100 100 90 100 99 100 99 8 100 59 37 88 45 0 2 0 3 0 4 0 4 19 100
88 46 12 79 100 100 100 100 100 100 100 100 100 100 100 100 100 54 20 100 100 100 100 100 100 100 100 100 100 100 70 92 93 99 8 0 0 0 0 0 0 0 0 8 63
71 37 86 100 100 100 100 100 100 100 100 100 85 65 100 98 100 50 100 100 100 62 94 100 100 86 96 100 100 100 55 53 100 5 5 0 0 0 0 0 0 0 0 0 0
100 100 100 100 100 100 100 100 100 100 100 100 10 80 99 100 92 70 67 86 100 51 88 95 61 100 58 100 64 100 95 55 46 5 2 0 0 0 0 0 0 0 0 0 0
100 100 100 100 100 100 100 100 100 100 100 99 7 5 8 37 100 13 75 62 100 80 34 47 98 93 28 100 99 25 26 100 92 6 5 0 0 0 0 0 0 0 0 0 0
97 99 100 100 100 100 100 100 100 100 100 91 4 5 52 91 100 98 35 87 100 100 27 5 5 46 98 98 88 41 84 69 98 6 5 0 0 0 0 0 0 0 0 0 0
78 100 100 100 100 100 100 100 100 100 76 15 36 100 89 40 100 100 99 100 86 99 31 31 3 5 34 58 15 5 8 52 10 5 4 3 0 0 0 0 0 0 0 0 0
100 100 100 100 100 100 100 100 100 42 92 12 5 78 32 100 100 84 93 47 100 73 19 25 5 15 90 20 6 5 78 83 12 5 5 5 1 0 0 0 0 0 0 0 0
100 100 100 100 100 100 100 100 100 91 100 96 60 5 7 14 92 94 99 100 100 100 100 96 67 6 17 53 86 44 8 18 21 27 5 2 0 0 0 0 0 0 0 0 0
100 61 36 100 100 100 100 100 100 100 100 100 92 90 26 33 100 90 100 50 100 96 100 94 99 62 31 100 13 6 1 39 15 19 44 4 0 0 0 0 0 0 0 0 3
100 96 8 100 100 100 100 100 100 100 100 100 100 99 100 19 100 100 100 100 98 89 99 82 83 85 100 31 8 5 5 5 46 60 5 0 0 0 0 0 0 0 0 4 5
100 100 9 100 100 100 100 100 100 100 100 98 89 100 100 100 40 97 97 100 100 100 48 94 24 63 98 58 89 10 5 9 59 6 4 1 0 0 0 0 0 0 2 48 99

GFSSW_prec_cloud_012.txt.gz
Cloud_Cover
0 1 13 0 1 0 0 0 3 100 100 100 96 10 12 11 10 70 26 0 0 0 20 0 0 0 0 0 0 0 92 100 100 100 8 73 19 19 100 66 5 5 4 0 5
0 2 4 0 0 0 0 0 0 54 73 95 100 39 3 9 61 99 5 2 0 0 34 48 0 46 0 0 0 0 0 100 100 100 70 98 100 100 20 5 2 1 1 3 5
0 24 0 0 0 0 0 0 0 3 0 1 0 0 2 17 96 54 6 5 5 2 0 29 78 49 32 6 0 0 0 0 23 100 100 28 22 67 10 9 5 2 5 6 5
0 0 0 0 0 0 0 8 0 2 6 5 3 5 96 99 40 47 8 0 3 5 20 0 100 100 78 98 3 0 0 0 0 5 97 99 16 5 5 5 5 5 6 8 5
1 0 1 0 0 0 0 0 0 5 4 11 78 100 94 99 50 23 19 3 0 18 47 4 48 58 86 76 87 0 0 0 0 45 100 100 63 30 11 4 0 4 54 71 6
0 0 5 5 3 5 5 5 5 3 75 62 40 95 100 98 5 2 2 3 0 0 94 0 62 39 33 23 82 0 0 0 0 5 100 84 77 25 1 0 39 2 0 0 0
2 2 5 5 5 5 6 18 5 5 75 100 100 100 99 100 97 5 5 4 1 4 2 9 15 94 5 60 90 69 38 2 0 2 63 97 65 5 4 28 17 2 5 3 0
5 4 5 5 5 29 92 61 5 30 100 100 98 74 100 100 26 5 0 0 0 21 33 9 64 100 98 41 70 69 98 65 0 0 2 4 5 4 5 3 4 5 0 0 0
5 44 39 5 6 72 100 100 47 52 87 56 51 56 67 84 62 7 6 4 0 1 3 5 98 100 100 95 60 80 54 23 21 3 0 0 0 0 0 0 1 0 0 0 0
7 28 36 22 9 97 83 95 100 97 99 100 82 28 89 100 96 81 100 38 50 77 100 54 69 100 100 61 82 97 39 69 56 4 0 0 0 4 0 0 0 0 0 0 0
26 25 99 31 100 100 99 85 100 100 100 100 58 100 100 98 83 100 100 100 100 89 100 34 95 100 87 100 39 90 5 49 22 4 4 5 0 53 2 0 0 0 0 0 0
86 82 100 71 99 100 100 100 100 100 100 94 100 100 94 99 96 100 77 100 100 100 100 100 100 92 100 99 75 100 58 27 85 1 5 5 0 71 2 0 0 0 0 0 0
100 80 100 99 100 100 100 100 100 100 100 100 100 100 100 100 99 100 68 100 100 100 100 92 34 98 100 100 95 43 92 92 27 5 22 4 0 5 5 5 0 0 0 0 0
100 88 100 84 100 100 100 100 100 100 100 100 100 100 100 98 100 13 94 100 100 100 100 96 97 100 100 100 100 93 83 15 5 74 98 10 3 0 3 3 0 0 0 0 0
100 98 100 76 92 100 100 100 100 100 100 100 100 100 100 100 90 10 80 100 100 100 100 93 100 100 100 100 100 100 63 5 37 100 97 11 5 0 5 0 0 3 0 0 1
100 100 100 100 73 94 100 100 100 100 100 100 100 100 100 100 58 100 99 100 100 100 100 100 100 100 100 100 100 100 24 42 85 96 70 6 2 1 4 0 0 5 0 2 5
100 100 100 100 47 100 100 100 100 100 100 100 100 100 100 100 98 100 100 100 100 100 100 100 100 100 100 100 100 100 99 100 100 99 43 2 0 5 2 2 2 4 5 5 3
100 100 100 92 99 100 100 100 100 100 100 100 100 100 100 100 100 100 100 100 100 100 100 100 100 100 100 100 85 100 29 80 91 10 27 4 0 5 5 1 0 0 5 5 5
100 100 100 100 100 100 100 100 100 100 100 100 100 93 100 100 100 100 100 100 100 100 100 100 100 100 89 94 88 100 57 59 5 5 5 0 0 0 4 0 0 0 0 5 1
100 100 94 99 100 100 100 100 100 100 100 100 70 27 62 94 100 100 78 97 100 100 100 100 100 100 100 96 98 88 67 50 6 42 51 1 0 0 0 0 0 0 0 5 0
100 100 98 100 100 100 100 100 100 100 100 99 44 30 62 69 100 99 55 83 100 100 100 100 100 100 100 100 100 95 86 47 5 5 64 6 0 0 0 0 0 0 0 0 0
100 100 100 100 100 100 100 100 100 100 100 31 6 5 7 47 79 100 31 90 88 98 72 98 100 100 90 100 100 100 100 98 71 71 5 5 1 0 0 0 0 0 0 0 0
100 100 100 100 100 100 100 100 100 100 100 95 6 5 75 97 49 94 68 100 94 30 5 5 11 66 100 100 100 100 100 97 14 5 5 17 4 0 0 0 0 0 0 0 0
100 100 100 100 100 100 100 100 100 100 66 90 71 59 53 42 12 5 61 98 90 48 55 66 13 22 5 5 5 45 100 100 69 52 58 2 2 0 4 5 0 0 0 0 0
100 100 100 100 100 100 100 100 100 100 100 99 11 54 97 86 100 82 88 84 100 96 100 99 68 21 1 1 0 1 4 4 2 28 5 3 2 4 4 0 0 0 0 0 0
100 100 100 69 100 100 100 100 100 100 100 92 78 34 100 100 98 98 71 88 100 100 100 87 93 61 5 5 1 0 0 0 0 5 5 5 1 5 0 0 0 0 0 0 0
100 100 100 38 100 100 100 100 100 100 100 100 100 68 91 61 96 100 90 100 100 100 100 96 56 55 45 5 5 5 6 4 4 0 0 2 4 0 0 0 0 0 0 0 0

GFSSW_prec_cloud_015.txt.gz
Cloud_Cover
4 8 23 12 0 0 0 0 0 0 98 100 52 42 92 97 34 55 10 0 0 0 0 0 0 0 3 0 0 0 0 47 100 100 100 100 100 100 82 98 100 95 38 73 18
1 7 7 0 0 0 0 0 0 0 0 37 54 100 75 99 84 100 4 5 0 0 0 0 0 0 99 34 22 0 0 2 11 100 100 100 100 100 100 100 99 41 7 8 61
0 6 10 1 0 0 0 0 0 0 0 0 7 97 100 100 96 38 3 4 5 0 0 0 0 10 56 50 22 5 0 2 4 8 100 100 100 100 100 100 100 31 64 31 5
4 3 5 3 5 5 0 0 0 0 0 0 0 0 0 15 18 61 5 37 31 7 0 0 0 16 94 85 63 93 0 0 11 17 35 100 100 100 100 71 16 46 12 18 5
5 5 6 5 14 5 3 0 0 0 0 0 1 1 20 70 44 98 5 0 0 4 8 5 0 0 24 35 100 100 12 6 1 5 1 85 100 100 100 100 100 82 99 64 5
10 5 5 5 14 5 6 5 4 0 0 4 4 5 15 95 51 51 70 59 42 80 3 48 2 0 12 4 89 91 34 27 31 2 0 0 1 85 100 100 100 83 87 5 1
88 7 5 5 39 11 38 5 5 2 1 0 4 13 96 100 100 100 100 94 22 28 43 2 83 40 36 20 26 100 100 97 8 31 3 0 0 5 14 100 100 100 28 35 5
100 45 30 5 5 5 28 8 5 5 5 5 5 42 100 100 97 68 6 2 5 2 0 71 77 48 100 46 77 100 100 100 89 20 1 2 0 5 4 100 94 100 100 50 5
100 100 53 5 11 25 80 10 8 5 13 5 2 67 72 100 95 74 5 5 4 17 6 11 100 99 57 100 65 100 100 98 82 31 4 16 1 5 12 78 95 100 99 17 5
63 99 5 83 60 71 100 99 80 96 28 62 71 88 59 100 30 5 5 5 8 88 23 34 65 100 89 100 88 100 100 96 8 45 4 4 2 0 76 100 99 100 20 5 5
100 10 40 100 90 78 100 100 97 100 100 21 23 64 100 69 18 66 5 62 100 59 90 24 86 100 10 27 56 86 100 100 51 82 67 38 5 0 78 67 100 5 5 0 0
100 44 95 100 100 100 100 100 100 100 100 100 100 100 86 100 78 37 86 100 75 64 96 100 90 5 9 12 100 39 100 74 98 99 9 3 5 0 22 5 26 5 2 0 0
100 100 99 100 100 76 100 100 100 100 100 100 100 100 100 99 81 100 100 100 97 94 58 92 35 37 81 62 100 100 22 96 100 95 0 7 5 0 16 0 5 5 5 0 0
100 100 88 100 100 95 100 100 100 100 100 92 100 100 100 100 100 100 100 100 100 72 100 100 90 100 100 89 94 99 64 100 100 89 38 71 3 3 43 2 5 5 4 0 5
100 99 100 100 100 100 100 100 100 100 100 53 100 100 100 100 100 100 100 100 95 98 100 74 100 100 100 100 96 98 100 97 96 90 35 92 56 0 33 2 5 5 5 5 5
100 100 100 100 100 100 100 100 100 100 100 100 100 100 100 100 100 100 100 38 94 97 100 100 100 100 97 100 100 100 100 100 100 100 18 5 36 2 8 5 5 5 5 5 0
100 100 100 100 100 100 100 100 100 100 100 100 100 100 100 100 100 100 100 100 100 100 100 100 100 100 100 100 100 100 100 100 100 67 28 41 54 4 5 5 5 5 5 2 0
100 100 100 100 100 100 100 100 100 100 100 100 100 100 100 100 100 100 100 100 100 100 100 100 100 100 100 100 100 100 99 100 80 47 17 5 1 2 5 5 5 5 5 5 5
100 100 100 100 100 96 100 100 100 100 100 100 100 100 100 99 100 74 98 99 100 100 100 100 100 100 100 100 100 100 99 100 35 5 92 3 1 0 3 4 5 5 5 5 5
100 100 100 100 100 100 100 100 100 100 100 100 100 99 98 100 99 100 100 100 100 100 100 100 95 100 100 100 100 99 57 58 20 28 87 44 28 6 0 5 5 5 5 5 5
100 100 100 100 100 100 100 100 100 100 100 100 98 99 100 100 100 100 100 100 100 100 100 100 100 100 100 100 100 100 100 64 43 7 100 81 39 2 0 5 5 5 5 5 5
100 100 100 100 100 100 100 100 100 100 100 100 92 100 100 100 100 100 99 100 100 100 100 100 100 100 100 100 100 100 98 91 8 32 1 8 23 0 0 4 5 5 5 5 0
100 100 100 100 100 100 100 100 100 100 100 100 62 49 38 100 90 100 100 100 100 100 100 100 100 100 100 77 100 100 100 100 56 79 5 5 44 0 0 0 4 5 5 5 0
100 100 100 100 100 100 100 100 100 100 100 63 26 74 88 75 14 90 100 100 100 100 100 100 100 100 100 95 62 58 96 100 95 31 5 43 92 5 5 5 4 2 1 0 0
100 100 100 100 100 100 100 100 100 100 100 100 100 78 33 42 24 100 100 96 100 96 29 100 98 100 100 99 100 100 100 100 6 100 21 39 5 17 35 0 0 0 0 0 0
100 100 100 100 100 100 100 100 100 100 100 100 100 99 100 99 90 100 78 100 75 83 11 72 72 96 100 62 100 94 94 5 2 3 5 5 5 22 4 4 1 1 0 0 0
100 100 100 100 100 100 100 100 100 100 100 100 100 91 97 98 49 98 83 100 100 100 100 100 61 78 99 8 5 5 5 5 4 0 2 2 51 8 1 4 0 0 0 0 0

GFSSW_prec_cloud_021.txt.gz
Cloud_Cover
100 100 100 45 5 6 30 18 4 2 0 26 99 100 73 91 76 38 1 0 0 0 0 0 0 0 0 0 0 0 0 0 0 0 0 0 73 100 100 100 100 100 89 8 78
100 100 100 100 5 28 13 79 13 3 2 0 91 22 100 100 100 60 0 0 0 0 0 0 0 0 0 0 0 0 0 0 0 0 0 0 0 98 100 100 100 100 86 6 77
100 100 100 100 100 100 100 19 5 5 2 0 0 0 55 98 99 1 0 0 0 12 0 0 0 0 8 0 0 0 1 0 0 0 0 0 4 5 100 100 100 100 81 5 100
100 100 100 100 100 100 95 100 100 5 5 1 0 0 0 1 10 0 0 0 0 2 5 5 4 0 14 0 0 42 0 0 0 0 0 0 4 4 6 100 100 100 100 14 100
100 100 100 100 98 100 51 100 100 100 5 5 5 5 0 26 24 0 0 0 0 0 0 1 5 3 0 0 0 0 0 1 0 0 0 0 4 0 0 3 99 100 100 55 98
100 100 100 100 100 100 100 98 96 100 5 5 5 6 4 56 0 0 0 0 0 0 0 0 4 4 4 2 14 4 4 5 0 0 0 2 5 5 0 0 0 93 100 100 81
100 100 100 100 100 100 100 100 100 96 90 24 8 11 5 2 0 0 0 0 0 0 2 70 6 46 39 9 4 8 54 31 3 3 5 0 3 3 0 0 0 37 100 100 100
100 100 100 100 100 100 100 100 93 97 14 5 5 58 19 2 0 0 0 0 0 0 0 2 91 22 96 29 5 5 11 5 3 3 5 99 17 3 0 0 0 0 40 100 100
100 100 100 100 100 100 100 100 100 100 94 19 19 100 38 5 0 0 0 0 0 0 0 0 1 4 8 93 15 62 26 20 4 0 5 67 5 0 0 0 0 0 30 100 100
100 37 100 100 100 100 100 100 100 100 81 100 86 73 5 24 5 0 5 5 5 5 13 4 2 4 5 42 100 87 100 12 4 0 7 5 5 3 0 0 0 0 0 74 78
100 100 16 6 27 100 100 100 100 100 100 87 100 60 36 5 5 5 5 2 0 6 46 9 9 95 5 5 5 5 5 13 5 4 0 0 1 0 0 0 0 0 0 0 0
86 94 97 34 84 39 96 79 100 100 100 100 84 89 82 100 96 51 26 8 63 100 9 45 82 7 5 5 26 16 28 18 36 5 28 3 2 0 0 0 0 0 0 0 0
100 98 100 100 94 99 100 100 70 100 100 100 99 100 100 86 100 100 99 90 55 88 36 9 33 100 89 93 83 54 37 86 86 7 23 57 4 0 0 0 0 0 0 0 0
100 100 100 100 92 98 100 100 100 100 100 86 100 100 100 100 100 100 100 98 100 100 100 54 100 100 100 59 93 52 96 94 86 69 98 36 80 0 0 0 0 0 0 0 0
100 100 100 100 69 100 23 100 100 100 98 39 100 100 100 100 100 100 100 100 100 75 100 15 17 100 44 40 100 8 60 5 39 36 100 100 100 25 0 0 0 0 0 1 5
100 100 100 100 100 93 41 100 97 98 81 68 91 58 88 100 100 100 100 100 100 100 100 61 98 100 100 100 100 40 5 5 12 89 100 67 100 10 0 0 0 0 0 1 5
99 100 100 96 100 96 78 95 91 100 82 73 94 96 65 100 100 100 100 100 100 100 100 100 100 100 100 87 47 5 34 77 37 100 39 48 94 94 0 0 0 0 0 5 5
100 96 100 100 100 100 100 93 100 100 53 99 100 100 100 100 99 100 100 100 100 100 100 100 100 99 100 55 32 28 6 38 30 6 9 100 100 58 1 0 0 0 0 4 5
100 100 100 100 100 100 100 100 100 60 100 100 100 100 100 100 100 100 100 100 87 100 91 71 96 10 12 98 76 97 100 10 93 69 100 100 98 100 2 0 0 0 0 4 5
100 100 100 100 100 100 100 100 100 100 100 100 100 100 99 100 79 100 31 9 90 41 100 100 97 92 100 100 100 100 37 63 100 100 100 100 100 100 0 0 0 0 0 0 5
100 100 100 100 100 100 100 100 100 100 100 100 100 100 100 64 22 8 61 25 6 89 100 100 100 100 100 100 100 100 100 100 100 100 100 100 66 5 2 5 0 0 0 0 5
100 100 100 100 100 100 100 100 100 100 100 100 100 100 100 100 26 22 48 99 100 100 100 100 100 100 100 100 100 100 100 100 100 100 100 100 100 0 5 5 5 0 0 1 5
100 98 100 100 100 100 100 100 100 100 100 100 100 100 100 92 82 87 92 100 100 100 100 100 100 100 100 100 100 100 100 100 100 100 100 100 44 8 5 0 0 0 0 2 0
89 100 100 100 100 100 100 100 100 100 100 100 100 100 87 87 92 100 100 100 100 100 100 100 100 100 100 100 100 100 100 100 100 100 99 100 100 94 4 0 0 0 0 0 0
97 100 100 100 100 100 100 100 100 100 100 100 100 100 17 54 70 100 100 100 100 100 100 100 100 100 100 100 100 100 100 100 100 100 100 100 100 100 96 4 0 0 0 0 0
100 100 100 100 100 100 100 100 100 100 100 100 100 100 7 42 58 100 100 100 100 100 100 100 100 100 100 100 100 100 100 100 100 92 100 100 100 84 5 5 2 0 0 0 0
100 100 100 100 100 100 100 100 100 100 100 100 100 100 45 72 90 91 100 100 100 100 100 100 100 100 100 100 100 100 100 100 95 100 100 80 64 8 5 5 2 2 2 0 0

GFSSW_prec_cloud_024.txt.gz
Cloud_Cover
3 65 8 4 100 100 100 100 29 5 5 73 74 98 100 100 94 89 26 0 0 0 0 0 0 0 0 0 0 0 2 3 0 0 0 0 0 0 0 0 10 100 78 38 46
22 100 100 73 100 100 100 100 100 5 5 44 15 49 100 100 77 87 1 4 0 0 0 0 0 0 0 0 0 0 11 0 0 0 0 0 3 0 0 0 0 45 100 84 84
100 100 100 100 100 100 100 100 100 5 42 71 97 36 58 57 95 12 0 10 10 0 0 0 0 0 0 0 0 0 30 0 0 0 0 0 4 2 0 0 0 2 67 82 100
100 100 100 100 100 100 100 100 100 65 39 100 96 9 5 4 29 0 0 0 0 1 9 0 0 0 0 0 0 0 0 0 0 0 0 0 0 0 0 0 0 0 1 100 100
100 100 100 100 100 100 100 100 100 100 100 100 100 100 100 61 38 5 4 0 0 0 20 4 0 0 0 0 0 0 0 0 0 0 0 0 0 0 0 0 0 0 0 67 100
100 100 100 100 100 100 100 100 100 100 100 100 100 100 100 99 5 5 5 1 0 0 2 0 0 1 4 0 0 0 0 0 0 0 0 0 0 0 0 0 0 0 0 0 62
89 100 100 100 100 100 100 100 100 100 100 100 100 100 100 12 37 13 5 0 0 0 0 0 0 3 53 4 3 0 0 0 0 0 0 0 0 0 0 0 0 0 0 0 0
100 100 100 100 100 100 100 100 100 100 100 100 100 100 100 100 100 14 9 0 0 0 0 31 86 74 80 47 5 4 2 1 0 0 0 18 1 0 0 0 0 0 0 0 0
100 64 100 100 100 100 100 100 100 100 100 99 100 100 100 100 36 7 99 5 0 0 1 52 100 56 18 83 80 12 23 3 1 0 0 0 0 0 0 0 0 0 0 0 0
52 64 93 86 100 100 100 100 100 100 100 100 100 100 100 100 100 41 82 13 5 0 0 3 16 97 12 53 73 88 5 5 5 0 0 0 0 0 0 0 0 0 0 0 0
19 57 100 100 100 38 100 100 100 100 100 100 100 100 100 100 100 78 56 5 5 4 3 5 11 38 5 0 4 5 12 5 5 5 4 4 0 2 0 0 0 0 0 0 0
8 70 99 100 100 100 24 35 8 80 99 100 100 100 100 100 100 100 11 4 1 5 5 52 68 5 2 5 5 6 7 9 5 5 52 52 11 0 0 0 0 0 0 0 0
68 5 54 100 100 99 100 91 5 21 82 100 48 48 100 100 100 100 30 16 69 63 57 26 8 5 5 5 8 9 65 76 85 5 4 10 3 0 0 0 0 0 0 0 0
100 7 38 100 100 37 100 68 6 52 72 100 98 83 100 100 100 100 97 100 100 66 100 100 61 24 6 12 55 20 7 6 23 56 43 32 28 0 0 0 0 0 0 0 0
100 97 100 100 49 16 18 5 8 59 5 100 73 100 100 100 100 100 78 100 100 52 99 76 60 100 38 90 100 17 96 76 6 8 81 6 44 6 5 0 0 0 0 0 0
100 100 100 100 37 95 100 100 80 53 70 62 100 92 100 100 100 100 100 100 100 100 96 86 99 81 34 100 67 39 68 100 62 80 72 2 13 1 4 0 0 0 0 0 0
100 100 99 97 31 90 100 100 87 74 63 79 82 57 97 100 100 100 92 100 100 100 100 100 96 79 100 100 100 100 100 100 100 99 28 3 4 0 4 0 0 0 0 0 0
100 100 100 88 64 100 100 100 93 56 6 44 78 100 100 100 99 98 99 100 100 100 100 100 100 100 100 100 100 100 100 100 98 63 1 78 16 0 5 0 0 0 0 0 0
100 100 100 100 100 100 98 100 45 22 23 100 100 100 100 100 84 95 100 96 77 95 100 97 78 100 100 100 100 100 100 99 100 74 92 81 0 64 25 1 0 0 0 0 0
100 100 100 100 100 100 100 85 30 40 58 89 100 100 100 100 100 100 68 12 92 99 92 66 94 66 69 55 93 98 81 100 100 76 5 20 34 1 1 53 29 0 0 0 0
100 100 100 100 100 100 100 97 85 9 60 100 100 100 100 100 86 100 13 0 0 7 20 100 89 91 88 100 100 100 100 99 40 6 54 4 6 13 96 100 100 51 0 0 0
100 100 100 100 100 100 100 100 97 92 81 100 100 100 100 100 96 42 5 6 28 96 100 100 100 97 100 100 100 100 100 100 100 68 66 100 100 100 100 100 100 100 57 4 0
100 100 100 100 100 100 100 100 100 100 100 100 100 100 100 100 98 15 73 91 100 100 100 100 100 100 100 100 100 100 100 100 100 100 100 100 100 100 100 100 98 100 30 4 0
100 100 100 100 100 100 100 100 100 100 100 100 100 100 100 100 92 29 100 100 100 100 100 100 100 100 100 100 100 100 100 100 100 100 100 100 100 100 100 100 100 100 64 0 0
100 100 97 100 100 100 100 100 100 100 100 100 100 100 98 100 82 100 100 100 100 100 100 100 100 100 100 100 100 100 100 100 100 100 100 100 100 100 100 100 100 100 7 0 0
100 100 96 100 100 100 100 100 100 100 100 100 100 100 100 94 55 100 100 100 100 100 100 100 100 100 100 100 100 100 100 100 100 100 100 100 100 100 100 100 100 85 6 5 0
100 96 100 100 100 100 100 100 100 100 100 100 100 100 100 72 91 99 99 100 100 100 100 100 100 100 100 100 100 100 100 100 100 100 100 100 100 100 100 100 100 52 5 5 5

GFSSW_prec_cloud_027.txt.gz
Cloud_Cover
98 5 5 1 4 5 4 6 38 90 99 100 56 20 63 61 15 94 54 0 0 0 0 0 0 0 0 0 0 0 0 5 0 0 0 0 0 0 0 0 0 0 53 100 100
100 53 24 5 5 4 0 5 0 48 68 100 70 70 98 100 100 100 7 0 0 0 0 0 0 0 0 0 0 0 31 0 0 0 0 0 0 1 0 0 0 0 0 88 100
100 100 6 0 0 4 6 88 93 5 70 100 100 65 94 100 98 88 5 0 0 24 0 0 0 0 0 0 0 0 15 0 0 0 0 0 0 0 1 0 0 0 0 0 26
100 100 10 5 5 7 88 100 100 100 100 100 100 100 26 85 100 100 10 5 0 72 8 0 0 0 0 0 0 0 0 0 0 0 0 0 0 0 0 0 0 0 0 0 0
100 100 98 6 6 98 100 100 100 100 100 100 100 100 88 75 58 100 100 5 5 35 33 95 0 0 0 0 0 0 0 0 0 0 0 0 0 0 0 0 0 0 0 0 0
100 100 100 18 46 100 100 100 100 100 100 100 100 100 100 69 100 100 100 72 44 5 45 48 2 0 2 1 1 0 0 0 0 0 0 0 0 0 0 0 0 0 0 0 0
100 100 98 95 70 100 100 100 100 100 100 100 100 100 100 100 100 100 99 100 100 100 6 6 16 5 55 5 4 2 0 0 0 0 0 0 0 0 0 0 0 0 0 0 0
100 97 97 97 99 100 100 100 100 100 100 100 100 100 100 100 100 100 100 100 100 100 8 12 20 28 100 84 45 48 4 4 0 0 0 0 0 0 0 0 0 0 0 0 0
100 100 96 97 89 99 100 100 100 100 100 100 100 100 100 100 100 100 100 100 100 100 100 93 99 100 100 100 99 100 29 4 5 0 0 0 0 0 0 0 0 0 0 0 0
100 100 100 91 100 10 97 100 100 100 100 100 100 100 100 100 100 100 100 100 100 100 100 60 98 100 100 100 88 84 91 16 5 3 0 0 0 0 0 0 0 0 0 0 0
100 100 100 100 81 99 47 100 100 100 100 100 100 100 100 100 100 100 100 100 100 100 100 13 54 38 9 72 48 9 29 32 24 9 1 0 0 0 0 0 0 0 0 0 0
100 100 100 75 100 100 100 46 94 100 100 100 100 100 100 100 100 100 100 100 100 100 100 19 60 43 4 1 3 5 60 38 23 5 5 2 0 0 0 0 0 0 0 0 0
94 100 100 100 92 100 100 91 4 34 99 100 68 99 100 98 100 100 96 99 92 100 100 98 96 100 5 5 5 5 53 97 48 14 3 2 0 0 0 0 0 0 0 0 0
100 100 100 100 100 100 100 100 5 16 63 36 51 69 98 83 96 100 71 33 44 26 42 93 98 32 5 6 10 96 5 5 5 23 54 5 16 0 0 0 0 0 0 0 0
88 100 100 100 100 100 98 94 59 31 7 19 57 51 100 96 49 8 48 98 99 100 81 58 8 5 5 39 99 64 89 21 32 10 16 5 79 5 0 0 0 0 0 0 0
100 100 100 100 100 100 82 59 77 70 69 94 99 98 100 100 99 70 54 99 100 100 100 73 46 18 5 78 72 97 100 100 100 72 95 5 10 4 5 4 2 0 0 0 0
100 100 100 100 47 100 60 97 97 89 75 73 100 98 100 98 96 100 80 99 100 100 100 100 100 88 28 100 100 100 100 100 100 100 73 5 3 4 100 64 34 2 0 0 0
89 100 100 100 100 100 100 87 86 16 95 100 69 48 87 16 53 64 97 97 100 100 100 94 98 100 41 60 100 100 100 100 100 49 5 50 6 17 95 100 100 5 0 0 0
100 100 100 100 100 100 72 100 18 100 100 100 99 98 99 100 99 93 100 100 76 96 100 98 52 5 6 99 54 100 100 100 100 100 100 42 1 0 1 98 100 4 0 0 0
100 100 100 100 100 100 100 29 78 100 100 71 26 98 100 100 94 99 68 81 51 42 88 85 95 5 18 72 100 100 100 100 100 100 98 1 1 2 12 53 37 3 0 0 0
100 100 94 100 100 100 100 98 100 100 100 72 98 100 89 73 100 100 100 53 60 4 58 100 98 56 80 98 97 100 100 91 92 86 99 17 0 36 63 100 9 3 67 2 0
100 100 100 100 100 100 100 85 24 12 13 22 95 100 100 100 100 100 73 26 4 31 100 100 100 100 100 100 100 100 100 100 100 100 29 1 18 53 81 100 100 81 100 20 8
96 100 100 100 100 100 100 95 100 87 49 100 100 100 100 100 100 93 100 46 100 100 100 100 100 100 100 100 100 100 100 100 100 100 65 44 16 16 100 91 81 5 100 100 62
100 100 100 100 100 77 100 89 100 100 96 100 100 100 100 100 100 84 100 100 100 100 100 100 100 100 100 100 100 100 100 100 100 100 84 78 97 100 34 57 38 55 100 100 100
100 100 100 100 100 69 97 100 100 100 96 100 100 100 100 100 100 100 100 96 98 100 100 100 100 100 100 100 100 100 100 100 100 100 100 100 100 100 100 100 100 100 100 100 99
100 100 100 100 100 96 93 100 100 100 100 100 100 100 100 100 90 100 100 100 100 100 100 100 100 100 100 100 100 100 100 100 100 100 100 100 100 100 100 100 100 100 100 100 100
100 100 96 100 100 100 100 100 100 100 100 100 100 100 100 100 97 92 72 100 100 100 100 100 100 100 100 100 100 100 100 100 100 100 100 100 100 100 100 100 99 100 100 100 100

GFSSW_prec_cloud_030.txt.gz
Cloud_Cover
100 100 100 100 100 100 92 11 5 11 51 27 44 91 100 100 100 87 59 4 4 0 0 0 0 0 0 0 0 0 0 2 0 0 0 0 0 0 0 0 0 0 0 0 0
100 100 100 100 100 100 92 29 47 23 7 22 51 39 64 100 100 100 26 5 8 0 0 0 0 0 0 0 0 0 38 0 0 0 0 0 0 0 0 0 0 0 0 0 0
100 100 100 100 100 100 100 100 54 100 99 93 15 88 55 90 100 100 10 8 65 17 1 0 0 0 0 0 0 0 12 0 0 0 0 0 0 0 0 0 0 0 0 0 1
100 100 100 100 100 100 100 100 100 5 57 96 94 100 100 69 57 100 8 27 100 60 58 3 0 0 0 0 0 0 0 0 0 0 0 0 0 0 0 0 0 0 0 0 0
100 100 100 100 100 100 100 100 97 44 74 98 43 100 100 100 99 100 53 61 67 53 100 92 34 0 2 0 0 0 0 0 0 0 0 0 0 0 0 0 0 0 0 0 0
100 100 100 100 100 100 100 76 5 5 8 3 4 66 86 100 100 100 96 24 63 96 89 76 100 23 7 1 1 11 0 0 0 0 0 0 0 0 0 0 0 0 0 0 0
100 100 92 100 100 100 98 90 5 5 10 30 100 99 100 100 100 100 100 100 18 12 59 100 100 73 59 5 4 11 4 0 0 0 0 0 0 0 0 0 0 0 0 0 0
100 100 100 100 100 100 100 96 68 74 87 100 100 100 100 100 100 100 100 100 100 78 39 92 100 100 100 76 88 97 87 32 0 0 0 0 0 0 0 0 0 0 0 0 0
100 100 100 100 100 100 95 100 100 100 100 100 100 100 100 100 100 100 100 100 100 100 53 58 85 79 100 100 55 65 80 48 26 4 1 2 1 0 0 0 0 0 0 0 0
100 100 100 100 100 100 97 100 100 75 98 100 100 100 100 100 100 100 100 100 100 100 96 66 88 85 96 100 100 100 38 100 100 24 5 2 0 0 0 0 0 0 0 0 0
6 100 100 100 100 100 100 100 100 98 96 98 100 100 100 100 100 100 100 100 100 100 100 100 100 100 100 100 89 49 80 100 100 24 23 3 0 0 0 0 0 0 0 0 0
6 13 100 100 100 100 100 100 67 94 100 62 90 100 100 100 100 100 100 100 100 100 100 100 100 100 100 72 31 98 100 100 75 4 1 0 0 0 0 0 0 0 0 0 0
51 11 100 100 100 100 100 100 31 24 100 100 100 100 100 100 100 100 100 100 100 100 100 100 100 77 5 5 5 5 5 5 6 4 2 5 0 0 0 0 0 0 0 0 0
60 24 92 100 100 100 100 100 100 100 12 92 99 100 100 100 100 83 92 80 38 7 5 21 27 5 5 5 12 79 5 5 5 42 83 4 17 0 0 0 0 0 0 0 0
75 8 13 100 100 100 100 100 100 100 63 25 51 88 97 100 100 100 32 95 76 55 6 9 5 10 78 9 58 48 36 47 7 56 84 46 71 0 0 0 0 0 0 0 1
22 5 62 100 100 100 100 100 100 100 78 76 94 100 100 99 100 87 99 87 97 100 100 64 49 89 20 19 92 81 99 100 100 97 95 29 35 0 5 4 27 5 0 0 0
77 7 32 100 100 100 100 100 100 99 92 99 100 100 100 100 100 100 95 100 100 100 100 100 94 100 100 73 98 100 100 100 100 100 50 31 20 4 1 94 11 5 5 5 0
5 1 47 100 100 100 100 100 78 72 100 100 100 100 100 100 100 100 100 100 98 100 100 99 69 93 97 39 10 66 100 100 100 32 8 6 2 0 31 14 30 3 5 5 5
92 31 100 100 100 100 100 99 44 89 100 100 100 100 92 54 92 100 100 97 93 57 100 90 66 5 25 9 34 97 100 50 100 100 100 7 0 0 0 4 5 5 5 13 5
91 100 100 100 100 100 100 100 92 100 100 100 100 100 97 100 100 100 100 34 40 72 86 100 91 5 11 62 94 94 50 93 100 100 98 5 0 0 0 4 80 34 30 5 5
100 100 100 100 100 100 100 80 100 100 100 100 96 39 97 100 100 100 100 22 32 4 60 100 98 99 100 89 88 100 100 100 96 98 88 8 3 1 0 9 7 89 5 5 5
100 100 100 100 100 100 100 80 100 98 74 70 12 71 99 100 100 100 23 6 15 24 70 91 100 100 100 100 100 100 100 100 100 100 100 100 2 5 86 99 100 100 40 5 5
100 100 100 100 100 100 100 100 78 31 31 74 93 51 76 97 99 91 20 89 99 77 100 100 100 97 58 100 100 100 100 100 100 100 100 100 98 74 100 100 100 100 91 6 5
100 100 100 100 100 100 100 82 45 26 100 81 84 100 100 100 100 76 98 100 100 100 100 100 100 98 92 100 100 100 100 100 100 100 100 100 100 91 100 100 100 100 47 94 5
100 100 100 100 100 98 100 88 100 60 43 85 100 100 100 100 100 100 99 100 100 100 100 100 100 100 100 100 100 100 100 100 100 100 100 100 55 49 100 100 86 15 21 51 11
100 100 100 100 95 100 94 100 100 99 92 100 100 100 100 100 100 100 100 100 100 100 100 100 100 100 100 100 100 100 100 100 100 100 100 100 90 98 100 87 100 86 7 86 100
100 100 100 100 100 100 100 100 100 100 100 100 100 100 100 100 100 100 100 100 100 100 100 100 100 100 100 100 100 100 100 100 100 100 100 100 97 100 100 100 100 100 100 100 100

GFSSW_prec_cloud_033.txt.gz
Cloud_Cover
100 100 100 100 100 86 99 100 67 5 6 5 5 37 27 70 100 100 97 77 47 62 100 36 5 5 5 5 1 5 0 0 0 0 0 0 0 0 0 0 0 0 0 0 0
99 30 100 100 86 96 80 100 100 86 6 5 7 6 8 54 86 97 52 93 95 86 82 100 64 22 5 5 5 0 21 0 0 0 0 0 0 0 0 0 0 0 0 0 0
12 100 66 99 100 29 88 63 98 100 98 68 85 95 8 34 84 100 91 98 100 97 12 34 69 5 0 0 1 0 18 0 0 0 0 0 0 0 0 0 0 0 0 0 0
99 76 94 88 86 18 77 88 100 100 100 100 100 75 17 74 78 76 50 81 44 100 100 21 64 5 5 2 0 0 0 0 0 0 0 0 0 0 0 0 0 0 0 0 0
100 100 56 100 100 100 86 100 100 100 100 100 100 100 70 93 81 29 12 27 75 100 92 55 27 42 38 5 3 0 0 0 0 0 0 0 0 0 0 0 0 0 0 0 0
100 100 100 100 100 100 100 100 100 100 100 100 100 100 100 90 100 27 11 29 30 70 100 100 81 83 96 5 5 4 0 0 0 0 0 0 0 0 0 0 0 0 0 0 0
100 100 100 100 100 100 100 100 100 100 100 100 100 100 100 100 99 100 56 53 86 100 100 100 98 93 65 29 5 5 5 5 4 0 0 0 0 0 0 0 0 0 0 0 0
99 100 100 100 100 100 100 100 100 100 100 100 100 100 100 89 95 100 97 100 100 100 100 100 100 93 53 91 34 30 68 63 5 0 0 0 0 0 0 0 0 0 0 0 0
65 100 100 100 100 100 100 100 79 74 66 49 91 99 56 80 73 100 100 100 100 100 100 100 100 100 36 79 19 75 69 100 29 10 3 2 1 0 0 0 0 0 0 0 0
41 54 100 100 100 100 100 100 100 100 100 100 100 100 81 39 45 24 66 91 100 100 100 100 100 100 100 62 11 16 78 100 100 100 100 7 1 0 0 0 0 0 0 0 0
5 34 16 100 100 100 100 100 100 100 100 100 100 28 53 100 100 100 100 100 100 100 100 13 99 100 100 100 100 76 5 30 62 100 100 5 0 0 0 0 0 0 0 0 0
76 55 75 73 100 100 100 100 100 100 96 63 93 73 100 100 100 100 100 100 100 100 100 96 100 100 100 100 100 84 84 85 85 100 59 28 0 0 0 0 0 0 0 0 0
100 21 64 4 97 100 100 100 100 100 53 97 100 100 99 100 100 100 100 100 100 100 100 100 100 100 100 86 58 94 64 21 16 5 0 2 0 0 0 0 0 0 0 0 0
100 97 100 100 81 100 100 100 100 100 100 84 100 83 96 100 100 100 100 90 100 94 70 70 67 21 21 77 100 100 100 22 5 47 89 3 3 0 0 0 0 0 0 0 0
8 93 81 100 100 100 100 100 100 100 100 52 66 100 100 84 100 70 54 99 100 100 100 100 100 98 100 99 34 44 13 20 5 33 100 98 94 0 1 9 5 5 0 0 0
100 40 56 100 86 79 100 100 100 98 99 100 81 100 100 100 99 71 100 99 70 98 93 46 66 54 5 5 13 58 46 61 45 86 95 5 90 0 8 100 51 3 0 0 0
100 19 100 100 14 100 100 100 100 58 100 100 100 100 100 100 100 100 100 100 100 99 96 92 49 44 63 67 43 94 100 83 99 100 42 5 53 0 2 72 100 4 0 0 0
100 67 23 43 88 100 100 100 100 100 100 100 100 100 100 100 100 100 100 100 100 100 95 81 97 43 92 96 59 52 85 51 42 23 7 5 12 0 0 1 98 93 5 0 0
98 64 12 12 100 100 100 100 72 100 100 100 100 100 100 100 100 100 100 99 100 100 83 99 99 63 7 5 84 99 99 38 100 17 100 42 1 0 0 0 32 54 69 26 0
100 100 100 9 100 100 100 100 90 100 100 100 100 100 100 100 100 100 100 100 100 100 100 97 57 5 5 38 30 94 78 90 100 93 100 10 4 0 0 0 12 8 99 97 4
84 87 94 98 99 100 100 100 96 100 100 100 100 100 100 100 100 100 100 100 100 100 88 100 79 23 72 97 94 100 100 100 99 93 98 67 2 5 0 22 0 1 5 73 12
100 96 100 100 100 100 100 100 100 100 100 100 100 100 100 100 100 100 100 100 100 100 74 34 97 73 100 91 93 8 77 100 100 100 100 100 28 98 65 80 89 0 0 5 74
83 100 100 100 100 100 100 100 99 100 97 67 77 100 100 100 100 100 100 100 95 25 5 66 99 100 100 98 93 82 100 100 100 100 100 100 100 100 94 7 1 0 1 5 6
100 100 100 100 100 100 100 100 99 18 99 100 83 100 100 100 100 100 100 100 7 5 81 100 100 79 31 82 100 100 100 100 100 100 100 90 100 100 98 11 4 10 52 17 5
100 100 100 100 100 100 100 100 100 91 8 84 80 100 100 100 100 100 100 91 96 100 98 99 100 75 96 98 100 100 100 100 100 100 100 89 98 100 66 86 100 100 100 63 35
100 100 100 100 100 100 99 68 75 78 24 95 75 100 100 100 99 82 58 98 100 100 99 100 100 100 100 100 100 100 100 100 100 100 100 94 62 100 100 100 100 100 100 94 86
100 100 100 100 100 100 98 86 100 100 72 64 99 51 100 99 99 90 74 47 100 100 100 100 100 100 100 100 100 100 100 100 100 100 34 100 98 100 98 100 100 100 100 78 97

GFSSW_prec_cloud_036.txt.gz
Cloud_Cover
57 99 100 100 100 100 100 100 98 100 85 14 0 10 94 100 100 100 100 100 100 100 93 88 37 8 33 16 5 5 5 5 5 1 0 0 0 0 0 0 0 0 0 0 0
100 78 100 100 100 100 100 100 86 94 99 72 5 10 6 91 100 100 100 100 100 100 100 32 29 30 63 10 36 31 5 5 4 1 0 0 0 0 0 0 0 0 0 0 0
100 85 86 100 100 100 100 100 100 97 100 100 100 6 5 28 100 100 100 100 100 100 100 92 71 25 28 100 84 5 5 5 4 0 0 0 0 0 0 0 0 0 0 0 0
100 100 98 97 100 100 99 100 100 100 100 100 100 99 100 22 64 14 50 100 100 100 100 92 86 23 81 100 100 100 100 6 5 3 0 0 0 0 0 0 0 0 0 0 0
100 100 77 100 91 100 100 100 100 100 100 98 95 100 98 51 62 28 5 43 91 100 98 100 93 91 81 42 63 100 100 16 5 3 0 0 0 0 0 0 0 0 0 0 0
100 100 92 100 100 84 100 100 92 63 100 91 59 100 100 100 90 100 64 26 70 93 100 100 100 100 100 84 24 100 71 13 44 5 3 0 0 0 0 0 0 0 0 0 0
94 79 100 100 100 100 97 100 100 100 98 58 62 49 100 100 100 97 72 63 69 78 82 86 94 100 95 94 54 56 56 9 5 5 5 3 0 0 0 0 0 0 0 0 0
46 14 66 100 100 100 100 100 100 100 100 100 100 100 96 100 100 100 100 89 50 90 74 100 100 100 100 31 10 5 64 45 11 5 24 5 77 4 0 0 0 0 0 0 0
36 70 12 11 100 100 100 100 100 100 100 100 100 100 100 100 100 100 100 100 100 100 100 99 64 80 70 55 46 21 5 31 77 11 6 5 16 75 2 0 0 0 0 0 0
78 5 6 6 46 100 100 100 100 100 100 100 100 100 100 100 100 100 100 100 100 100 100 100 76 88 79 39 26 5 7 5 10 46 5 5 5 64 13 6 4 0 0 0 0
100 100 99 74 5 100 100 100 100 100 100 100 100 100 98 100 100 100 50 75 77 100 100 100 100 100 100 100 100 100 100 45 62 31 8 5 5 100 100 100 100 34 0 0 0
100 100 100 91 29 84 100 100 100 100 100 100 100 86 97 72 58 5 6 56 55 93 100 100 100 100 100 100 100 100 100 64 80 73 5 7 15 49 100 100 100 90 9 1 0
35 76 97 87 100 65 100 100 100 100 100 100 100 65 90 25 46 30 61 96 53 78 100 100 100 100 100 100 100 100 78 97 99 70 11 5 8 8 10 83 100 100 98 54 4
84 94 86 92 12 78 100 100 100 100 100 100 100 100 100 96 31 68 87 56 99 100 100 100 99 100 100 100 100 46 35 5 24 59 34 46 12 5 11 98 92 95 74 40 5
100 100 100 100 19 44 100 100 100 100 100 100 99 100 100 52 70 61 99 100 100 100 100 100 100 100 100 67 29 50 59 50 70 76 86 38 100 0 5 5 36 5 5 0 4
100 94 99 76 11 82 100 100 100 100 61 96 100 100 100 98 57 85 100 100 100 100 100 100 100 94 74 14 6 29 71 100 100 99 88 4 59 0 2 11 5 4 0 0 0
100 100 100 100 2 99 100 100 100 100 70 100 100 100 100 100 96 63 100 100 100 100 100 83 73 40 36 86 47 95 99 91 89 100 17 0 15 0 4 0 0 0 0 0 0
99 84 23 100 19 100 100 100 100 99 94 100 100 100 100 96 100 100 100 100 100 100 100 94 74 55 94 76 90 100 94 43 5 7 4 28 14 0 0 0 0 0 0 0 0
97 72 34 38 9 100 100 100 100 100 100 100 100 100 100 100 100 100 100 100 100 100 94 100 98 56 41 24 59 83 94 14 95 84 93 8 0 0 0 0 0 0 0 0 0
100 82 24 45 94 100 100 100 100 100 100 100 100 100 100 100 84 100 100 83 93 66 99 92 64 28 32 20 29 50 54 90 100 90 59 6 4 41 97 5 0 0 2 0 0
100 90 88 99 100 100 100 100 100 100 100 83 100 100 100 100 100 100 99 68 78 87 88 100 92 100 36 78 20 100 100 78 88 97 98 52 30 100 94 1 0 0 0 0 0
100 100 76 96 99 100 100 100 100 100 75 100 100 100 100 100 100 100 100 100 100 100 100 98 99 79 9 5 4 7 34 100 100 88 100 100 39 100 100 49 5 0 0 0 1
100 100 100 100 100 100 100 100 100 100 100 100 100 100 100 100 100 100 100 100 100 100 100 79 92 54 6 14 57 89 86 100 100 100 100 100 73 100 100 100 96 17 0 0 0
100 100 100 100 100 98 100 100 100 82 89 95 100 100 100 100 100 100 100 100 100 100 98 89 90 25 5 58 100 99 100 100 100 100 100 100 79 100 100 100 99 74 3 0 0
100 100 100 100 100 89 100 95 100 87 28 99 100 100 100 100 100 100 100 100 100 98 98 85 100 22 96 79 98 99 100 99 100 98 100 40 100 92 100 100 96 26 3 2 2
100 100 100 46 15 66 100 87 100 63 5 50 82 100 100 100 100 100 100 100 96 62 100 99 100 99 100 92 100 100 100 100 100 100 100 100 84 100 98 94 75 6 15 89 70
100 100 100 100 98 100 100 18 24 35 5 34 100 100 100 100 100 100 100 84 97 79 96 100 100 100 100 99 94 100 100 100 100 100 100 100 32 18 100 100 100 100 100 100 100

GFSSW_prec_cloud_039.txt.gz
Cloud_Cover
100 100 100 68 97 100 100 99 100 100 100 100 84 96 68 100 100 100 100 100 100 100 100 100 100 100 100 99 91 41 5 36 5 5 5 2 0 5 3 0 5 0 0 0 0
94 100 100 100 99 100 100 100 77 100 100 100 100 93 99 38 100 100 100 100 100 100 100 100 100 100 100 100 100 64 6 72 14 4 5 0 0 0 1 0 0 0 0 0 0
100 100 100 100 100 67 100 100 100 100 100 100 100 100 100 79 70 100 100 100 100 100 100 100 100 100 100 100 100 87 7 89 5 5 5 5 0 0 4 2 1 0 0 0 0
100 100 83 100 100 93 96 100 100 100 100 100 100 100 100 100 96 97 39 100 100 100 100 100 100 100 100 84 93 98 11 86 6 5 5 5 5 0 0 0 0 0 0 0 0
98 100 100 88 100 100 69 100 100 100 100 100 100 100 100 100 98 85 4 38 100 100 100 100 100 100 100 100 100 71 25 64 98 93 12 5 5 2 1 0 0 0 0 0 0
99 94 15 20 100 100 100 50 100 100 100 100 100 100 100 100 94 100 67 5 26 100 100 100 100 100 100 100 100 100 91 84 44 100 100 98 18 5 1 0 0 0 0 0 0
93 52 10 5 40 100 100 91 100 100 100 100 100 94 100 70 100 100 100 86 51 35 85 100 100 100 100 100 100 100 69 5 5 18 100 94 70 5 0 0 0 0 0 0 0
6 5 5 63 16 85 100 100 100 100 100 100 100 98 100 100 100 100 100 100 100 80 43 72 60 100 100 100 100 53 61 27 23 7 5 16 67 4 0 0 2 1 0 0 0
0 5 27 20 72 6 99 100 100 100 100 100 100 100 30 100 98 65 100 100 100 100 100 81 98 100 83 100 76 71 100 100 100 82 5 20 76 5 2 4 5 4 3 0 0
0 2 11 36 21 5 64 100 100 100 100 100 100 100 100 64 100 87 10 100 100 100 100 100 100 100 98 94 81 33 23 9 19 6 5 5 5 51 5 5 30 5 44 6 0
5 32 93 100 96 82 77 100 100 100 100 100 100 100 100 100 86 100 79 85 100 100 100 100 100 100 100 76 42 96 32 5 6 5 4 4 5 68 31 9 5 5 5 5 30
11 33 5 5 56 67 86 100 100 100 100 100 100 100 100 100 100 100 94 74 100 100 100 100 100 100 100 100 100 100 77 5 5 5 4 5 5 5 14 5 5 5 5 26 100
65 100 100 52 24 32 17 100 100 100 100 98 100 100 100 100 100 100 100 85 100 100 100 100 100 100 100 100 100 100 100 85 26 5 5 5 5 5 5 44 34 21 39 38 99
72 100 100 100 66 54 39 100 100 100 100 100 100 100 100 100 100 100 100 100 100 100 100 100 100 100 100 100 100 100 100 100 100 97 80 88 7 36 99 100 98 100 49 16 26
39 100 100 100 100 74 19 100 100 100 100 100 99 100 100 100 100 100 98 59 91 100 90 33 5 26 65 7 85 100 100 100 100 100 97 100 74 18 100 98 100 61 45 39 5
93 100 100 92 40 30 52 100 100 100 100 100 100 100 100 100 100 95 100 82 54 100 95 72 82 83 100 97 100 100 100 100 100 98 88 93 88 21 72 46 35 12 4 0 0
100 100 100 90 68 68 100 100 100 100 94 100 100 100 100 100 100 100 100 100 32 94 100 79 100 79 63 41 71 96 90 68 74 100 5 4 0 0 99 15 0 0 0 0 0
37 94 60 60 82 77 100 100 100 100 96 83 100 100 100 100 100 100 100 100 100 80 100 95 100 100 100 74 57 100 98 9 5 5 4 4 2 3 3 6 0 0 0 0 0
100 76 68 20 82 100 100 100 100 96 93 100 100 100 100 100 100 100 100 100 86 100 94 96 73 31 98 66 67 80 98 15 97 30 37 2 5 0 1 4 0 0 0 0 0
100 93 93 24 78 100 100 100 88 72 100 100 100 100 100 100 100 100 100 78 100 92 86 98 61 49 98 96 69 66 58 82 98 86 5 0 0 5 61 71 80 100 59 1 0
100 100 91 39 100 100 100 100 100 100 100 97 100 100 100 100 100 100 90 65 62 74 100 76 63 100 63 63 52 76 98 55 89 100 86 65 26 100 100 100 93 82 100 25 5
99 98 99 92 100 100 100 100 100 100 100 100 100 100 98 100 100 100 95 77 33 15 99 99 99 49 36 96 70 70 77 98 100 47 100 100 39 96 100 87 51 100 100 41 2
100 100 100 100 100 100 100 100 100 100 89 93 100 100 100 93 96 100 74 19 14 68 100 100 100 100 100 94 86 67 36 96 100 100 100 100 90 100 100 92 69 96 100 100 45
100 100 100 100 100 100 100 100 100 100 100 100 100 100 100 100 98 96 94 100 100 100 100 100 100 100 100 66 68 73 99 100 100 100 95 93 57 100 100 100 100 100 100 100 70
80 100 100 100 100 100 100 100 99 100 76 40 100 100 100 100 99 67 98 100 100 100 100 100 100 88 71 24 40 97 99 100 100 100 100 100 100 100 100 100 100 69 100 92 37
100 100 89 99 100 100 100 94 100 89 6 8 95 100 100 100 99 94 100 100 100 98 100 82 96 100 98 40 94 99 100 100 100 100 100 100 100 100 100 100 100 100 100 100 65
100 100 100 100 100 100 97 94 92 61 99 100 100 100 100 100 100 100 100 98 100 82 78 100 100 100 96 99 80 89 100 100 100 100 100 100 91 100 100 100 100 100 100 100 55

GFSSW_prec_cloud_042.txt.gz
Cloud_Cover
100 100 99 40 99 100 100 100 100 100 100 88 100 100 14 96 100 100 100 100 98 100 100 100 100 100 88 11 9 20 5 6 57 5 78 0 0 4 0 0 0 0 0 0 3
25 100 95 86 100 100 100 100 100 100 100 100 100 100 100 62 86 100 100 100 100 100 100 100 100 100 98 46 5 5 5 96 72 14 5 0 0 0 0 0 0 0 0 0 0
3 97 100 100 48 62 97 100 94 100 100 100 100 100 100 100 94 93 100 100 100 100 100 100 100 100 100 93 62 64 86 100 100 33 5 5 1 0 0 0 1 0 0 0 0
19 1 95 100 100 95 100 100 75 100 98 100 100 100 100 100 100 73 46 100 100 100 100 100 100 100 100 100 100 100 100 100 100 66 16 6 4 4 0 0 0 0 0 0 1
7 28 100 100 50 53 85 100 100 93 96 100 100 100 100 100 62 100 14 78 100 100 100 100 100 100 100 100 100 100 100 100 100 90 100 8 9 5 5 0 3 0 0 0 0
5 30 100 8 34 11 16 100 100 99 100 100 100 100 100 100 100 100 100 55 12 100 100 100 100 100 100 100 100 100 100 100 100 100 100 32 6 5 6 1 0 0 0 0 0
3 2 48 0 4 5 14 100 100 100 100 52 100 100 80 100 100 100 100 100 100 87 93 100 100 100 100 100 100 100 100 100 100 100 78 9 5 5 100 75 59 5 5 3 0
5 4 0 0 0 5 45 6 100 100 100 100 100 100 100 100 100 100 100 100 89 98 94 100 100 100 100 100 100 100 100 100 100 100 100 54 74 5 17 100 82 5 5 5 0
11 5 0 0 28 75 5 4 81 100 100 100 100 96 100 100 100 100 100 100 100 100 100 100 96 100 100 100 100 100 100 100 100 100 100 76 59 6 5 9 13 5 5 1 1
13 62 50 46 45 100 18 2 92 100 100 100 100 99 100 100 100 100 100 100 100 100 100 100 67 9 77 100 100 100 100 100 100 100 100 52 6 5 5 5 4 5 5 5 3
35 57 6 14 19 10 49 3 46 100 100 100 100 100 100 100 100 100 100 100 100 80 100 100 100 100 48 29 79 100 100 100 100 100 95 6 5 5 5 5 6 5 5 27 7
38 76 85 100 100 26 18 100 100 100 100 100 100 84 100 100 100 100 100 100 100 100 100 100 100 100 100 100 88 38 30 16 5 7 4 5 5 5 5 2 5 25 8 5 5
50 100 100 100 100 55 13 38 100 100 100 100 100 93 100 100 100 100 100 69 100 100 100 96 100 100 100 100 61 27 6 6 8 5 5 5 4 5 5 5 5 5 5 5 5
5 100 97 88 100 100 11 8 100 100 100 100 100 97 100 100 100 100 100 51 80 100 100 67 100 100 100 100 100 100 97 99 26 5 33 5 5 5 5 15 44 7 5 5 5
88 20 12 50 99 100 81 34 100 100 100 100 100 97 100 97 100 100 100 100 94 41 100 100 44 98 100 100 100 89 100 100 100 100 100 100 52 56 98 89 14 52 5 32 9
75 100 60 80 89 38 14 100 100 100 100 100 98 99 96 100 100 100 100 100 100 100 100 98 100 100 100 100 100 100 100 100 98 99 90 100 100 75 100 100 100 99 81 40 5
6 96 28 66 100 15 51 100 100 100 100 100 100 100 99 100 100 100 100 100 100 100 100 100 100 95 100 100 100 100 100 100 96 91 42 5 5 72 100 100 100 29 5 5 5
100 83 23 90 100 55 100 100 100 100 100 100 100 100 100 100 100 100 100 100 100 100 100 100 100 100 100 96 85 100 98 5 5 5 9 14 14 16 100 100 99 3 0 0 5
84 50 100 94 100 38 100 100 100 93 100 100 100 100 100 100 100 100 100 100 100 72 62 99 98 40 98 54 90 84 63 23 84 35 9 75 77 5 3 5 5 5 0 0 1
100 94 100 66 57 99 100 100 100 100 100 100 98 100 100 100 100 100 100 100 100 100 68 100 91 41 100 100 84 80 50 71 51 60 10 3 2 5 5 5 6 5 5 39 34
58 94 74 66 94 100 100 100 100 100 100 100 52 74 97 100 100 100 100 99 100 100 100 99 81 67 91 42 14 40 94 92 77 50 5 5 6 4 10 80 92 100 100 98 100
85 99 92 73 97 100 100 100 100 100 100 75 72 100 100 100 93 100 100 100 65 72 100 100 99 100 7 5 5 91 41 18 87 5 40 32 43 5 30 40 24 6 7 23 58
100 96 98 100 100 100 100 100 100 99 100 92 100 100 100 100 100 100 96 51 62 45 92 98 92 23 91 82 98 21 5 5 37 93 94 84 33 100 18 100 100 96 100 66 100
92 100 100 100 100 100 100 100 100 100 100 50 94 92 100 100 100 100 100 67 44 8 100 56 99 44 44 20 25 7 8 84 100 100 52 48 31 99 100 100 100 99 100 100 95
82 100 95 100 100 100 100 100 100 100 19 46 98 100 100 100 100 99 100 60 39 54 5 6 58 40 8 5 5 5 41 98 100 97 100 77 100 100 100 100 100 100 100 71 5
100 100 90 50 100 100 100 94 98 83 93 100 100 100 100 100 100 100 100 33 52 66 83 88 94 94 5 16 8 9 55 88 100 100 100 100 100 100 100 100 100 100 100 92 8
92 100 100 98 100 74 87 40 87 94 100 71 100 100 100 100 100 100 69 42 100 78 100 96 59 14 58 73 8 23 77 78 92 86 100 100 100 100 100 100 100 100 100 100 63

GFSSW_prec_cloud_045.txt.gz
Cloud_Cover
1 0 71 100 100 100 100 100 100 100 100 100 100 100 38 14 100 100 100 100 100 100 100 100 100 100 98 31 13 5 4 17 100 100 99 1 0 0 0 0 0 0 0 0 0
3 5 0 17 100 69 99 100 100 100 100 100 100 100 100 100 87 96 100 100 100 100 100 100 100 100 90 96 5 5 5 89 79 95 98 4 0 0 0 1 0 0 0 0 0
97 5 93 18 100 100 94 100 100 79 100 100 100 100 100 100 93 100 96 100 100 100 100 100 100 100 98 90 5 11 51 100 75 56 5 5 3 0 4 4 1 0 0 0 0
6 76 100 100 100 100 100 100 100 100 100 100 100 100 100 100 100 100 100 100 100 100 100 100 100 100 100 100 78 57 69 100 100 49 5 5 5 0 0 5 4 0 0 0 0
4 5 4 15 100 5 82 82 99 100 55 91 100 100 100 100 100 100 100 100 100 100 100 100 100 100 100 100 98 62 41 97 100 66 5 72 12 5 5 4 4 0 0 0 0
95 67 5 77 49 0 42 42 8 100 58 100 100 100 100 100 100 100 100 100 100 92 100 100 100 100 100 100 95 99 100 81 99 100 94 98 100 68 21 5 3 0 0 0 2
100 73 66 5 0 2 6 5 3 93 90 100 100 99 88 100 100 100 100 100 100 100 100 100 100 100 100 100 100 100 100 100 100 100 100 100 100 91 100 80 53 3 1 5 5
98 100 100 11 5 3 4 1 3 24 100 100 100 71 89 100 100 100 100 100 100 100 100 99 100 100 100 100 100 100 100 100 100 100 100 97 99 100 100 94 48 99 79 6 8
98 100 12 5 91 11 93 45 0 2 100 100 100 89 79 87 100 100 100 100 100 100 100 100 100 100 100 100 100 100 100 100 100 100 99 11 100 100 91 64 9 16 8 5 17
75 9 5 5 71 53 5 98 5 6 100 100 100 98 14 96 100 100 100 100 100 100 100 100 100 100 100 100 100 100 100 100 100 100 100 10 75 100 100 14 98 95 20 9 57
5 5 39 70 93 45 7 25 4 5 99 100 100 99 100 100 100 100 100 100 100 100 100 100 74 100 99 100 100 100 100 100 100 100 100 100 100 100 100 77 69 96 26 5 5
5 9 100 57 97 100 61 23 58 98 100 100 100 100 100 97 100 100 100 97 100 100 100 99 100 100 100 100 87 100 100 100 100 100 100 100 100 100 100 100 100 100 100 93 5
1 42 54 22 84 100 100 5 24 100 100 100 100 100 100 100 100 100 100 100 100 100 100 100 100 100 74 85 100 79 94 100 100 100 100 100 100 100 100 100 100 100 71 25 22
48 13 5 5 73 96 54 12 12 100 100 100 100 100 82 99 100 100 100 100 100 100 100 100 100 100 100 100 99 49 78 95 87 100 100 100 100 100 100 100 100 85 89 26 6
92 12 30 19 42 84 99 4 100 100 100 100 100 100 96 100 100 100 100 100 100 100 100 100 100 100 100 98 31 24 44 86 25 12 5 5 5 100 84 96 95 30 18 12 5
100 100 52 78 100 91 100 88 100 100 100 100 100 98 95 100 97 100 100 100 100 100 100 100 100 100 81 56 29 100 100 23 13 7 44 52 3 5 97 100 100 99 64 70 87
94 97 100 81 99 20 83 100 100 100 100 100 100 83 100 100 100 100 100 100 100 100 100 100 97 100 62 12 9 77 100 94 54 93 69 54 9 10 92 100 100 100 99 79 88
100 72 86 97 95 20 100 88 100 100 100 100 96 100 100 100 100 100 100 100 100 100 100 100 75 95 100 100 99 60 38 93 81 92 100 94 99 100 100 99 89 78 100 83 95
24 95 60 73 38 96 97 100 100 100 99 100 100 100 100 91 100 100 100 100 100 100 100 100 100 100 14 78 6 11 99 100 100 100 99 100 100 100 100 98 47 15 0 1 1
60 68 33 91 94 98 100 100 100 100 99 100 90 100 98 96 100 100 100 100 100 100 100 100 100 100 100 100 100 55 86 100 100 87 42 66 97 75 3 1 2 5 5 5 6
51 100 76 98 100 100 100 100 100 100 100 100 96 100 100 100 100 100 100 100 100 100 100 100 100 100 95 84 100 97 90 58 17 6 34 42 36 12 5 5 5 5 28 31 97
43 98 100 100 100 100 100 100 100 100 100 95 100 96 51 67 90 97 100 100 100 100 92 99 100 96 6 13 71 91 44 41 47 56 46 14 20 39 0 5 8 50 5 5 5
100 100 86 100 100 100 100 100 100 100 100 100 100 77 100 99 51 99 93 96 100 100 100 99 93 44 93 94 90 83 5 5 62 67 17 92 13 0 10 89 71 30 5 6 97
56 100 100 100 100 100 100 100 100 99 96 76 94 100 95 98 80 82 91 100 100 100 100 77 89 45 12 31 41 40 30 13 85 96 18 23 11 83 62 96 52 34 96 100 100
51 37 89 100 100 100 100 100 96 97 66 83 98 100 100 100 100 100 100 91 52 87 93 86 5 5 13 70 81 5 5 52 69 73 100 91 94 100 86 100 100 81 100 100 95
86 95 93 92 82 100 98 100 83 59 86 75 95 100 100 100 100 100 100 74 100 99 53 59 36 97 99 25 5 5 18 100 100 65 84 100 100 100 100 100 100 100 100 100 58
100 82 99 5 6 45 49 5 38 60 87 55 96 100 100 100 100 100 100 99 97 89 73 100 88 40 5 5 8 57 100 97 100 53 71 70 89 96 100 100 100 100 100 100 100

GFSSW_prec_cloud_048.txt.gz
Cloud_Cover
95 100 100 100 11 100 100 100 100 99 82 100 100 100 100 100 100 100 100 100 100 100 100 100 100 100 97 99 15 5 25 100 100 68 100 20 4 0 1 1 0 5 0 0 5
100 100 100 100 100 100 100 100 100 100 100 100 100 100 100 100 97 100 100 100 100 100 100 100 100 100 100 46 13 5 5 100 100 100 99 3 0 0 3 5 4 0 0 0 2
9 9 33 100 99 100 100 100 80 100 100 91 96 100 100 100 100 100 100 100 100 100 100 100 100 100 100 100 58 5 12 100 100 100 7 3 0 0 4 5 69 0 0 0 0
14 59 8 51 5 3 100 69 94 3 95 64 100 100 100 100 100 100 100 100 100 100 100 100 100 100 100 100 100 100 100 100 100 78 64 56 2 4 5 48 30 3 0 0 1
100 100 100 96 5 3 1 13 5 38 83 42 93 100 100 100 100 100 100 100 100 100 100 100 100 100 100 100 100 100 100 100 100 78 5 39 45 6 5 10 5 5 0 0 0
100 100 100 100 71 3 2 4 5 3 3 71 56 100 100 100 100 100 100 100 100 100 100 100 100 100 100 100 100 100 100 100 100 98 95 100 100 100 22 5 5 5 3 4 5
40 72 100 100 26 5 61 2 32 13 0 8 58 100 83 100 100 100 100 100 100 100 100 100 100 100 100 100 100 100 100 100 100 100 100 100 99 68 79 5 5 5 5 4 0
21 22 39 25 77 78 10 10 54 4 0 85 100 100 46 100 100 100 100 100 100 100 100 100 100 100 100 100 100 100 100 100 100 100 93 29 96 100 100 19 5 5 5 15 31
5 5 68 5 64 53 5 47 99 5 0 35 100 100 100 83 100 100 100 100 100 100 100 100 100 100 100 100 100 100 100 100 100 100 100 64 100 100 100 89 38 36 97 50 5
5 4 5 75 80 90 70 5 14 38 0 97 100 100 100 94 100 100 100 100 100 100 100 100 100 100 100 100 100 100 100 100 100 100 100 95 100 100 100 100 100 100 100 100 100
5 5 8 5 78 100 28 23 3 34 16 100 100 100 99 100 67 100 100 100 100 100 98 100 100 100 100 100 100 100 100 100 100 100 99 94 88 100 100 100 100 99 94 99 100
43 8 2 36 5 85 30 84 5 77 70 100 100 100 100 100 100 100 100 100 100 100 100 100 100 100 100 100 100 100 100 100 100 100 99 100 100 100 100 100 100 100 100 100 100
72 100 99 6 4 6 10 75 35 31 96 100 100 100 100 100 62 97 100 100 100 100 100 100 100 100 100 100 99 98 100 100 100 100 100 100 100 100 100 100 100 100 100 100 100
8 34 100 100 74 15 92 97 5 92 100 100 100 100 86 100 53 100 98 100 100 100 100 100 100 100 36 94 100 100 100 100 100 100 100 100 100 100 100 100 100 100 100 100 100
7 32 90 69 100 82 77 14 67 100 98 100 100 100 99 96 62 100 100 100 100 100 100 100 100 100 100 100 100 100 100 100 97 95 100 100 100 100 100 100 100 100 100 100 100
98 57 95 96 100 81 59 100 97 100 100 100 100 100 100 78 54 100 100 100 100 100 100 100 100 100 100 79 98 100 100 100 100 78 97 100 95 100 100 100 100 100 100 96 85
100 77 80 99 92 46 93 100 94 100 100 100 100 100 100 100 100 96 100 100 100 100 100 100 100 100 100 100 100 100 75 84 100 99 97 10 5 80 100 100 100 96 49 59 15
98 5 86 98 86 89 100 100 100 97 98 100 57 86 100 100 100 100 100 100 100 100 100 100 99 100 100 100 100 100 44 39 79 49 5 5 5 66 5 57 100 100 93 5 5
20 42 98 96 33 100 100 100 100 100 100 100 100 100 100 97 100 100 100 100 100 100 100 100 100 100 100 100 92 58 38 90 96 21 47 5 28 77 91 34 5 5 7 5 5
6 43 83 100 100 100 100 100 100 97 100 77 93 94 100 100 100 100 100 100 100 100 100 79 99 100 99 100 100 100 100 56 28 17 5 8 89 100 100 68 5 5 3 9 28
5 48 100 100 100 100 100 100 100 100 98 100 100 100 100 100 100 100 100 100 100 100 100 100 100 100 100 100 95 96 94 100 18 5 58 87 100 100 100 92 93 68 21 6 5
92 100 100 100 100 100 100 100 100 100 80 99 89 49 94 100 100 100 100 100 100 100 100 100 100 62 79 91 60 90 46 11 39 84 66 42 93 5 8 61 89 98 11 5 4
19 82 100 100 92 100 100 100 100 100 86 100 100 100 100 100 90 100 100 100 100 100 100 100 76 92 100 100 100 100 100 99 91 69 60 61 23 33 64 98 54 93 100 41 5
45 21 12 94 100 96 100 100 96 64 100 100 100 100 100 100 100 100 100 100 100 100 100 100 100 100 100 95 40 17 8 25 14 74 46 48 3 5 65 85 100 100 100 86 97
41 20 65 100 80 99 43 91 98 55 100 100 100 100 100 100 100 100 100 100 100 100 100 100 100 100 100 53 6 14 17 6 17 30 74 5 96 88 89 100 100 100 100 100 100
45 86 99 99 100 68 10 24 39 41 76 100 100 100 100 99 98 98 100 100 100 100 100 100 99 100 46 42 7 5 34 14 5 63 79 92 37 100 100 100 100 100 100 100 100
95 80 99 67 7 14 68 72 77 100 100 100 100 100 100 100 100 100 100 100 100 100 100 100 96 64 18 46 75 65 24 29 73 83 100 81 92 90 89 100 100 100 100 100 100

GFSSW_prec_cloud_051.txt.gz
Cloud_Cover
99 41 88 100 100 100 100 100 100 68 100 48 76 100 100 100 100 100 100 100 100 100 100 100 100 100 100 100 84 19 65 96 100 100 100 100 83 5 100 100 76 20 1 4 5
88 27 42 5 68 46 43 100 100 100 84 91 20 100 100 100 100 100 100 100 100 100 100 100 100 100 74 100 100 34 34 100 100 100 99 14 8 5 50 100 100 100 90 5 20
79 100 98 100 95 61 7 5 100 100 100 66 5 73 100 100 100 100 100 100 100 100 100 100 100 100 100 100 100 88 70 100 100 100 99 5 5 5 5 19 96 100 79 5 4
5 85 97 85 98 53 93 3 5 41 82 1 41 42 100 100 100 100 100 100 100 100 100 100 100 100 100 100 100 100 100 100 100 100 100 5 5 5 34 100 100 95 31 5 5
5 16 49 100 96 100 29 5 8 14 27 2 19 75 100 100 100 100 100 100 100 100 100 100 100 100 100 100 100 100 100 100 100 100 100 22 5 5 5 12 11 6 5 5 5
5 13 5 5 51 72 51 5 59 13 66 8 93 100 100 100 100 100 100 100 100 100 100 100 100 100 100 100 100 100 100 100 100 100 88 83 37 5 9 5 2 4 5 5 6
14 58 5 5 70 48 87 97 100 5 11 5 98 100 100 100 100 100 100 100 100 100 100 100 100 100 100 100 100 100 100 100 100 100 100 100 96 47 18 4 0 0 5 5 5
4 56 5 0 5 19 25 100 92 6 62 0 63 100 100 100 100 100 100 100 100 100 100 100 100 100 100 100 100 100 100 100 100 100 100 90 100 99 47 26 2 7 5 9 59
18 5 4 1 66 96 100 98 5 5 84 0 83 100 100 100 95 100 100 100 100 100 100 100 100 100 100 100 100 100 100 100 100 100 100 100 100 100 97 69 5 5 83 64 86
5 5 7 0 3 44 100 75 54 1 10 1 35 100 100 100 100 100 100 100 100 100 100 100 100 100 100 100 100 100 100 100 100 100 100 100 100 100 100 100 100 58 97 100 65
100 86 50 58 5 5 92 29 27 4 3 4 82 100 83 100 100 100 100 100 100 100 100 100 100 100 100 100 100 100 100 100 100 100 100 100 100 100 100 100 100 100 34 83 100
43 100 97 100 100 9 48 47 53 49 56 40 100 100 100 92 100 78 100 100 100 100 100 100 100 100 100 100 100 100 100 100 100 100 100 100 100 100 100 100 100 100 100 100 100
95 100 97 67 100 92 6 92 29 28 83 100 100 99 96 80 100 100 100 100 100 100 100 100 100 100 100 100 100 100 100 100 100 100 100 100 100 100 100 100 100 100 100 100 100
84 100 97 99 46 89 5 56 5 48 70 100 100 100 100 96 99 100 77 100 100 100 100 100 100 100 100 100 99 100 100 100 100 100 100 100 100 100 100 100 100 100 100 100 100
100 100 100 100 100 100 42 5 39 97 65 61 100 100 100 85 97 97 100 93 100 100 100 100 100 100 100 100 100 100 100 100 100 99 100 100 100 100 100 100 100 100 100 100 100
100 83 98 82 96 100 28 68 93 96 100 100 100 100 100 100 77 100 100 100 100 100 100 100 100 100 95 82 80 100 100 100 64 89 100 100 100 100 100 98 100 100 85 98 100
90 32 68 45 77 72 88 48 93 100 95 100 100 93 100 77 87 100 100 93 100 100 100 100 100 100 100 100 100 50 50 100 100 99 100 100 100 100 100 100 100 96 100 90 82
6 5 99 67 5 55 50 76 100 100 100 100 99 96 96 100 100 100 96 100 100 100 100 100 100 100 100 100 100 8 52 69 44 68 68 100 100 100 100 100 100 100 60 5 5
5 14 100 100 19 60 100 100 91 87 100 100 100 100 100 100 100 98 100 100 100 100 100 100 100 100 100 100 100 58 87 100 96 99 100 100 100 100 96 5 5 5 5 5 5
40 95 100 100 100 76 100 100 100 100 100 25 89 91 99 100 99 100 100 100 100 100 100 100 100 100 100 100 100 99 99 100 95 67 100 100 100 97 39 5 5 0 0 0 0
2 7 20 19 29 46 62 100 100 88 62 97 100 100 100 100 100 100 100 100 100 100 100 100 100 100 100 100 100 100 100 100 100 100 100 100 94 49 24 5 5 5 5 2 5
5 49 94 72 31 100 100 100 98 97 99 100 84 85 98 100 100 100 100 100 100 100 100 100 100 100 100 100 100 100 100 100 94 60 43 42 69 2 5 5 37 5 5 49 80
36 86 70 50 66 98 100 100 91 86 46 100 100 100 96 84 68 100 100 100 100 100 100 100 100 100 100 100 100 100 96 98 94 93 88 82 42 5 18 7 6 36 34 77 80
12 18 23 100 100 100 100 44 43 98 100 100 100 100 100 100 99 88 100 100 100 100 100 100 100 100 100 99 82 92 58 37 54 80 13 23 74 97 97 94 88 83 100 98 100
28 93 96 74 93 91 56 36 6 92 91 100 100 100 100 100 100 100 100 100 100 100 100 100 100 100 100 100 100 100 88 100 100 100 22 94 83 60 82 63 75 100 100 100 77
90 96 35 100 91 25 18 5 5 50 92 100 90 100 100 100 100 100 100 100 100 100 100 100 100 100 100 100 100 100 100 87 24 99 32 91 67 92 95 99 100 100 100 73 100
100 86 99 5 6 5 17 10 30 100 100 100 100 95 100 100 100 100 100 100 100 100 100 100 100 100 100 80 90 100 97 75 21 14 92 75 60 99 88 100 94 100 100 100 100

GFSSW_prec_cloud_054.txt.gz
Cloud_Cover
100 100 100 96 100 100 72 8 63 100 16 60 79 100 100 100 100 100 100 100 100 100 100 100 100 100 100 100 96 52 5 97 100 100 100 100 5 5 99 100 11 13 83 96 69
100 100 100 100 96 63 6 83 45 5 99 7 6 98 97 100 100 100 100 100 100 100 100 100 100 100 100 100 100 95 100 100 100 100 100 100 7 5 39 100 74 6 30 15 60
100 100 100 98 32 9 81 83 34 60 5 84 2 74 35 100 100 100 100 100 100 100 100 100 100 100 100 100 100 100 100 100 100 100 100 78 5 5 5 78 100 100 100 89 100
100 100 97 5 5 5 5 22 77 90 7 3 60 23 92 100 100 100 100 100 100 100 100 100 100 100 100 100 100 100 100 100 100 100 100 75 6 5 12 84 100 100 100 100 99
100 100 15 5 5 4 1 23 100 100 67 5 34 84 100 100 100 88 100 100 100 100 100 100 100 100 100 100 100 100 100 100 100 100 100 98 43 8 68 97 99 100 100 100 89
95 80 5 5 0 0 4 7 75 22 70 5 5 100 100 100 96 100 100 100 100 100 100 100 100 100 100 100 100 100 100 100 100 100 100 100 70 78 100 45 54 92 100 100 100
5 5 17 5 4 4 4 77 97 86 78 29 7 70 100 100 94 100 100 100 100 100 100 100 100 100 100 100 100 100 100 100 100 100 100 100 100 100 100 97 58 5 5 48 97
99 31 14 7 5 12 5 16 100 100 6 6 20 65 100 92 100 97 100 100 100 100 100 100 100 100 100 100 100 100 100 100 100 100 100 100 100 100 100 61 6 56 15 84 100
100 98 98 100 10 4 5 100 78 100 84 94 54 74 100 96 100 100 100 100 100 100 100 100 100 100 100 100 100 100 100 100 100 100 100 98 100 100 100 100 80 14 48 100 100
49 95 76 100 93 18 46 33 63 45 55 62 41 94 51 56 99 100 100 100 100 100 100 100 100 100 100 100 100 100 100 100 100 100 100 95 99 100 100 100 100 99 98 73 89
59 19 100 100 100 92 88 5 4 38 10 5 10 100 30 8 100 100 100 100 100 100 100 100 100 100 100 100 100 100 100 100 100 100 100 100 100 100 100 100 100 83 57 45 100
5 68 100 99 72 42 5 61 91 42 57 29 91 100 86 56 100 100 100 100 100 100 100 100 100 100 100 100 100 100 100 100 100 100 100 100 100 100 100 100 97 100 76 6 26
7 88 100 100 100 48 6 24 33 47 69 99 98 100 100 100 100 100 100 100 100 100 100 100 100 100 100 100 100 100 100 100 100 100 100 100 100 100 100 100 90 11 7 46 82
94 100 100 100 100 100 57 7 5 5 11 69 100 100 100 100 100 100 100 100 100 100 100 100 100 100 100 100 100 100 100 100 100 100 100 100 100 100 100 100 100 100 98 69 80
100 8 91 5 96 100 17 5 4 52 61 73 100 100 100 98 100 100 94 100 100 100 100 100 100 100 100 100 100 100 100 100 100 100 100 100 100 100 100 100 100 100 100 100 100
5 5 5 5 69 44 44 5 23 64 93 100 100 100 100 98 100 100 81 66 100 100 100 100 100 100 100 100 100 100 100 100 100 100 100 100 100 100 100 100 100 100 100 100 100
6 6 4 5 5 5 4 14 100 93 72 100 100 100 100 100 80 98 100 100 100 100 98 100 100 100 100 100 100 100 89 96 100 100 100 100 100 100 100 100 100 100 100 100 97
6 17 80 72 5 95 100 100 76 89 95 100 100 98 100 96 98 97 100 100 100 100 100 100 100 100 100 100 100 54 43 87 81 100 100 100 100 100 100 100 99 50 8 16 20
5 3 100 100 6 23 79 55 100 100 100 99 100 94 100 100 100 100 100 100 96 100 100 100 100 100 100 100 100 100 100 96 71 100 100 100 100 100 100 100 88 62 32 28 26
4 5 5 37 9 32 59 100 100 97 94 86 91 74 99 100 100 100 100 100 77 64 100 100 100 100 100 100 100 46 55 100 90 23 68 79 50 87 72 27 53 97 78 52 7
0 4 60 97 5 15 100 100 100 46 27 97 100 100 100 100 100 100 100 100 100 100 100 100 100 100 100 100 100 100 100 100 100 100 92 100 100 97 76 56 42 16 12 12 34
2 6 8 7 16 100 100 100 100 99 7 15 55 40 93 87 92 79 97 100 100 100 100 100 100 100 100 100 100 100 100 100 100 100 100 100 71 10 5 5 18 100 99 98 32
0 5 5 6 94 100 91 33 12 5 15 31 71 76 93 94 45 52 100 100 100 100 100 100 100 100 100 100 100 100 100 100 100 100 97 98 44 97 100 88 5 5 5 31 100
0 40 10 96 100 100 100 26 5 9 82 78 97 100 100 99 84 99 100 100 100 100 100 100 100 100 100 80 94 100 100 100 100 100 100 100 100 100 100 66 41 60 100 100 79
8 92 93 33 85 94 96 48 5 5 6 92 100 98 81 16 100 100 100 100 100 100 100 100 100 100 100 100 100 100 100 100 100 100 100 100 100 100 91 53 9 68 78 58 5
43 98 92 98 98 83 83 42 7 28 65 63 83 73 40 89 100 100 95 80 100 100 100 100 100 100 100 100 100 100 100 64 39 59 5 20 14 98 84 98 100 75 24 31 19
99 99 96 5 5 5 5 30 16 10 28 87 87 15 60 100 96 98 100 100 100 100 100 100 100 100 100 100 100 99 100 76 7 21 60 99 100 100 100 100 100 100 100 73 99

GFSSW_prec_cloud_057.txt.gz
Cloud_Cover
66 44 96 100 100 100 100 100 100 100 5 5 3 96 82 87 99 100 91 100 100 100 100 100 100 100 100 100 71 20 6 100 100 100 100 68 1 5 5 2 0 0 5 1 3
88 88 99 80 100 100 100 100 79 99 38 50 2 0 85 100 100 100 22 100 100 100 100 100 100 100 100 100 99 52 48 100 100 100 100 96 4 0 5 5 5 0 57 30 99
9 75 92 100 90 100 30 10 8 9 6 5 1 0 0 75 100 98 6 100 100 100 100 100 100 100 100 100 100 65 100 100 100 100 100 97 10 5 5 7 12 5 86 100 100
5 100 77 100 36 95 5 3 0 0 0 4 4 1 88 41 96 2 3 57 100 100 100 100 100 100 100 100 100 100 100 100 100 100 100 100 24 5 14 100 89 6 21 24 8
95 100 100 50 1 4 0 1 3 0 3 36 10 5 11 50 76 74 94 97 100 100 100 100 100 100 100 100 100 100 100 100 100 100 100 100 85 6 5 11 97 85 59 18 5
99 100 94 97 25 5 38 46 2 5 95 97 72 5 5 98 84 100 100 100 100 100 100 100 100 100 100 100 100 100 100 100 100 100 100 100 100 38 100 28 11 67 100 97 48
100 96 98 100 100 96 100 5 31 43 62 9 95 99 31 100 68 100 92 100 100 100 100 100 100 100 100 100 100 100 100 100 100 100 100 100 100 100 91 8 100 100 100 100 82
95 89 100 100 100 100 100 39 33 66 96 100 32 93 86 97 100 17 99 87 100 100 100 100 100 100 100 100 100 100 100 100 100 100 100 100 100 100 100 100 100 100 100 100 100
74 96 95 100 100 100 100 100 90 100 72 91 97 93 5 10 66 60 100 73 100 100 100 100 100 100 100 100 100 100 100 100 100 100 100 100 100 100 100 100 100 100 100 100 100
13 7 14 84 100 100 100 100 89 16 8 8 100 95 10 8 39 100 100 91 100 100 100 100 100 100 100 98 100 100 100 100 100 100 100 100 100 100 100 100 100 100 100 100 100
99 5 39 12 100 100 100 16 16 25 38 18 98 59 8 5 78 100 100 100 100 100 100 100 100 83 100 100 100 100 100 100 100 100 100 100 100 100 100 100 100 100 100 98 79
85 100 100 100 100 100 100 17 96 18 56 45 67 100 100 52 100 100 100 100 100 100 100 100 100 100 100 100 100 100 100 100 100 100 100 100 100 100 100 100 100 100 100 43 58
63 60 84 32 91 100 60 10 30 49 70 81 68 100 100 97 100 100 100 100 100 100 100 100 100 100 100 100 100 100 100 100 100 100 100 100 99 100 100 100 100 100 100 89 66
21 36 51 5 30 87 9 5 5 20 85 60 100 100 92 72 100 82 100 100 100 100 100 100 100 100 100 100 100 100 100 100 100 100 100 100 100 100 100 99 93 100 100 100 100
85 78 5 5 100 92 16 4 33 71 75 96 92 100 100 100 100 100 100 100 100 100 100 100 100 100 100 100 100 100 100 100 100 100 100 100 100 100 100 100 100 100 40 39 20
6 46 11 12 22 72 4 83 56 5 96 100 100 100 100 100 69 64 100 100 100 100 100 100 100 100 100 100 100 100 100 100 100 100 100 100 100 100 100 100 100 100 97 66 91
4 5 14 57 82 60 80 14 5 50 100 100 100 100 100 93 100 82 100 100 100 100 100 100 100 100 100 99 100 100 100 100 100 100 100 100 100 100 100 100 100 100 89 63 38
2 5 27 5 7 15 27 22 29 92 95 100 100 100 100 98 99 100 100 100 100 100 100 100 100 100 100 100 98 100 100 100 100 98 100 100 100 100 100 100 100 100 100 100 100
0 5 5 5 5 7 30 59 98 100 100 98 100 97 90 65 98 82 100 95 100 100 100 100 98 90 100 98 100 100 98 100 100 100 100 100 100 100 100 100 100 100 100 98 99
0 5 5 5 5 26 64 100 100 90 33 5 56 19 85 100 88 100 92 93 100 100 92 100 100 99 100 100 100 100 96 61 87 100 98 59 70 100 99 64 87 100 94 65 69
0 1 5 5 5 41 100 100 97 62 5 5 23 77 100 100 96 100 100 100 100 100 100 100 100 100 87 78 100 100 100 86 86 72 53 52 77 63 59 100 100 78 87 59 19
0 5 4 4 23 100 100 100 7 5 1 5 5 5 29 6 62 72 100 100 100 99 100 100 100 100 82 100 100 100 100 100 100 100 100 100 92 6 5 6 8 7 36 75 74
4 5 3 0 88 62 38 36 16 5 5 6 36 70 99 94 96 80 89 57 91 20 98 100 100 100 100 100 100 100 100 100 100 99 87 15 48 100 34 30 16 12 41 64 76
1 16 4 5 12 42 97 29 5 5 5 5 5 6 54 43 61 99 100 84 92 89 100 100 100 100 100 100 100 100 100 100 100 100 100 100 100 5 95 88 14 34 48 99 74
39 51 75 67 23 74 99 53 5 5 5 6 13 7 11 10 54 49 42 68 97 72 100 100 100 100 100 100 100 100 100 100 100 97 100 100 94 100 7 19 72 94 100 99 19
78 95 91 14 88 59 55 5 5 5 5 5 5 9 5 25 10 100 5 52 62 90 100 100 100 100 100 100 100 100 100 80 100 100 95 18 16 97 100 100 100 100 100 98 79
100 100 96 96 33 5 5 5 5 5 30 36 42 69 15 6 90 92 73 100 100 100 100 100 100 100 100 100 100 100 97 71 100 100 100 100 100 100 100 86 100 100 100 100 100

GFSSW_prec_cloud_060.txt.gz
Cloud_Cover
19 90 100 100 82 50 60 61 62 61 100 100 99 99 5 51 73 68 100 79 0 73 85 100 100 100 100 100 100 100 99 98 100 100 100 16 0 0 0 0 0 0 0 0 0
32 65 16 70 98 100 92 82 62 86 68 100 100 42 6 0 99 57 99 60 4 34 100 83 100 100 100 100 98 77 83 100 100 100 100 100 5 0 0 0 0 0 0 0 8
16 78 84 100 100 99 96 12 5 5 5 5 7 12 7 0 45 4 100 6 44 0 61 45 99 100 100 100 95 67 100 100 100 100 100 98 7 3 1 0 4 4 5 5 15
9 64 65 96 100 97 43 5 2 11 3 5 0 5 4 80 7 5 0 12 88 5 41 100 99 100 100 100 100 66 100 100 100 100 100 100 27 5 5 5 5 5 5 5 5
10 45 90 100 99 47 60 100 95 100 89 28 2 1 4 88 14 61 6 100 100 41 61 100 100 96 100 100 100 100 96 100 100 100 100 100 79 5 5 5 5 47 14 5 5
97 40 63 100 98 100 100 100 100 100 27 4 0 4 20 88 2 95 100 100 99 92 55 100 100 100 100 100 100 100 100 100 100 100 100 100 100 68 5 5 34 43 62 84 16
80 17 7 26 99 100 100 100 100 100 3 34 88 93 75 4 3 76 99 99 77 98 48 100 100 100 100 100 100 100 100 100 100 100 100 100 100 100 69 5 94 100 100 100 97
60 24 6 5 10 88 60 44 100 100 20 88 100 98 36 75 100 50 100 97 83 91 94 100 100 100 100 100 100 100 100 100 100 100 100 100 100 100 94 6 90 100 100 96 98
51 100 46 5 5 16 100 100 95 98 6 54 100 98 65 10 36 99 100 100 87 38 100 100 100 100 100 100 100 100 100 100 100 100 100 100 100 100 100 99 25 99 100 100 100
98 99 100 100 95 77 86 100 96 5 23 49 60 95 83 4 84 100 100 100 75 98 100 100 100 100 100 100 100 100 100 100 100 100 100 100 100 100 100 100 79 92 100 100 100
100 63 73 95 100 100 98 100 45 38 73 24 98 100 20 9 100 100 47 99 96 97 100 100 100 100 100 100 100 100 100 100 100 100 100 100 100 100 100 100 100 100 100 100 100
97 23 7 5 88 84 100 51 5 11 49 83 93 99 83 99 100 100 100 97 98 99 100 100 100 100 100 100 100 100 100 100 100 100 67 100 100 100 100 100 100 100 100 100 100
69 54 13 6 96 82 24 9 5 5 72 38 100 99 100 84 100 100 100 100 100 90 100 100 100 100 94 100 100 100 100 100 100 100 100 100 100 100 100 100 100 100 100 100 100
14 5 12 5 9 8 9 5 33 87 100 100 100 82 98 100 100 100 100 100 100 100 100 100 100 100 100 100 99 100 100 100 100 100 100 100 36 100 100 100 100 100 100 100 100
7 100 41 0 13 95 48 69 45 100 100 100 100 100 66 79 99 100 100 100 100 100 100 100 100 100 99 98 100 100 100 100 100 100 100 100 100 100 100 100 100 100 100 100 100
2 2 5 16 3 55 6 5 8 74 99 100 100 100 100 100 100 100 100 100 100 100 100 100 100 100 100 100 98 100 100 100 100 100 100 100 100 100 100 100 100 100 100 100 94
19 5 2 5 5 5 5 61 30 67 94 100 100 100 93 100 100 100 100 100 100 100 100 100 100 100 100 100 100 100 100 100 100 100 100 100 100 100 100 100 72 56 58 49 41
5 5 5 5 5 5 5 29 58 100 100 100 100 99 100 64 100 100 100 100 100 100 100 100 100 100 100 100 100 100 94 95 100 100 100 100 100 100 100 100 100 81 54 82 99
0 5 4 5 5 5 49 90 98 100 100 97 40 96 92 84 98 100 100 100 100 100 100 100 100 100 100 100 92 100 100 84 79 100 100 100 100 100 100 100 100 100 100 100 100
0 0 3 4 3 5 52 96 98 100 68 54 19 48 58 20 51 100 100 100 100 100 100 100 100 100 100 98 71 100 100 98 100 100 99 96 100 100 100 100 100 100 100 100 100
0 0 0 0 0 0 100 97 68 8 5 5 5 5 53 42 62 93 100 100 100 59 100 100 91 100 100 100 74 53 16 11 56 72 22 9 100 100 100 60 44 68 89 100 100
0 0 0 0 12 52 100 98 8 5 5 2 5 36 73 11 8 5 50 100 100 100 96 5 10 99 95 96 100 100 99 99 99 100 100 100 100 100 99 60 100 100 80 79 85
0 0 0 0 31 18 7 14 5 5 0 5 5 5 5 5 17 6 5 64 83 95 99 100 100 86 95 53 10 69 100 72 100 100 100 100 100 95 96 70 5 5 7 47 90
4 18 1 0 8 5 4 5 5 5 3 5 1 4 5 5 5 5 5 12 8 5 5 96 100 100 100 32 55 75 79 100 100 100 90 100 59 88 84 20 42 89 45 26 39
5 47 85 5 5 5 0 3 1 2 5 5 5 5 5 5 5 7 6 5 96 16 17 77 86 97 100 100 78 100 100 100 100 100 100 100 68 92 96 96 100 98 90 100 99
79 96 90 9 5 5 5 5 5 5 5 5 5 5 5 5 6 5 5 5 14 88 64 96 99 100 100 100 100 100 100 100 100 100 100 97 79 100 100 100 100 99 100 100 100
95 96 100 100 6 5 5 5 5 5 5 5 40 13 21 6 5 64 48 52 59 100 100 100 100 100 100 100 100 100 100 100 100 100 100 71 88 93 69 8 79 97 79 100 100

GFSSW_prec_cloud_063.txt.gz
Cloud_Cover
93 5 5 5 10 98 100 52 64 100 99 83 100 51 100 95 37 90 100 100 5 17 8 100 100 100 100 100 100 100 69 34 83 100 100 88 1 5 4 0 0 0 11 91 8
30 38 5 81 97 88 98 100 100 100 76 100 100 98 52 17 45 0 99 64 16 4 48 100 100 100 100 100 100 100 60 100 100 100 100 85 5 5 5 4 0 0 0 5 5
9 5 5 99 22 82 100 37 30 8 71 5 81 100 97 8 40 40 100 5 54 71 43 84 100 100 100 100 100 100 98 100 100 100 100 30 97 0 5 5 5 2 0 4 5
51 72 96 97 76 100 100 71 44 4 0 5 6 87 100 93 31 90 98 99 5 100 1 82 100 100 100 100 100 100 100 100 100 100 100 100 100 5 5 4 2 1 5 0 0
84 84 28 5 62 100 100 100 96 63 24 12 9 0 5 82 89 92 92 44 84 60 21 28 9 100 99 100 100 100 100 100 100 100 100 100 96 97 5 0 1 4 4 4 0
86 45 25 5 14 87 100 79 95 100 100 91 70 51 5 15 9 21 100 57 84 65 46 3 5 93 100 100 100 100 100 97 100 100 100 100 98 85 5 5 0 0 3 5 0
5 25 100 11 0 2 7 5 14 85 100 100 59 80 19 3 51 5 93 100 100 88 49 5 30 100 100 100 100 100 100 100 100 100 100 100 100 74 19 5 23 4 0 4 5
28 99 97 97 17 5 5 5 7 16 100 44 73 100 96 22 2 85 99 100 98 64 100 9 65 100 100 100 100 100 100 100 100 100 100 100 100 100 98 35 21 72 100 65 19
89 44 38 54 100 88 97 55 48 67 7 3 100 53 28 24 0 16 100 100 100 100 100 97 52 51 100 100 100 100 99 100 100 100 100 100 100 100 100 94 16 59 66 90 100
100 23 0 1 78 100 100 99 100 7 22 66 69 88 13 32 4 59 99 100 100 63 93 94 29 27 100 100 100 100 100 100 100 100 100 100 100 100 100 100 19 23 61 93 100
100 13 0 0 1 56 62 90 58 59 14 90 68 18 54 74 40 62 91 100 100 100 16 48 88 100 100 100 100 100 100 100 100 100 100 100 100 100 100 100 100 52 99 100 100
77 10 5 100 5 44 55 57 23 60 88 9 48 99 100 100 100 81 100 100 100 83 100 65 100 100 100 100 100 95 100 100 100 100 100 100 100 100 100 100 100 100 100 100 100
28 2 4 5 0 12 16 21 18 88 98 96 98 100 100 100 100 100 100 100 100 100 100 91 100 100 100 100 100 84 100 100 100 100 100 100 100 100 100 100 100 100 81 97 100
12 0 4 0 9 60 92 75 96 100 100 82 89 100 100 100 100 100 100 100 100 37 100 100 100 100 100 100 100 93 100 100 100 100 100 100 100 100 100 100 100 100 100 100 100
19 0 5 0 0 8 50 65 40 30 96 100 100 98 95 100 100 100 100 100 100 100 81 100 100 100 100 99 100 100 100 100 100 100 100 100 100 99 100 100 100 100 100 100 100
90 0 1 7 26 1 9 16 74 94 96 100 83 88 100 100 100 100 100 100 100 100 100 100 100 100 100 100 100 97 100 98 100 100 100 100 100 78 100 100 100 100 100 100 100
100 2 15 10 28 7 81 100 92 72 80 100 100 100 100 100 100 100 100 100 100 100 100 100 100 100 100 100 100 100 100 100 100 100 100 100 100 93 100 100 96 88 93 100 73
6 0 0 6 71 89 100 91 88 100 100 99 100 85 94 63 100 100 100 100 100 100 100 100 100 100 100 100 100 100 99 99 90 35 100 100 100 100 100 100 100 81 58 40 64
0 0 23 4 31 62 87 87 100 100 98 99 77 100 81 100 88 100 100 100 100 100 100 100 100 100 100 100 100 100 100 61 100 100 100 100 100 100 100 100 100 100 100 100 100
0 0 0 0 0 25 30 78 57 47 35 37 79 75 67 100 81 100 100 100 100 100 100 100 100 100 99 99 100 100 100 98 61 97 87 23 100 100 100 100 100 100 100 100 100
0 12 0 0 5 6 100 63 45 9 4 51 34 60 90 100 100 100 100 100 68 100 61 100 100 100 70 98 93 100 100 100 100 49 100 99 38 100 100 100 100 100 100 100 100
0 8 0 0 21 24 99 44 10 5 4 6 31 71 84 83 100 100 100 99 70 86 5 13 78 100 100 72 90 94 75 56 100 100 91 100 100 100 100 100 100 100 100 100 100
3 0 0 0 30 10 2 4 0 3 0 4 5 18 5 59 65 84 100 100 100 9 34 40 24 100 100 100 100 100 100 100 100 99 100 97 80 100 100 100 100 100 90 77 94
2 25 5 0 0 14 10 4 5 0 3 0 2 4 5 6 5 32 68 89 100 100 100 55 35 7 100 100 100 100 100 100 94 86 100 94 69 31 51 94 82 56 60 100 100
5 36 90 21 23 3 2 5 5 5 5 5 4 5 5 44 5 5 10 11 74 41 64 100 100 100 80 6 24 60 45 24 46 67 23 91 100 93 98 100 99 100 100 100 100
95 94 91 43 8 3 8 8 5 5 1 6 5 5 5 24 7 23 5 24 52 11 36 22 64 46 55 97 100 83 14 5 99 100 100 90 100 100 100 100 100 100 100 86 44
30 96 96 47 82 57 65 11 5 0 2 1 18 61 5 5 5 5 5 18 11 5 12 51 30 32 40 26 100 100 100 52 78 26 93 100 100 100 100 100 100 70 32 13 27

GFSSW_prec_cloud_066.txt.gz
Cloud_Cover
100 73 100 86 31 67 79 100 100 97 100 100 100 100 100 100 98 34 70 60 61 6 1 40 100 100 100 100 100 100 100 85 100 100 100 100 100 95 5 0 5 10 0 83 9
5 21 23 15 37 99 98 100 100 100 100 96 100 100 100 100 96 76 5 85 22 15 5 3 100 100 100 100 100 100 31 65 100 100 100 100 99 88 5 5 5 4 0 28 12
8 5 7 17 82 100 88 100 83 100 56 18 99 100 100 100 100 94 38 95 16 56 3 18 98 100 100 100 100 100 68 100 100 100 100 100 84 100 5 5 5 5 0 1 5
5 10 24 5 29 22 99 100 100 72 21 2 23 77 98 100 99 100 100 100 99 83 36 3 5 100 100 100 100 100 100 100 100 100 100 100 31 100 69 27 5 0 0 80 8
96 16 18 5 8 2 82 100 99 77 25 60 42 51 62 11 100 100 100 100 98 27 89 64 1 15 100 100 100 100 100 100 100 100 100 100 76 100 16 12 5 4 37 15 5
59 30 100 80 80 1 0 6 12 2 66 50 92 94 18 100 100 95 100 100 100 64 61 9 22 21 82 100 100 100 100 100 100 100 100 100 100 91 40 0 5 10 24 5 5
100 83 3 33 73 5 5 5 4 5 5 98 100 78 36 8 100 65 100 100 100 97 100 100 42 67 43 100 100 100 100 100 94 100 100 100 100 100 24 2 5 5 11 30 23
27 10 3 3 65 92 99 82 100 6 23 7 97 68 92 3 40 96 100 100 100 100 100 100 82 93 56 83 100 100 100 99 100 100 100 100 100 100 100 16 34 11 28 5 48
2 91 4 45 1 88 100 100 100 100 8 2 77 40 72 8 1 36 100 100 100 100 100 100 81 5 56 97 100 94 97 68 100 100 100 100 100 100 100 86 22 92 82 13 10
63 3 62 86 0 3 81 100 80 5 23 59 88 70 12 44 76 0 29 100 100 100 100 100 13 13 11 13 50 98 60 30 100 100 100 100 100 100 100 32 91 94 100 97 100
70 1 0 3 8 32 5 59 5 22 56 77 58 32 88 17 86 3 4 100 100 100 100 100 95 31 5 2 5 62 100 77 100 100 100 100 100 100 100 100 100 98 83 100 100
57 0 0 0 35 100 47 26 52 67 56 22 52 100 96 83 42 100 100 100 100 100 100 98 100 75 17 6 69 99 100 99 95 100 100 100 100 100 100 100 100 87 100 100 100
89 6 0 0 6 79 67 83 74 94 100 86 100 100 100 100 100 100 82 99 98 100 100 99 100 15 5 5 7 100 96 100 66 100 100 100 100 100 86 100 100 100 100 100 100
100 81 0 0 2 4 5 5 6 52 100 100 100 100 100 100 100 100 100 100 95 80 100 68 100 100 52 25 18 75 99 100 100 100 100 100 100 100 92 100 100 100 100 100 100
100 59 0 0 8 0 4 6 5 78 44 100 100 100 100 100 97 100 100 100 100 78 39 100 100 100 88 81 100 100 100 95 83 100 100 100 100 100 79 100 100 100 100 100 100
100 54 0 3 100 3 12 100 23 75 100 100 100 100 100 100 97 100 100 100 86 100 97 99 100 100 100 100 91 91 100 90 100 97 100 100 100 100 100 100 100 100 100 100 100
88 1 0 38 89 42 100 34 76 40 66 77 100 100 100 100 100 100 100 100 88 88 100 100 100 100 100 100 100 100 99 97 95 88 100 100 100 100 100 100 98 100 100 100 100
2 0 0 0 48 100 51 80 16 78 100 87 95 100 100 100 100 100 100 100 100 100 100 100 100 100 100 100 99 98 100 99 33 5 23 100 100 100 100 100 100 100 100 100 100
85 36 0 0 0 18 87 19 87 80 69 52 93 100 100 100 100 100 100 100 100 100 100 100 100 100 100 100 100 100 84 99 100 70 57 100 100 100 100 100 100 100 99 100 100
59 100 1 0 0 33 21 39 17 21 8 36 92 91 100 100 100 98 98 100 100 100 100 100 100 100 100 100 100 100 100 100 98 90 94 100 100 100 100 100 100 100 99 99 89
97 100 75 1 0 0 97 27 12 29 1 61 25 100 84 100 100 94 100 100 100 100 100 100 100 100 100 100 100 100 100 53 100 100 95 83 51 99 100 100 100 100 100 100 100
41 100 100 1 60 2 13 1 2 4 5 5 6 12 98 36 100 60 100 100 100 100 69 100 100 100 100 97 100 100 100 100 100 98 7 30 100 56 98 100 100 100 100 100 100
100 100 100 75 34 5 1 2 0 4 0 2 4 5 3 84 40 5 5 54 99 98 70 37 100 100 100 98 100 100 100 100 100 100 100 93 16 100 100 58 100 100 100 100 100
17 100 87 67 3 4 31 16 5 1 0 0 1 2 5 8 91 66 100 95 7 5 100 76 83 100 100 100 99 100 70 43 59 100 100 100 95 100 100 100 87 100 100 100 100
90 81 97 9 77 74 5 30 5 6 3 0 4 1 5 53 5 5 32 98 96 94 75 27 5 7 77 100 100 90 100 100 100 100 99 96 100 100 100 100 100 100 86 100 100
100 80 65 12 68 83 99 79 26 38 3 4 2 8 5 52 78 87 28 42 34 98 45 100 96 68 5 17 100 100 100 100 100 100 100 99 42 100 100 100 100 100 100 100 100
9 98 95 91 4 90 85 100 62 5 19 0 5 36 7 30 4 1 4 5 35 28 40 26 86 38 18 5 5 76 99 100 100 97 82 16 35 100 98 98 100 97 73 96 100

GFSSW_prec_cloud_069.txt.gz
Cloud_Cover
100 72 8 91 37 84 82 99 100 77 18 100 93 100 97 100 100 100 100 99 100 100 1 0 5 10 89 100 100 100 100 100 100 100 100 100 33 42 5 17 0 0 42 6 5
99 11 30 66 5 86 87 85 100 100 97 96 100 100 100 100 100 87 100 100 97 38 4 0 2 88 18 100 100 100 100 100 100 100 100 100 100 66 35 8 4 0 5 55 37
100 56 59 12 34 97 7 83 99 100 100 98 36 100 100 99 100 100 100 100 100 100 5 3 0 83 57 100 100 100 100 100 100 100 100 100 100 100 93 5 2 5 5 5 5
28 20 3 98 60 100 3 93 100 100 75 100 100 53 72 94 91 100 100 100 100 100 88 50 0 41 26 100 100 100 100 100 100 100 100 100 100 100 74 5 5 5 5 21 15
84 100 59 66 98 96 6 0 70 15 10 92 98 11 94 96 100 100 100 100 100 100 5 17 1 35 19 100 100 100 100 100 100 100 100 100 100 100 100 20 6 5 5 68 6
100 8 42 4 18 70 6 4 4 31 28 93 94 62 2 96 98 100 100 100 100 100 65 41 24 0 0 100 100 100 100 100 100 100 100 100 100 95 100 97 27 5 5 5 16
100 99 20 95 52 7 9 77 76 92 5 2 100 100 100 58 9 100 100 100 100 100 100 79 84 18 0 87 100 100 100 100 100 100 100 100 100 100 100 100 64 5 10 100 8
98 1 71 100 7 4 38 5 100 50 84 13 100 100 92 30 5 68 100 100 100 100 100 100 100 36 82 28 100 100 100 100 100 100 100 100 100 100 99 99 100 75 6 64 31
76 0 55 20 0 5 29 7 16 2 0 0 50 100 21 10 6 5 99 100 100 100 100 100 100 100 74 16 100 100 100 91 100 100 100 100 100 100 100 84 100 100 56 5 21
95 0 0 1 3 5 2 0 0 1 2 34 32 20 18 5 90 26 5 100 100 100 100 100 100 82 86 6 100 100 100 100 100 100 100 100 100 100 100 100 100 100 100 65 6
97 0 0 0 0 0 0 32 62 56 9 30 7 5 5 5 51 5 5 100 100 100 100 100 100 100 96 28 41 100 100 100 100 100 100 100 100 100 100 100 100 100 100 100 100
100 14 0 0 0 0 0 66 100 100 100 100 48 43 5 5 12 8 63 92 100 100 100 100 100 100 100 100 80 63 100 100 98 96 88 100 100 100 100 98 70 100 100 100 100
100 88 1 0 0 0 20 82 100 68 96 100 100 100 100 63 80 8 56 100 100 100 100 100 100 100 99 49 9 64 36 100 57 45 100 100 100 100 93 100 88 90 100 100 100
100 100 0 0 0 0 1 5 8 14 95 100 99 100 100 100 100 86 81 100 100 100 100 100 100 100 100 96 95 65 8 100 100 87 97 100 100 100 100 85 100 97 76 88 100
100 100 6 0 0 2 2 5 5 39 66 100 100 100 100 99 74 100 100 100 100 100 100 100 100 100 100 100 100 64 84 88 18 90 73 100 100 100 100 96 100 100 99 76 100
100 100 89 4 62 86 89 36 53 24 73 100 100 100 100 100 94 100 100 100 100 100 100 100 100 100 100 87 16 78 46 82 94 100 100 100 85 100 100 100 100 100 48 100 100
100 100 100 0 2 74 92 21 12 33 62 89 100 100 100 100 100 100 100 70 72 100 100 100 100 90 98 39 50 83 100 94 100 97 25 100 84 100 100 100 100 100 99 94 100
100 59 100 10 5 30 60 40 16 81 48 62 72 100 100 100 100 100 100 99 99 100 100 100 100 100 93 46 95 100 96 32 14 46 17 10 100 100 100 100 100 100 100 100 100
82 75 100 96 85 0 40 33 7 89 54 54 7 91 100 26 65 94 100 100 100 5 36 91 96 100 100 95 100 100 98 70 89 12 99 10 0 97 100 100 100 100 100 100 100
81 91 100 100 52 4 0 28 34 3 7 65 64 84 88 46 88 80 94 76 69 60 99 89 94 100 100 100 100 100 98 100 100 96 98 11 2 0 100 100 100 100 100 100 100
25 57 38 100 90 100 20 15 65 22 3 5 40 81 67 33 94 100 95 80 100 98 97 98 73 100 100 100 100 100 100 100 100 98 92 88 5 5 92 100 100 100 100 100 100
14 100 3 100 40 100 63 2 0 2 4 5 5 7 28 12 33 89 96 100 100 54 95 78 11 100 85 100 76 99 92 86 97 100 100 94 99 83 100 100 100 100 100 100 100
45 68 2 16 100 21 5 4 1 0 0 2 5 3 5 27 5 10 100 92 100 100 100 100 100 100 100 100 100 99 78 100 100 100 100 100 95 100 100 100 100 100 100 100 100
10 21 4 5 99 54 5 21 70 5 0 0 1 0 5 7 6 4 6 49 94 92 92 94 100 100 94 55 100 52 96 99 100 100 86 92 100 100 100 100 100 100 100 100 100
91 24 8 26 100 86 5 5 19 90 16 1 0 1 5 69 8 81 13 5 12 6 64 97 38 100 99 48 98 50 76 82 100 100 100 100 100 100 99 99 100 100 100 100 100
4 8 5 5 89 100 59 8 100 82 98 30 6 5 5 54 86 52 5 11 70 100 100 6 25 100 71 100 100 100 43 100 100 88 100 100 100 100 100 100 100 100 28 66 100
5 5 5 7 4 76 49 84 100 100 94 100 29 5 44 5 34 97 33 4 5 5 5 79 90 52 32 28 34 46 73 97 10 29 87 71 100 100 100 100 100 100 100 100 100

GFSSW_prec_cloud_072.txt.gz
Cloud_Cover
100 100 78 4 15 5 99 90 98 99 100 71 92 41 100 100 100 98 98 100 100 100 100 40 2 24 45 5 89 100 100 100 100 100 99 8 17 100 100 98 5 0 15 5 5
60 30 4 3 2 3 89 10 99 99 95 100 30 47 100 100 96 43 100 100 100 100 100 99 2 37 85 30 44 100 100 100 100 100 100 98 16 100 100 100 8 5 1 5 5
100 100 100 5 100 1 80 3 42 92 100 94 100 80 100 99 88 100 100 100 100 100 100 100 9 39 64 72 27 100 100 100 100 100 100 100 100 73 100 100 33 6 5 5 5
7 79 100 7 5 2 70 0 2 100 55 2 15 97 98 99 96 100 77 100 100 100 100 100 10 40 18 58 93 96 100 100 100 100 100 100 100 100 89 100 100 11 28 5 5
3 95 100 87 6 2 52 0 3 42 4 71 46 100 99 100 100 100 99 100 100 100 100 100 16 40 5 20 100 100 100 100 100 100 100 100 100 100 96 97 100 87 96 13 5
82 8 100 82 8 0 7 42 3 5 5 15 27 100 87 54 44 100 100 100 100 100 100 100 51 55 19 87 83 88 100 100 100 100 100 100 100 100 94 99 100 99 5 5 5
13 10 100 1 1 0 0 0 4 97 9 5 76 59 2 6 60 100 100 100 100 100 100 100 99 0 1 8 94 93 100 100 100 100 100 100 100 100 100 100 100 100 89 5 5
96 31 100 24 2 0 0 0 0 0 0 0 54 100 55 1 60 100 100 100 100 84 100 100 100 11 0 4 32 100 100 100 100 100 100 100 100 100 99 100 91 100 100 84 60
94 1 25 0 0 1 0 0 0 0 0 0 3 5 5 5 2 100 100 100 100 100 100 100 100 69 1 44 11 100 100 100 100 100 100 100 100 100 98 99 60 78 100 97 31
100 71 0 0 0 0 0 0 0 4 2 1 3 2 3 4 5 100 100 100 100 100 100 100 100 99 5 54 39 36 99 100 100 100 100 100 100 100 93 87 100 98 100 100 100
100 100 2 0 0 0 2 5 2 5 20 98 3 5 5 5 5 58 94 100 100 100 100 100 100 100 42 21 6 5 40 100 100 100 100 100 100 100 99 100 100 93 64 100 100
87 98 96 0 0 0 2 100 20 9 70 100 26 18 5 5 5 5 100 100 100 100 100 100 100 100 88 72 50 5 100 100 100 100 100 100 100 100 90 59 100 100 98 100 100
94 38 97 6 0 0 0 61 61 5 64 100 100 92 100 16 76 5 98 100 100 100 100 100 100 100 98 13 64 8 84 100 100 100 100 100 100 64 76 100 98 78 100 100 100
100 40 95 91 2 0 0 2 5 5 75 100 100 94 91 87 88 5 97 100 100 100 100 100 100 100 100 17 83 66 5 100 100 100 100 100 100 8 40 93 100 100 100 100 99
100 90 5 34 12 5 6 22 5 15 58 100 100 96 100 100 36 27 24 100 100 100 100 100 100 100 100 100 98 66 71 45 100 100 100 100 76 100 5 19 67 100 100 99 100
100 94 2 5 84 35 100 5 5 5 59 99 100 100 100 100 99 100 100 100 100 100 100 100 100 100 85 100 100 72 100 100 73 100 100 100 79 98 47 8 98 91 95 98 98
4 57 4 5 62 40 95 5 7 38 12 36 100 94 100 100 99 94 100 100 100 100 100 100 100 100 100 86 100 100 33 94 99 100 75 100 99 98 99 88 76 75 58 46 55
2 3 5 4 6 82 84 9 16 12 74 20 58 98 100 100 100 100 100 100 100 100 100 100 100 100 100 91 100 96 49 15 98 59 5 16 63 100 100 100 100 100 99 98 100
0 2 5 10 5 46 38 8 5 5 15 8 16 72 80 100 100 100 79 95 98 100 100 100 100 100 100 51 20 97 100 80 87 5 5 0 52 100 100 100 100 100 100 100 100
3 1 37 5 55 15 14 55 58 0 5 5 5 18 6 70 96 96 91 41 90 57 100 99 97 85 100 54 35 96 80 100 90 31 5 0 0 0 82 100 100 100 100 100 100
0 5 4 5 34 8 19 64 12 5 4 5 5 5 14 25 40 72 95 100 82 78 5 26 29 100 100 100 100 100 100 98 51 6 5 4 0 0 2 6 100 100 100 100 100
0 5 5 5 18 37 34 7 58 3 3 5 5 5 5 16 7 5 7 94 96 81 68 91 66 100 100 92 99 100 100 100 55 35 5 10 1 5 43 89 100 100 100 100 100
38 5 0 6 4 76 39 45 5 5 2 2 5 5 5 5 5 5 26 7 56 82 86 100 100 81 100 100 100 100 100 77 14 46 7 10 89 100 100 100 100 100 100 100 100
0 3 3 4 5 37 38 92 71 5 5 0 0 0 2 5 30 5 5 52 88 100 75 26 54 71 100 99 85 32 69 85 100 100 100 69 100 100 100 100 100 100 100 100 100
7 27 7 5 99 47 54 32 6 26 47 5 3 4 5 5 5 5 2 5 73 25 94 100 90 100 71 53 100 60 75 100 100 100 94 100 100 100 100 100 100 100 100 100 100
0 0 0 0 80 70 5 5 12 5 87 5 35 5 14 38 79 8 5 5 5 5 5 15 97 99 100 54 49 94 70 100 64 99 100 100 100 100 100 100 100 100 100 100 100
0 0 1 2 100 100 11 5 21 95 43 72 93 100 11 56 84 92 65 5 5 6 26 5 14 6 73 14 12 25 8 51 71 27 100 75 100 100 100 95 100 100 100 100 100

GFSSW_prec_cloud_075.txt.gz
Cloud_Cover
95 94 100 70 5 12 1 7 5 23 6 100 95 82 99 100 100 100 100 100 100 100 100 100 95 84 89 0 25 63 67 11 100 100 100 90 25 78 100 100 100 100 99 100 6
61 91 92 100 11 2 2 5 0 88 5 82 88 14 78 100 99 98 100 100 100 94 78 100 100 100 100 8 14 98 84 5 100 100 100 100 100 9 99 100 100 100 100 100 89
71 99 99 75 26 4 1 3 0 4 53 32 5 5 42 30 79 100 100 100 100 100 98 100 100 99 100 8 4 6 49 26 100 100 100 100 100 78 73 100 100 100 100 100 100
98 99 100 100 74 1 0 0 0 0 0 0 0 4 29 85 93 100 89 99 100 100 100 100 100 81 100 82 4 44 45 100 100 100 100 100 100 100 100 100 100 100 100 100 100
100 97 64 1 0 0 0 0 0 0 4 1 0 5 13 96 84 99 57 100 100 100 100 100 100 99 78 100 70 64 24 100 100 100 100 100 100 100 100 100 100 100 100 100 100
69 100 98 0 0 0 1 0 6 0 0 1 1 3 56 99 70 98 100 100 97 100 100 100 100 100 100 18 60 100 76 97 93 100 100 100 100 100 100 100 100 100 100 100 100
64 85 100 18 0 0 0 0 0 15 0 11 2 5 5 6 61 100 100 100 77 100 100 100 100 100 100 46 5 99 47 100 100 100 100 100 100 100 100 100 100 100 100 100 100
41 21 86 29 0 1 0 0 0 0 0 0 3 5 5 64 65 100 100 100 94 100 100 100 100 92 100 13 6 83 100 94 100 100 100 100 100 100 100 100 100 100 100 100 100
15 45 0 10 0 0 5 1 4 4 0 0 0 0 2 10 89 100 100 100 100 100 100 100 100 56 96 65 12 7 8 59 100 100 100 100 100 100 100 100 100 100 100 100 100
100 99 0 0 0 0 4 5 6 24 4 0 0 1 3 3 59 80 100 100 100 100 100 100 99 100 53 80 47 84 54 83 100 100 100 100 100 100 100 100 100 100 100 100 100
64 100 68 0 0 0 2 5 60 40 22 47 11 5 6 5 5 66 100 100 100 100 100 100 89 100 100 100 6 4 2 5 100 100 100 100 100 100 100 100 86 94 100 100 100
99 42 99 2 0 1 0 4 81 82 61 84 10 5 5 5 54 99 100 100 100 100 100 100 100 100 100 100 58 5 0 5 99 100 100 100 100 100 100 100 100 75 37 84 95
100 94 94 0 5 5 1 0 6 100 88 100 94 65 53 20 98 93 100 100 100 100 100 100 95 87 100 98 98 5 4 5 100 100 100 100 100 100 100 100 100 13 5 79 100
97 100 41 4 11 4 3 0 2 5 80 100 100 37 61 22 72 5 94 100 100 100 100 100 100 61 100 100 95 10 3 5 16 100 100 100 100 100 100 100 94 99 59 46 90
79 100 30 0 4 5 16 18 3 5 29 100 100 97 72 25 4 48 72 100 100 100 100 100 83 100 100 100 98 57 12 5 7 100 100 100 100 100 100 82 100 99 100 95 55
46 66 0 0 5 24 100 5 5 5 34 100 98 87 98 94 24 100 100 100 100 100 100 100 96 73 28 100 100 100 32 71 87 98 100 100 100 100 100 100 100 100 100 100 56
4 2 0 0 5 58 100 62 5 32 6 81 100 99 73 79 68 70 100 100 100 100 100 100 100 99 100 97 100 100 93 100 100 99 100 100 100 100 100 100 100 83 100 47 44
0 0 0 0 0 64 100 69 17 6 24 40 100 100 100 92 92 99 100 100 100 100 100 100 100 100 96 91 100 67 95 73 33 55 85 100 100 100 100 100 75 40 58 54 0
0 0 0 0 0 36 60 9 5 5 5 5 8 83 95 91 70 100 100 100 100 91 100 100 100 100 100 100 37 55 95 69 88 16 12 2 3 86 100 100 100 81 42 6 5
0 0 0 0 3 17 5 48 47 5 5 5 5 6 58 55 77 92 68 81 100 100 90 100 100 100 100 92 77 77 64 94 84 75 84 2 0 28 100 100 100 100 100 92 36
0 0 0 0 9 5 25 5 5 5 5 5 5 5 16 72 94 44 66 22 16 100 100 100 16 96 87 100 100 100 100 86 68 5 20 5 0 0 100 100 100 100 100 100 100
0 0 0 0 3 24 6 5 5 5 5 5 5 5 5 82 84 79 31 100 100 91 80 100 100 100 100 99 85 98 82 100 85 64 61 9 1 5 1 1 4 97 100 100 99
0 4 0 2 0 0 4 26 58 5 4 3 3 5 5 60 14 5 5 14 93 58 82 43 87 99 100 100 100 100 100 99 99 90 62 83 7 100 28 5 5 5 99 97 100
1 5 2 0 0 0 1 80 5 4 5 4 1 2 5 5 5 5 4 5 33 100 90 100 100 100 100 97 88 100 100 93 100 100 33 12 58 96 100 96 72 97 75 33 100
3 5 0 4 0 0 3 40 22 5 5 5 5 1 19 5 6 5 5 5 5 71 100 99 100 100 81 89 60 100 100 82 100 100 90 100 85 100 100 100 100 100 100 94 100
7 4 0 1 0 0 2 5 7 5 5 5 5 5 6 98 32 62 98 6 5 5 5 70 99 5 100 57 5 13 72 68 100 100 100 100 100 100 100 100 100 100 100 100 100
23 5 4 0 4 1 1 2 4 7 3 67 12 67 8 70 99 100 92 100 96 10 5 18 52 13 24 68 100 62 58 69 100 86 100 100 100 100 100 100 100 99 100 100 100

GFSSW_prec_cloud_078.txt.gz
Cloud_Cover
95 36 2 100 100 2 0 0 2 0 4 5 85 100 93 94 100 100 100 100 100 100 100 90 100 100 100 38 6 23 73 5 5 75 100 100 100 92 66 64 99 100 100 100 100
99 73 88 100 100 2 0 0 0 0 0 0 19 100 100 90 100 100 100 100 100 100 95 100 100 100 56 34 66 15 30 5 5 20 100 100 100 100 99 78 98 100 100 100 100
98 71 100 0 26 0 0 0 0 1 0 1 0 3 96 100 100 100 100 95 100 100 100 80 100 100 100 15 42 57 9 5 5 5 100 100 100 51 100 90 41 100 100 100 100
49 100 100 68 45 0 0 0 0 0 0 0 0 17 0 97 100 100 100 100 100 100 100 100 100 100 100 94 25 46 42 5 5 5 13 100 100 82 90 100 91 100 100 100 100
75 100 99 98 5 0 0 0 0 0 0 0 0 0 5 6 93 100 93 99 91 100 82 88 100 100 82 100 90 100 41 49 50 23 5 98 100 73 98 100 100 100 100 100 100
100 76 100 78 2 0 0 0 0 0 0 0 0 0 4 22 36 97 100 100 100 100 100 74 99 100 82 99 100 28 100 92 100 100 97 26 100 100 100 100 100 100 100 100 100
100 48 100 100 37 0 0 3 0 2 0 0 0 0 4 5 100 87 40 100 100 100 100 100 100 100 12 80 100 86 16 5 41 28 100 99 100 100 100 100 100 100 100 100 100
100 96 18 0 0 0 4 5 3 5 2 0 0 0 5 28 99 83 86 100 100 100 100 100 100 67 100 79 100 100 99 64 9 61 100 100 98 100 100 100 100 100 100 100 100
100 100 38 6 0 0 2 5 5 0 2 0 0 0 5 85 96 100 100 100 100 100 100 100 100 100 99 100 99 98 83 93 54 85 100 100 99 100 100 99 100 100 100 100 100
100 100 61 8 0 0 0 5 5 4 5 0 0 0 5 14 95 67 100 100 100 100 91 100 94 100 80 81 89 93 100 100 45 65 100 100 100 100 100 100 100 100 100 100 100
100 100 100 13 8 0 0 4 5 5 5 5 6 5 5 16 5 69 100 100 100 80 27 100 99 95 89 100 100 100 94 6 5 81 81 100 100 100 100 100 100 93 100 100 100
100 100 100 18 2 0 0 0 5 5 23 73 5 5 5 6 4 76 99 99 62 45 100 100 100 98 100 100 100 100 100 2 5 38 96 100 100 100 100 100 100 100 99 100 100
100 100 100 80 1 0 4 0 5 21 49 100 22 5 17 24 1 99 93 89 85 97 100 100 99 100 90 100 100 100 99 6 25 94 100 96 55 100 100 100 100 100 96 59 100
100 100 100 6 0 0 0 5 2 5 58 100 73 16 5 6 2 96 54 72 100 100 100 100 100 100 81 100 100 100 100 4 56 100 99 100 82 100 100 100 100 100 55 99 100
97 100 98 0 0 1 12 98 0 5 42 100 100 83 18 4 7 99 35 75 100 100 100 100 100 100 100 100 100 100 99 9 5 83 42 100 100 100 100 100 100 100 100 100 100
27 100 27 24 0 30 100 9 4 5 58 99 62 89 32 6 17 100 15 40 100 100 100 100 100 82 100 97 99 100 99 11 5 5 73 5 100 100 100 100 100 100 100 100 100
13 85 12 0 5 94 100 30 5 18 9 79 100 54 58 5 17 100 73 100 100 96 100 100 95 95 80 99 62 99 100 76 60 99 79 5 76 100 100 100 100 100 100 100 100
6 28 6 1 3 100 98 37 19 9 49 100 100 85 77 13 45 64 100 100 100 58 100 98 100 100 100 100 100 100 100 70 13 44 5 2 22 100 100 100 100 100 100 100 100
5 41 5 0 15 100 48 5 3 5 5 8 13 100 61 99 78 100 100 100 100 100 98 100 81 100 100 100 72 68 82 100 100 99 72 3 1 100 100 100 100 100 100 100 100
15 24 9 10 39 58 2 50 14 5 4 4 5 6 84 56 67 100 82 100 100 88 100 100 93 100 92 100 47 59 31 42 76 92 55 6 85 99 100 100 100 100 100 100 100
72 28 5 20 51 3 0 5 0 0 2 5 5 5 5 69 33 56 7 22 100 100 100 100 100 100 100 99 100 100 100 73 58 90 38 7 9 80 42 100 100 100 100 100 100
35 59 5 6 0 27 3 5 2 0 3 6 5 5 5 60 98 43 48 5 5 95 100 100 100 100 100 100 95 100 95 65 92 82 72 36 5 4 2 0 58 100 100 100 100
98 50 5 5 0 2 0 0 5 5 5 7 58 5 6 5 69 27 5 19 100 99 99 100 100 100 88 59 96 100 100 100 100 100 100 100 50 59 100 40 5 87 100 100 100
100 5 5 2 0 2 4 0 1 1 0 5 5 5 5 5 5 5 5 5 6 99 100 100 77 96 100 100 90 75 47 36 98 100 64 12 5 47 61 10 34 5 16 23 100
100 25 2 4 4 4 0 5 5 5 5 5 5 5 5 5 5 5 5 7 5 16 90 96 100 100 100 100 96 62 96 99 98 86 99 82 54 100 100 100 18 67 98 87 5
92 8 0 4 5 1 2 3 5 5 40 13 67 60 100 99 70 100 68 53 5 5 30 100 100 96 100 100 100 100 100 54 100 100 83 100 100 100 100 80 6 68 98 95 97
18 6 0 0 1 1 2 0 0 2 2 4 66 100 56 96 100 100 100 100 95 25 89 90 99 100 100 100 100 90 100 100 100 100 82 100 100 100 100 81 38 77 74 100 90

GFSSW_prec_cloud_081.txt.gz
Cloud_Cover
100 100 100 15 92 1 0 21 0 0 0 0 0 5 66 11 16 100 100 96 99 100 100 100 62 92 74 100 100 87 98 76 5 1 20 100 100 100 100 99 31 30 92 99 99
100 100 98 97 0 2 4 0 0 0 0 0 0 5 25 21 6 100 100 47 86 100 100 100 11 22 100 100 97 87 83 5 2 32 1 92 91 100 100 100 51 83 7 100 100
100 100 100 100 91 32 0 0 14 0 0 0 0 0 87 82 50 100 100 50 98 100 100 100 45 100 79 100 99 78 44 14 12 5 0 4 100 100 100 100 51 48 79 92 100
100 100 100 100 9 0 0 4 0 0 0 0 0 0 0 73 100 100 100 95 95 99 100 100 90 100 98 100 100 65 88 88 38 0 0 1 19 97 100 99 100 48 100 96 100
100 83 100 100 14 0 0 0 0 0 0 0 0 0 0 10 100 100 100 100 86 64 100 100 100 66 100 100 100 98 40 96 98 2 0 0 2 31 100 59 97 100 96 100 86
100 82 100 100 20 2 1 5 4 3 1 0 0 0 0 3 99 100 100 100 95 100 100 100 100 65 99 100 100 90 100 100 37 6 0 0 1 34 97 99 99 100 100 100 100
100 100 57 38 10 32 0 5 58 5 0 0 0 0 0 3 32 100 100 100 100 100 100 100 100 100 100 99 100 100 94 65 58 14 8 5 4 2 76 100 100 100 100 100 100
100 100 100 30 0 0 0 5 100 5 0 0 0 0 5 5 64 100 100 96 64 99 100 100 100 100 100 100 75 100 100 42 6 5 2 2 0 0 94 100 100 79 99 100 100
100 100 100 36 0 0 0 5 100 6 0 0 0 0 64 56 74 94 93 98 82 100 100 100 100 100 100 100 100 100 100 93 64 5 10 8 1 9 36 100 100 96 90 100 100
100 100 100 78 3 2 0 1 80 25 0 0 0 0 5 90 100 91 92 100 100 98 98 100 79 90 100 100 100 74 95 28 96 67 24 5 4 97 5 64 100 62 30 100 100
100 100 100 100 11 1 0 0 6 5 5 5 5 5 5 67 100 100 80 100 100 75 64 100 78 93 100 71 94 39 100 55 100 100 8 1 5 12 23 63 100 100 100 100 100
94 100 100 100 12 2 0 0 5 63 22 7 5 5 5 5 79 20 82 100 100 94 99 100 100 74 100 100 77 100 100 100 100 78 52 5 5 98 88 98 100 100 100 100 100
60 100 100 100 8 0 1 5 4 20 12 100 5 5 5 2 27 64 90 100 88 60 100 100 100 80 99 100 95 88 100 100 100 98 100 87 19 95 100 95 100 100 100 100 100
78 100 100 6 0 1 3 5 5 5 59 100 61 2 4 4 60 100 93 40 98 100 86 99 100 30 23 100 100 100 100 99 88 43 62 72 51 95 100 100 51 100 100 100 100
100 100 93 5 4 5 20 92 3 5 58 91 25 0 5 2 8 76 5 6 67 100 100 100 100 50 100 100 84 97 100 92 51 5 5 34 84 95 99 88 87 100 100 100 100
100 97 7 13 7 59 100 7 3 5 49 98 82 21 8 5 7 100 26 7 84 99 92 100 100 100 100 87 100 96 82 46 18 5 22 4 18 2 95 100 100 100 100 100 100
64 5 34 5 30 100 100 27 5 19 13 42 94 92 10 5 35 100 24 7 72 98 100 100 100 100 100 98 100 86 100 74 66 79 40 3 4 0 34 75 100 100 100 100 100
6 19 14 5 62 100 65 27 18 20 49 84 70 67 38 5 8 29 44 38 6 5 100 100 100 100 100 57 100 100 100 100 49 49 11 5 5 0 59 99 100 100 100 100 100
18 82 10 5 47 100 38 5 3 5 5 30 20 86 80 78 70 19 63 49 5 20 82 72 83 100 94 100 100 100 100 60 100 100 100 17 2 1 36 100 100 100 100 100 100
14 100 55 7 87 66 3 44 12 5 5 5 5 12 79 57 97 100 25 52 46 56 5 26 67 100 100 100 100 80 99 69 86 92 99 78 43 31 4 100 100 100 100 100 100
100 65 20 32 89 5 0 5 0 0 0 4 5 5 12 79 88 81 6 4 100 100 100 100 55 98 100 99 100 100 100 100 100 96 6 20 75 100 98 75 100 100 100 100 100
100 97 31 49 5 27 2 0 2 0 0 3 3 5 5 47 100 92 45 95 88 100 100 100 96 100 94 87 100 100 89 98 100 59 25 5 64 100 21 15 13 67 100 100 100
100 96 55 12 5 5 1 2 0 4 5 5 5 3 5 5 84 68 50 100 100 96 100 100 100 100 100 69 93 87 69 99 92 96 58 88 87 100 100 100 99 3 10 100 100
100 100 41 5 5 5 3 5 5 5 0 5 5 5 5 5 86 56 6 31 100 100 100 86 85 100 100 100 99 94 56 60 100 93 79 9 97 100 100 100 82 5 5 57 100
100 83 78 5 5 5 4 3 11 11 2 5 20 82 68 98 74 22 94 98 89 95 100 100 100 99 100 100 100 86 36 15 78 89 78 93 44 100 100 100 11 5 4 1 15
100 100 25 5 5 4 3 3 98 5 4 1 73 5 62 97 47 100 91 91 100 85 100 100 100 100 100 99 92 98 72 92 65 17 7 27 91 100 100 88 20 4 5 5 1
100 100 94 5 5 2 0 1 4 5 0 0 5 14 5 3 89 100 100 100 100 100 100 99 100 100 100 100 98 96 100 99 12 98 68 85 100 100 100 100 100 97 5 0 0

GFSSW_prec_cloud_084.txt.gz
Cloud_Cover
21 42 99 95 1 0 0 0 0 0 0 0 0 0 1 38 6 76 100 100 72 31 100 100 82 96 100 100 100 97 80 48 60 21 4 41 100 100 100 100 100 57 5 64 43
100 100 47 76 99 2 0 0 2 0 0 0 0 0 1 36 45 77 100 100 100 100 66 100 100 40 92 100 100 100 96 22 91 17 22 5 85 100 100 100 100 79 18 70 100
100 100 100 95 0 0 0 0 2 3 0 0 0 0 0 98 100 100 100 100 100 91 100 100 92 59 14 84 64 100 36 100 99 97 5 5 5 100 100 100 100 100 44 82 100
100 100 100 97 10 0 0 3 5 5 7 0 0 0 0 79 98 100 100 100 76 100 100 94 100 93 6 92 95 100 100 100 100 100 65 5 12 5 93 100 100 100 100 29 100
100 99 79 100 76 0 0 5 5 62 20 0 0 0 0 33 90 100 100 100 97 75 100 100 98 30 100 21 73 99 100 97 100 100 99 4 24 81 10 82 100 100 99 58 93
76 100 45 100 20 24 0 5 5 81 32 0 0 0 0 9 59 100 100 100 66 66 68 100 93 75 100 100 12 83 71 100 100 100 58 85 5 5 5 53 99 100 98 100 30
100 100 100 23 24 0 0 5 59 87 2 0 0 0 1 6 41 79 100 100 99 81 98 100 100 98 100 100 38 100 94 67 100 100 93 5 7 0 4 37 49 100 100 100 100
100 100 100 100 10 0 0 2 42 97 0 0 0 0 26 5 13 93 100 58 90 100 100 100 99 100 100 100 65 94 100 70 96 100 100 7 1 4 0 2 5 60 100 100 100
100 100 100 100 53 2 0 0 5 20 0 0 0 0 17 5 90 100 100 33 85 95 100 100 100 100 95 100 100 100 35 100 45 100 99 6 2 26 0 0 3 9 100 100 100
100 100 100 100 20 12 0 0 5 5 0 0 0 13 50 36 82 100 79 80 65 85 100 100 100 99 100 100 21 56 100 100 100 100 100 6 4 0 0 0 0 5 64 100 100
42 91 100 100 35 13 0 0 5 5 0 4 5 4 5 41 50 61 100 7 82 100 96 100 100 83 100 100 70 99 100 99 99 100 22 5 5 4 0 0 0 40 78 100 100
45 100 100 100 10 1 0 0 5 5 10 5 5 5 5 5 35 49 7 15 91 100 100 100 100 89 100 100 100 99 96 100 100 100 100 26 5 0 0 0 0 1 76 45 100
100 100 100 100 0 0 2 3 4 5 37 44 4 3 0 59 100 47 36 70 31 100 100 100 100 13 33 100 100 100 100 100 100 99 95 7 5 4 1 0 0 1 5 85 100
100 100 97 6 0 0 0 3 3 5 80 25 32 11 1 23 46 76 84 11 100 99 56 77 80 35 5 96 77 100 100 100 100 40 66 5 14 5 2 0 0 90 70 40 90
100 100 34 5 5 4 2 2 1 5 52 49 18 5 2 3 15 58 38 19 11 31 72 97 68 39 100 100 83 62 96 98 80 74 68 32 86 5 0 0 6 39 98 62 72
100 96 9 5 5 41 0 0 5 55 45 60 18 32 24 5 7 5 37 10 70 30 75 100 99 92 22 27 92 12 25 17 5 66 83 56 74 5 5 0 4 82 62 69 100
100 97 52 22 6 91 42 22 68 6 6 34 73 70 86 15 73 21 49 17 59 47 100 100 93 42 12 7 9 14 75 99 92 93 25 8 5 5 5 0 4 88 97 5 100
100 100 24 5 66 92 7 8 38 8 6 5 57 54 70 7 52 64 21 11 98 94 100 100 100 83 6 40 74 100 93 100 98 93 56 69 2 92 3 0 0 38 19 26 94
42 100 68 5 63 84 6 91 4 5 5 5 6 96 89 84 88 54 6 31 41 100 100 100 96 100 100 100 100 87 86 20 100 86 44 5 21 100 0 0 0 3 4 3 9
68 100 84 14 100 40 23 17 3 5 5 4 5 6 60 96 98 100 76 29 12 73 82 100 95 100 100 100 75 88 100 100 86 49 50 34 22 100 22 0 0 0 29 98 58
100 100 42 29 84 53 90 0 0 1 2 3 5 5 5 63 94 55 39 27 55 99 100 100 100 100 100 100 100 100 100 93 100 96 100 100 98 100 100 45 0 0 0 87 100
100 100 55 79 33 92 5 5 5 1 0 4 2 5 5 5 100 100 38 5 19 100 100 100 100 100 100 100 98 100 100 100 100 100 100 99 100 100 96 77 22 0 5 22 100
100 100 91 49 53 80 5 5 5 2 5 5 2 3 5 5 33 54 87 87 83 100 100 100 100 100 100 84 96 100 100 100 100 100 100 70 80 100 100 92 92 9 0 35 100
100 64 91 36 8 29 5 5 5 0 3 5 3 5 5 7 12 74 68 55 89 100 100 100 100 100 100 100 100 77 100 100 97 83 100 100 100 100 100 100 94 5 4 4 52
100 98 100 100 81 9 12 5 2 0 1 5 4 4 5 5 9 5 77 48 98 97 100 100 100 100 100 100 100 100 100 92 80 62 83 100 100 100 100 100 7 8 5 5 5
48 74 100 100 72 15 23 14 5 4 0 5 4 4 0 62 43 100 100 92 74 89 100 100 100 100 100 100 100 100 88 22 5 86 22 60 100 100 100 100 83 11 5 0 3
46 99 100 100 41 46 79 5 0 0 0 0 0 4 0 4 5 15 86 100 100 100 100 100 100 100 100 100 100 99 100 100 82 41 26 19 96 97 99 99 52 8 5 12 5

GFSSW_prec_cloud_087.txt.gz
Cloud_Cover
100 94 96 97 98 0 0 2 5 5 5 0 0 0 0 0 99 100 55 97 60 18 100 90 96 53 100 100 100 100 90 96 100 100 70 79 100 100 100 100 100 99 44 100 100
100 65 34 100 64 0 25 6 4 5 5 0 0 0 0 3 84 100 37 100 48 71 100 100 99 86 100 100 100 100 64 67 100 100 100 35 98 100 100 100 100 100 89 100 100
100 99 98 98 87 0 0 6 21 50 9 0 0 0 0 31 94 100 63 100 93 63 100 100 100 85 100 100 100 100 100 100 100 94 100 97 32 100 100 100 100 100 100 100 100
100 67 6 100 93 0 0 0 7 97 3 0 0 0 0 23 100 100 100 100 100 88 93 100 82 94 82 100 100 100 100 100 100 100 97 100 26 96 66 98 100 100 100 100 100
100 93 73 5 99 0 0 0 6 5 0 0 0 0 0 96 95 100 100 100 100 100 94 55 87 100 7 100 100 100 100 100 100 82 100 100 28 8 34 73 100 100 100 93 81
100 87 96 31 10 12 0 0 5 5 0 0 0 0 21 88 98 100 100 100 99 100 76 45 100 98 59 89 100 100 100 100 100 93 100 100 88 5 5 0 75 100 100 100 98
100 100 93 97 7 3 0 4 5 0 0 0 0 0 76 27 91 100 98 100 40 73 54 99 96 70 99 89 94 100 94 100 100 100 100 100 96 6 14 0 0 72 100 100 100
44 100 94 95 93 1 0 0 4 0 0 0 0 2 29 5 30 100 100 90 87 29 62 45 100 94 96 82 14 64 80 100 100 100 72 93 79 100 11 2 0 0 81 100 100
100 98 93 96 100 4 0 0 1 0 0 0 2 8 75 24 90 82 79 73 99 86 95 100 99 73 77 87 100 91 99 100 100 100 54 95 100 100 54 3 4 0 2 97 100
100 11 100 100 72 0 0 0 0 0 0 0 5 74 43 18 92 99 32 28 75 100 86 100 99 100 99 90 38 42 43 100 100 84 10 72 93 100 13 6 5 3 0 5 100
92 95 100 100 15 7 0 0 6 28 4 4 31 39 5 6 59 9 5 15 37 100 100 100 75 73 84 100 100 100 98 100 98 100 26 6 94 100 32 68 5 0 0 0 1
100 100 100 100 8 5 0 0 0 4 19 3 4 5 0 8 91 26 41 55 7 98 66 100 100 100 98 97 96 100 96 98 78 100 66 6 5 100 95 14 5 0 0 0 5
100 100 100 90 5 5 0 0 0 4 46 4 1 5 5 11 15 83 54 13 100 63 52 100 84 73 97 70 71 100 100 100 94 98 93 86 8 52 87 98 46 0 0 0 0
100 100 100 100 22 5 0 0 4 2 75 19 14 6 5 5 64 5 37 30 71 21 66 33 6 53 13 79 99 100 100 99 84 100 100 66 77 97 87 37 11 5 0 0 0
100 98 68 39 7 40 4 2 5 6 36 10 36 2 0 67 7 18 5 26 45 40 42 85 100 27 69 81 62 100 100 99 100 100 99 84 76 100 92 94 83 5 0 0 0
100 89 100 21 52 12 5 3 5 79 29 50 40 38 14 5 6 11 82 19 98 32 68 72 51 35 97 71 76 100 100 100 100 100 95 66 94 32 8 10 5 5 0 0 0
100 100 100 97 58 5 5 13 86 27 6 30 77 67 8 20 26 5 42 70 79 82 69 98 94 86 100 91 49 100 95 100 100 99 40 98 35 24 39 6 28 5 5 0 0
100 100 100 100 84 5 66 14 67 6 12 10 17 20 100 9 53 5 100 94 56 25 98 78 100 63 100 74 95 100 100 97 89 94 95 100 96 100 100 16 5 4 0 0 0
100 100 100 100 99 39 40 87 5 5 4 25 72 98 100 16 39 78 62 74 73 23 46 99 100 36 51 92 100 100 98 92 80 9 22 65 5 19 99 97 6 5 0 0 0
100 100 100 100 70 81 25 5 5 5 5 5 70 17 68 99 47 92 89 6 83 16 79 100 100 100 93 100 93 100 98 72 15 20 64 91 87 100 100 100 67 5 1 0 0
100 100 100 100 49 8 87 5 5 5 5 5 5 5 5 53 94 100 70 25 5 100 100 100 96 99 100 92 100 100 100 100 100 94 87 100 95 100 100 100 42 9 4 0 0
100 100 100 100 79 5 5 5 5 3 5 2 3 5 5 6 26 98 30 84 30 97 100 100 100 100 100 100 100 100 100 100 100 100 100 100 100 100 100 100 97 60 3 0 0
100 100 88 99 77 45 38 5 5 5 5 5 5 5 4 5 41 43 100 87 86 100 93 59 100 100 100 100 100 100 100 100 100 100 100 100 100 100 100 100 100 44 5 0 0
100 100 81 57 100 99 20 5 9 5 5 5 4 5 5 7 5 51 60 67 14 72 100 100 72 100 100 100 100 100 100 100 100 100 100 100 100 100 100 100 100 36 4 1 0
100 100 100 66 100 70 6 32 5 5 5 1 0 15 15 5 6 5 46 66 92 28 100 100 100 100 100 100 100 100 100 100 85 100 100 100 100 100 100 100 75 8 3 0 0
100 97 100 93 100 22 58 38 5 5 5 0 1 32 5 1 2 5 6 45 100 99 100 100 100 100 100 100 100 100 100 100 100 100 100 100 100 100 100 100 100 29 5 6 4
100 100 99 76 60 70 25 76 5 5 5 0 0 100 5 2 0 1 5 22 100 100 100 100 100 100 100 100 100 100 100 90 92 83 99 86 100 100 99 100 100 100 69 6 5

GFSSW_prec_cloud_090.txt.gz
Cloud_Cover
39 100 100 100 59 0 0 1 0 3 0 0 0 0 0 0 0 9 100 18 49 76 96 100 11 44 100 100 100 100 73 100 79 100 30 36 88 100 100 100 100 16 94 100 100
100 100 100 100 100 10 0 0 49 3 0 0 0 0 0 0 36 78 100 11 95 100 100 100 13 69 100 100 100 100 69 95 100 100 100 16 75 100 100 100 100 52 54 100 100
98 100 100 85 91 6 0 0 0 0 0 0 0 0 0 1 97 100 100 57 98 68 100 100 98 95 27 100 100 100 56 100 100 100 100 34 65 100 100 100 100 100 98 100 100
79 100 100 14 82 10 0 0 0 0 0 0 0 0 2 10 87 98 100 100 77 57 100 100 86 100 12 100 100 100 100 100 100 100 100 70 100 23 100 100 100 100 99 100 100
99 100 72 100 5 14 0 10 0 0 0 0 0 0 5 99 69 100 63 87 57 96 89 100 100 100 65 100 100 100 100 100 100 100 100 100 100 93 10 100 100 100 100 98 100
100 100 100 100 5 4 3 0 0 0 0 0 0 0 67 10 86 97 94 100 99 95 100 100 100 100 57 100 100 100 100 100 100 96 100 100 100 100 2 63 100 100 100 100 100
100 100 100 96 100 12 50 1 0 0 0 0 0 3 5 6 91 80 97 100 85 98 97 100 100 100 29 81 100 100 100 100 100 100 99 100 100 33 11 5 93 100 100 100 100
100 100 100 96 99 5 3 0 0 0 0 0 0 5 5 6 14 92 82 99 72 77 100 96 78 34 98 9 100 100 100 100 100 100 100 100 68 5 100 54 23 64 100 100 100
100 100 100 100 100 8 3 0 0 0 0 0 3 60 15 30 21 5 99 85 80 91 27 5 5 12 9 79 100 100 100 95 100 100 100 100 100 5 8 11 69 5 12 99 100
100 100 100 100 100 17 3 0 0 0 0 3 57 27 4 4 5 10 5 99 65 5 5 5 5 6 42 83 95 100 100 100 100 100 100 100 100 98 90 11 84 5 4 2 98
100 100 100 100 67 36 5 0 3 2 0 1 3 7 4 7 11 5 5 100 5 5 24 5 63 9 5 11 99 100 100 100 100 100 100 99 99 38 66 7 62 81 5 0 0
100 100 100 100 12 74 5 0 0 0 11 5 5 2 5 18 81 4 5 77 68 57 56 98 61 35 100 98 99 59 100 93 100 100 100 86 34 35 30 79 98 100 44 5 5
100 100 100 100 35 67 4 1 0 0 5 2 0 2 5 6 6 5 0 24 80 87 100 69 83 17 11 72 91 5 61 100 66 100 96 99 100 50 4 2 6 62 100 22 5
100 100 100 100 75 94 5 5 0 0 55 4 3 22 4 5 4 5 0 10 25 69 97 28 72 8 48 86 97 84 100 28 56 10 7 10 9 2 58 0 0 33 100 100 48
100 100 100 100 100 100 9 5 0 4 36 3 53 0 3 27 11 13 0 2 5 10 18 61 7 76 92 68 56 100 99 100 93 67 73 60 77 5 2 2 0 2 7 74 70
100 100 100 100 100 80 19 5 4 74 5 44 36 9 51 4 8 5 7 6 8 34 7 59 8 5 42 99 70 83 93 100 90 100 35 27 51 0 1 3 1 0 21 97 96
100 100 100 100 100 82 30 5 80 36 3 4 45 73 5 12 18 5 40 75 76 65 72 22 5 5 16 25 79 32 100 100 69 67 12 81 7 0 73 2 5 4 0 4 33
100 100 100 100 100 94 7 35 25 3 4 3 6 44 98 40 84 5 47 100 8 28 55 5 82 5 5 14 65 80 73 100 100 55 64 91 10 94 100 76 6 65 18 10 5
100 100 100 100 100 54 36 84 5 4 8 6 79 70 7 17 6 99 95 6 88 5 77 38 35 5 93 100 83 100 78 100 100 100 100 100 100 100 100 100 95 94 100 100 100
100 100 100 100 100 44 39 74 5 5 5 1 8 23 36 81 48 80 82 14 10 87 74 89 94 24 92 33 97 100 100 100 98 100 43 100 100 100 100 100 100 50 98 94 31
100 100 100 100 100 97 51 94 5 5 5 3 4 4 5 6 22 83 28 15 98 88 91 97 100 90 100 53 100 100 100 100 100 100 70 34 80 99 100 100 100 100 28 23 10
100 100 100 100 100 100 98 71 5 5 5 1 3 5 4 3 26 58 74 2 26 100 70 97 100 100 100 100 100 100 100 100 100 100 81 62 4 60 12 100 100 100 66 9 5
100 100 100 100 100 99 100 75 6 18 5 4 4 2 5 7 16 0 94 83 59 45 100 85 100 100 100 100 100 92 100 100 100 100 30 88 35 100 85 100 100 100 100 86 88
100 100 100 100 100 100 50 97 95 12 5 0 0 2 4 5 6 28 56 100 50 5 59 100 100 100 100 100 100 100 100 100 100 100 100 100 100 100 100 100 100 95 100 94 12
100 100 100 100 100 96 100 100 46 26 5 4 0 2 5 5 95 5 16 12 43 7 49 100 100 99 100 100 100 100 100 100 100 100 94 100 100 100 100 100 100 100 100 14 100
100 100 100 100 100 79 99 100 5 5 5 5 2 0 0 0 32 15 0 0 5 18 100 100 100 100 100 100 100 100 100 100 100 100 100 100 100 100 100 100 100 100 99 87 100
100 100 100 81 99 92 100 72 5 5 4 5 0 0 3 2 5 2 1 0 5 34 100 99 85 100 100 100 100 100 100 100 100 100 100 100 100 100 100 100 100 100 100 100 100

GFSSW_prec_cloud_093.txt.gz
Cloud_Cover
100 88 100 100 100 100 48 5 0 0 0 3 2 0 0 0 2 8 100 98 96 100 100 97 99 100 63 100 100 100 100 97 100 100 38 80 100 100 100 100 100 81 100 100 100
100 100 100 100 100 81 5 5 0 0 0 0 0 0 0 0 93 57 54 100 68 100 100 100 100 98 48 100 100 100 100 100 100 100 98 6 100 100 100 100 100 100 100 100 100
100 96 96 100 100 100 52 5 0 0 0 0 0 0 4 4 52 100 69 66 100 100 100 100 84 71 27 100 100 100 100 100 100 100 100 13 8 100 100 100 100 96 100 100 84
100 100 100 100 100 100 51 5 63 0 0 0 0 1 5 5 52 9 5 5 87 100 100 100 100 26 19 100 100 100 100 100 100 100 100 71 63 20 100 100 100 100 98 100 100
100 100 100 100 100 100 53 5 45 0 0 0 0 5 5 4 9 20 86 5 26 88 100 100 89 68 14 100 100 100 100 100 100 100 100 73 85 10 51 100 100 98 99 100 100
100 100 100 100 100 100 62 94 26 0 0 0 0 5 3 2 93 99 100 99 100 100 100 100 100 84 14 28 100 100 100 100 100 100 100 100 82 39 5 97 100 100 100 100 100
100 100 100 100 100 100 88 5 0 0 0 0 0 0 4 5 78 100 96 75 100 100 100 100 100 79 11 19 100 100 100 100 100 100 100 100 100 53 15 67 93 100 100 100 100
100 100 100 100 100 100 100 5 0 0 0 0 0 5 5 5 56 100 90 20 100 100 100 100 100 100 87 19 96 100 100 100 100 100 100 100 100 100 62 26 31 74 100 100 100
100 100 100 100 100 100 100 5 0 0 0 0 4 5 5 5 9 16 50 9 6 43 99 25 96 70 74 82 87 100 100 100 100 100 100 100 100 94 100 98 5 5 81 100 100
100 100 100 100 100 100 100 45 0 0 0 0 4 7 0 5 5 47 79 3 5 5 57 24 47 69 28 16 36 100 100 100 100 100 100 100 100 100 100 21 5 5 5 62 100
100 100 100 100 100 100 100 68 2 0 0 0 3 4 5 4 5 5 5 5 2 2 0 4 5 5 5 100 79 100 100 100 100 100 100 100 100 100 87 5 4 5 5 26 50
100 100 100 100 98 100 100 67 1 0 0 0 0 4 5 48 5 4 33 4 2 15 0 1 1 4 5 5 28 100 100 100 100 100 100 100 100 100 100 8 4 11 5 4 90
100 100 100 100 97 100 100 82 1 0 0 1 0 0 4 3 2 4 2 5 5 5 63 5 17 5 5 5 5 100 100 100 100 100 100 100 80 100 96 59 72 3 39 29 54
100 100 100 100 100 100 100 50 3 0 4 3 4 1 0 4 0 0 0 3 5 5 17 5 11 44 5 5 17 92 100 99 100 93 100 82 63 8 99 23 99 86 4 4 2
100 100 100 100 100 100 100 30 3 5 2 2 2 0 0 3 4 1 2 5 4 5 5 12 5 5 5 7 96 80 68 100 86 100 91 100 91 10 5 10 18 0 5 4 4
100 100 100 100 100 100 100 15 5 5 1 2 4 3 38 5 13 2 0 1 5 5 5 6 7 5 8 66 50 36 92 60 100 100 78 94 56 74 3 4 50 4 0 5 10
100 100 100 100 100 100 100 42 14 6 5 3 3 5 5 4 7 51 3 5 5 35 69 5 5 5 5 11 55 99 100 99 99 100 74 52 21 5 88 5 5 5 4 0 4
100 100 100 100 100 100 100 17 22 5 6 0 3 2 0 5 5 100 14 98 95 73 98 15 5 5 5 3 80 93 100 100 96 44 78 100 63 94 100 23 2 5 6 5 0
100 100 100 100 100 100 100 78 6 35 7 0 4 5 4 5 5 86 84 4 44 98 100 47 12 21 46 99 39 100 90 98 79 100 86 10 19 7 5 23 2 0 0 5 0
100 100 100 100 100 100 100 100 48 9 5 2 1 0 2 4 12 74 17 3 7 51 80 10 55 80 100 100 53 84 100 100 98 100 100 100 100 57 14 7 23 4 10 62 4
100 100 100 100 100 100 100 100 66 56 5 5 0 0 1 0 5 5 37 3 1 44 89 71 76 93 95 30 22 100 100 100 100 100 100 97 99 100 82 5 77 100 100 100 93
98 100 100 100 100 100 97 92 45 84 5 5 0 0 0 0 0 0 4 8 52 5 97 99 100 100 100 100 100 100 100 100 100 100 90 96 100 100 100 99 100 100 100 100 86
100 100 100 100 100 100 88 100 24 100 8 5 2 5 2 5 5 0 6 94 90 19 51 87 100 99 100 100 100 100 100 100 100 97 6 98 100 100 100 100 100 100 100 100 91
100 100 100 100 100 100 100 100 49 100 12 5 2 5 0 2 1 11 51 64 5 5 84 98 100 100 100 100 100 100 100 100 100 100 94 7 82 84 47 75 71 100 64 5 67
100 100 100 100 100 89 100 73 88 100 25 5 1 0 3 5 0 0 5 0 6 6 21 42 99 100 100 100 100 100 100 100 100 100 91 97 100 100 98 99 27 73 88 3 5
100 100 100 100 98 94 100 40 100 100 62 5 5 2 0 0 0 0 5 0 0 3 100 100 99 100 100 99 93 100 100 100 100 100 100 100 100 100 100 100 91 97 39 5 5
100 100 100 100 74 96 100 28 25 64 67 6 5 0 0 0 0 0 0 0 2 5 5 30 76 84 100 100 100 100 100 100 100 100 100 97 100 100 100 100 100 100 100 94 27

GFSSW_prec_cloud_096.txt.gz
Cloud_Cover
100 100 100 100 100 100 43 5 5 5 5 26 0 0 0 0 0 5 62 100 100 100 100 79 100 54 100 100 100 100 100 100 60 99 65 6 100 100 100 100 100 100 100 100 100
100 100 100 100 100 97 51 5 5 5 5 0 0 0 0 0 1 5 5 100 92 100 100 100 100 82 100 100 100 100 100 100 100 100 44 4 100 100 100 100 100 100 100 100 99
100 100 100 100 100 100 36 92 5 16 5 0 0 0 0 0 1 5 5 100 100 100 100 100 100 100 100 100 100 100 100 100 100 100 100 60 85 100 100 100 100 100 100 100 100
100 100 100 100 100 100 100 99 6 74 5 0 0 0 0 0 14 16 71 8 28 100 100 100 96 84 100 100 100 100 100 100 100 100 100 100 5 90 100 100 100 100 100 100 100
100 100 100 100 100 96 100 73 6 100 9 0 0 0 0 4 65 100 100 32 99 100 100 100 81 73 100 100 100 100 100 100 100 100 100 80 94 78 100 100 100 100 100 100 100
100 100 100 100 100 97 100 10 66 100 37 0 0 0 3 11 100 100 100 39 61 80 100 100 98 100 100 100 100 100 100 100 100 100 100 46 81 80 100 100 100 100 100 100 100
100 100 100 100 100 98 100 24 100 100 7 0 0 0 4 18 100 100 100 74 98 100 100 75 92 39 78 96 100 100 100 100 100 100 100 94 28 86 51 100 100 100 100 100 99
100 100 100 100 100 100 100 61 100 91 3 0 0 0 0 66 100 97 64 48 96 100 100 100 100 71 18 100 100 100 100 100 100 100 100 100 81 79 10 77 100 100 100 100 100
100 100 100 100 100 100 100 91 100 12 2 0 0 0 1 6 94 16 5 20 77 63 88 100 53 33 21 93 100 100 100 100 100 100 100 100 100 73 81 5 86 100 100 100 100
100 100 100 100 100 100 100 100 99 5 1 0 0 0 0 3 77 36 5 5 48 5 36 7 7 83 55 9 100 100 100 100 100 100 100 100 100 100 69 65 21 82 100 100 100
100 100 100 100 100 100 100 100 91 7 0 0 0 0 3 2 6 17 0 5 5 5 5 4 5 5 5 5 79 100 100 100 100 100 100 100 100 100 89 100 74 5 6 100 100
100 100 100 100 100 100 100 100 91 6 0 0 0 0 0 0 3 4 3 0 0 0 2 2 2 5 3 4 2 16 100 100 100 100 100 100 100 100 100 89 100 32 5 4 70
100 100 100 100 100 100 100 100 82 6 2 0 0 0 0 0 2 4 1 1 5 5 0 0 3 5 4 3 5 6 100 99 97 100 100 98 100 100 98 100 39 8 5 61 6
100 100 100 100 100 100 100 97 36 5 5 0 0 0 0 0 0 0 5 2 5 5 5 4 4 5 5 23 69 46 95 100 100 100 76 95 100 100 100 100 100 84 5 5 5
100 100 100 100 100 100 100 100 45 4 5 2 2 0 0 0 0 0 4 5 3 5 5 6 5 5 5 5 5 5 67 100 100 100 85 90 75 100 100 7 76 100 45 1 4
100 100 100 100 100 100 100 100 27 4 5 5 3 0 0 0 0 0 0 0 3 5 5 5 5 5 5 26 9 20 7 83 100 100 100 100 94 100 40 79 85 38 100 67 6
100 100 100 100 100 100 100 100 47 5 5 14 2 2 5 2 0 0 1 0 0 5 5 12 23 5 5 23 92 64 100 85 100 100 74 100 100 100 95 78 89 100 100 95 3
100 100 100 100 100 100 100 100 67 5 5 29 0 1 4 1 2 5 4 1 5 75 34 56 29 5 5 5 20 7 100 97 57 100 100 100 60 100 100 90 19 22 85 100 18
100 100 100 100 100 100 100 95 76 6 5 25 2 3 0 3 4 8 5 4 5 7 45 32 12 5 10 7 5 7 24 64 100 100 100 100 100 100 100 100 100 99 58 40 18
100 100 100 100 100 100 100 74 73 30 9 19 0 0 0 0 3 10 5 0 0 5 6 63 96 22 100 100 74 31 92 100 100 100 81 100 100 100 100 100 72 45 10 25 21
100 100 100 100 100 100 100 52 61 61 22 66 0 0 2 1 0 5 61 16 91 28 89 60 91 35 86 55 81 100 100 100 100 100 42 5 38 100 100 100 100 100 100 100 94
100 100 100 100 100 100 100 77 56 94 38 12 2 0 0 0 0 4 10 5 8 68 72 32 92 99 20 87 100 100 100 100 100 100 93 96 69 100 100 100 100 100 100 100 100
100 100 100 100 100 100 100 65 69 92 25 13 5 4 0 2 0 0 0 3 89 55 37 76 100 100 94 100 96 100 100 77 40 100 100 100 99 100 100 100 100 100 100 94 83
100 100 100 100 100 100 100 100 97 62 35 8 5 5 4 1 3 2 5 5 5 5 5 22 90 96 100 100 100 100 100 100 100 95 100 100 100 100 100 100 100 100 100 98 5
100 100 100 100 100 100 100 92 85 98 93 15 5 5 5 0 0 0 0 0 1 0 27 71 84 91 60 100 100 100 100 100 100 91 67 95 100 100 100 100 100 100 100 100 94
100 100 100 100 100 100 100 100 100 38 25 10 5 5 5 2 0 0 0 0 0 2 10 78 62 53 99 94 96 100 100 100 100 100 99 65 32 100 100 70 21 99 100 33 8
100 100 100 100 100 100 100 100 96 80 95 82 10 5 5 0 0 0 0 0 5 44 5 20 96 76 7 100 99 100 100 100 100 100 99 93 100 100 100 97 100 73 5 5 5

GFSSW_prec_cloud_102.txt.gz
Cloud_Cover
100 100 100 100 100 100 100 98 100 100 100 99 7 5 5 1 0 0 0 25 61 100 100 92 77 11 56 60 24 100 100 100 100 100 100 45 100 5 100 64 100 100 100 100 100
92 100 100 100 100 100 100 100 100 100 100 100 53 6 5 2 0 1 1 47 28 45 100 100 97 62 77 71 39 100 100 100 100 100 100 100 100 2 100 71 100 100 100 100 100
62 5 99 100 100 100 100 100 100 100 100 90 51 99 5 0 0 4 66 100 49 30 100 100 82 62 16 44 56 89 100 100 100 100 100 100 100 100 100 66 100 100 100 100 100
72 100 100 100 100 100 100 100 100 100 100 99 99 100 6 3 2 5 5 46 9 5 99 84 57 31 63 31 39 100 100 100 100 100 100 100 100 81 92 100 100 100 100 100 100
99 98 94 100 100 100 100 100 100 100 100 100 99 98 7 0 4 9 4 5 98 71 92 55 93 43 66 96 100 100 100 100 100 100 100 100 56 28 27 100 100 100 100 100 100
100 100 99 100 100 100 100 100 100 100 100 100 100 83 6 0 32 100 71 6 33 68 99 90 90 87 100 100 100 100 100 100 100 100 100 100 100 33 14 100 98 100 100 100 100
100 100 100 100 100 100 100 100 100 100 100 97 100 43 2 2 6 100 100 42 8 66 5 5 21 100 100 100 100 100 100 100 100 100 100 63 100 45 22 58 88 100 100 100 100
100 100 100 100 93 100 100 100 100 100 100 100 100 9 5 0 23 98 96 64 65 82 5 92 97 100 100 100 100 100 100 100 100 100 100 100 100 100 94 4 99 72 100 100 100
100 99 100 100 98 100 100 100 100 100 100 100 100 5 5 0 3 5 61 97 49 100 95 100 93 65 86 100 100 100 100 100 100 100 100 100 100 100 95 5 49 100 100 100 100
100 98 100 100 100 100 100 100 100 100 100 100 97 5 5 0 0 4 5 13 100 49 100 100 84 92 78 97 100 100 100 100 100 100 100 100 100 100 77 5 5 100 100 100 100
100 100 100 100 100 100 100 100 100 100 100 100 53 5 5 0 0 0 0 4 4 96 100 98 89 98 100 92 100 100 100 100 100 100 100 100 68 96 99 67 5 100 100 100 100
100 100 100 100 100 100 100 100 100 100 100 100 78 5 5 0 0 0 0 0 0 0 26 58 97 77 81 10 52 97 100 100 100 100 96 100 100 72 72 80 5 20 100 100 100
100 100 100 100 100 100 100 100 100 100 100 100 73 8 3 0 0 0 0 0 0 0 0 5 5 85 85 67 69 92 100 100 100 100 100 100 100 87 71 49 6 9 33 99 100
100 100 100 100 100 100 100 100 100 100 100 100 53 23 1 2 4 0 0 0 0 2 0 0 0 1 5 6 14 82 89 100 100 100 90 94 100 97 97 82 22 32 5 8 100
100 100 100 100 100 100 100 100 100 100 100 100 41 6 0 2 5 0 0 0 0 0 2 2 5 0 0 4 74 5 89 76 100 100 97 84 98 100 100 90 58 68 7 92 9
71 100 100 100 100 100 100 100 100 100 100 100 73 6 0 2 5 0 0 0 0 2 3 4 5 5 4 3 4 89 14 9 67 100 100 100 88 100 100 100 100 100 98 77 94
100 100 100 100 100 100 100 100 100 100 100 100 95 5 4 2 4 0 0 0 2 3 5 4 0 3 5 5 5 6 62 80 100 98 100 100 86 53 100 100 100 100 99 82 68
100 100 100 100 100 100 100 100 100 100 100 100 93 5 5 3 4 0 1 4 0 3 42 60 2 0 4 5 57 43 14 46 14 48 86 100 100 100 100 100 100 100 100 100 99
100 100 100 100 100 100 100 100 100 100 100 100 38 5 5 5 4 4 5 5 0 0 4 68 9 0 0 21 79 94 49 68 58 41 52 99 100 100 100 100 100 100 100 100 100
100 100 100 100 100 100 100 100 100 100 100 100 48 5 5 5 3 4 5 0 1 5 5 53 37 1 6 8 13 95 43 95 100 100 100 47 96 100 100 100 100 100 100 100 88
100 100 100 100 100 100 100 100 100 100 100 100 93 5 5 5 3 5 3 4 5 5 65 64 76 9 5 23 34 98 100 98 100 100 98 99 15 76 100 100 100 100 100 100 100
100 100 100 100 100 100 100 100 100 100 100 100 100 5 5 5 4 4 5 2 5 5 6 24 89 79 21 61 91 100 100 100 100 90 85 86 100 98 99 100 100 99 100 100 100
100 100 100 100 100 100 100 100 100 100 100 100 97 11 5 5 4 0 0 2 6 20 5 5 88 69 5 66 61 100 100 100 100 94 54 43 2 62 100 100 99 100 100 100 100
100 100 100 100 100 100 100 100 100 100 100 100 99 23 5 5 4 0 0 1 2 3 4 21 55 53 56 27 99 100 100 100 100 100 67 13 82 42 5 55 100 100 100 100 100
100 100 100 100 100 100 100 100 100 100 100 100 99 68 17 5 5 1 4 5 4 2 1 2 5 5 31 56 69 86 76 97 100 100 100 28 6 100 97 73 10 18 96 100 99
100 100 100 100 100 100 100 100 100 100 100 100 100 63 14 5 5 0 0 0 0 0 5 39 5 35 5 5 5 44 93 100 88 100 100 96 81 100 100 100 100 100 100 100 100
100 100 100 100 100 100 100 100 100 100 100 100 98 38 41 5 5 0 0 0 2 4 5 39 88 38 95 92 88 76 29 96 100 100 95 100 100 100 74 63 97 100 100 100 100

GFSSW_prec_cloud_105.txt.gz
Cloud_Cover
92 10 72 10 11 10 79 71 100 100 100 100 5 86 81 100 33 0 0 16 100 14 7 100 99 4 2 79 100 100 100 100 100 100 100 100 100 100 96 63 34 18 100 81 100
48 35 38 51 4 5 20 68 100 100 100 98 22 46 100 100 10 0 1 100 50 49 62 85 42 1 15 100 100 89 74 100 100 100 100 100 100 100 100 96 98 60 100 100 98
100 100 91 95 57 23 67 93 100 100 100 44 94 100 100 99 4 3 5 19 44 95 100 100 35 74 100 100 100 11 92 100 100 100 100 100 100 100 24 60 100 53 100 100 100
100 100 100 100 100 21 50 100 100 100 100 92 100 100 100 100 3 5 0 5 97 100 98 95 94 89 89 83 74 1 66 100 100 100 100 100 100 100 13 68 93 100 100 98 100
100 100 100 100 65 69 96 100 100 100 100 100 100 100 100 77 4 0 3 10 100 100 100 67 93 97 70 51 0 97 100 100 100 100 100 100 100 100 26 98 98 100 84 100 100
100 100 100 100 72 89 100 100 100 100 100 100 100 100 100 21 3 3 41 100 100 100 100 61 83 79 65 47 88 98 99 100 100 100 100 100 100 100 76 53 69 88 100 100 100
73 100 100 100 100 100 75 100 100 100 100 100 100 100 100 6 5 4 24 24 83 45 72 70 77 100 6 68 100 100 89 100 100 100 100 100 100 100 74 99 88 100 100 100 100
98 100 100 100 100 100 100 100 100 100 100 100 100 100 100 18 5 1 15 100 44 52 58 100 77 100 83 100 100 100 100 100 100 100 100 100 96 33 38 92 64 100 100 100 97
100 100 100 100 100 100 100 100 100 100 100 100 100 100 98 8 3 5 49 14 7 11 100 100 100 82 86 98 100 100 100 100 100 100 100 100 84 76 72 72 100 100 100 100 100
99 100 100 100 88 100 100 100 100 100 100 100 100 100 75 19 2 5 5 56 79 83 93 92 88 100 100 89 91 99 100 100 100 100 100 100 33 12 53 71 100 100 100 100 100
33 100 100 100 79 100 100 100 100 100 100 100 100 100 100 5 4 0 0 6 71 87 100 87 44 100 100 78 80 100 100 100 100 100 100 100 99 46 47 100 100 100 100 100 100
0 2 99 100 70 100 100 100 100 100 100 100 100 100 74 5 2 0 0 1 4 32 72 36 57 47 92 8 85 100 97 99 100 100 100 100 99 38 30 93 98 100 100 100 100
0 88 98 100 68 100 98 100 100 100 100 100 100 100 82 5 2 1 0 0 0 0 4 5 5 27 19 48 45 77 62 100 100 100 100 97 66 89 12 99 61 100 100 100 100
1 90 100 100 100 99 91 100 100 100 100 100 100 100 92 5 5 0 0 0 2 1 0 0 0 4 5 17 7 17 100 88 100 100 83 98 100 100 85 99 100 99 100 100 100
0 14 100 100 100 100 100 100 100 100 100 100 100 100 88 19 5 2 0 0 0 4 4 2 0 0 0 0 0 94 95 93 93 99 90 100 100 97 65 5 82 100 100 100 100
0 0 96 100 100 100 93 100 100 100 100 100 100 100 100 5 5 5 0 0 0 4 5 5 5 3 0 2 4 5 92 100 98 84 100 100 100 95 95 15 97 100 99 100 100
0 0 100 100 100 100 100 100 100 100 100 100 100 100 100 21 5 5 0 0 2 2 5 0 2 5 5 5 7 54 7 98 100 100 100 100 100 100 100 75 60 37 90 71 100
4 35 100 100 100 100 100 100 100 100 100 100 100 100 100 54 5 5 0 5 0 2 7 58 0 2 5 95 61 63 12 8 100 100 100 95 58 100 100 78 63 100 100 83 100
100 100 100 100 94 100 100 100 100 100 100 100 100 100 100 44 8 16 4 4 0 0 2 55 4 4 5 5 58 50 74 83 100 92 100 100 85 97 100 100 100 100 100 100 100
100 100 100 100 100 100 100 100 100 100 100 100 100 100 83 13 32 6 5 0 0 1 5 5 60 2 4 5 11 60 77 100 98 100 47 100 100 100 100 100 100 88 97 100 100
97 100 100 100 100 100 100 100 100 100 100 100 100 100 67 5 58 5 2 3 5 5 5 24 63 7 0 40 98 99 93 100 100 100 54 81 100 100 100 100 100 100 98 100 100
100 100 100 100 100 100 100 100 100 100 100 100 100 100 26 5 38 5 5 4 5 5 5 5 39 66 3 5 14 100 100 100 100 83 96 12 100 100 100 100 100 100 100 100 100
100 100 100 100 100 100 100 100 100 100 100 100 100 100 36 9 16 5 0 3 5 5 5 4 41 25 1 42 98 85 99 85 100 100 27 40 12 100 100 100 100 98 61 100 100
100 100 100 100 100 100 100 100 100 100 100 100 100 100 45 37 9 5 0 0 0 0 1 12 25 11 5 3 36 86 95 83 99 100 100 66 83 99 100 100 100 100 100 100 100
100 100 100 100 100 100 100 100 100 100 100 100 100 100 65 21 7 5 4 3 2 5 2 4 5 22 5 5 5 33 81 76 32 82 100 100 87 97 100 23 99 100 100 100 100
100 100 100 100 100 100 100 100 100 100 100 100 100 100 53 18 19 5 0 0 0 0 5 6 5 55 70 90 5 5 5 5 5 5 100 90 100 100 98 42 86 46 100 100 100
100 100 100 100 100 100 100 100 100 100 100 100 100 99 59 42 8 5 2 2 2 1 5 30 51 49 22 92 44 15 98 51 21 13 89 82 100 100 100 43 49 98 69 99 68

GFSSW_prec_cloud_108.txt.gz
Cloud_Cover
100 100 100 100 75 18 30 2 33 30 64 100 100 100 100 100 100 48 5 0 100 68 5 6 63 53 58 26 78 49 100 92 100 100 100 100 100 100 100 100 70 3 4 25 100
100 100 100 97 100 14 91 63 22 20 15 100 100 100 100 100 100 12 1 1 100 27 18 66 44 35 53 47 100 100 100 100 100 100 100 100 100 100 100 90 59 5 3 100 86
60 100 100 100 100 100 32 100 5 66 93 100 99 100 100 100 100 7 0 34 10 5 98 85 17 37 55 52 100 100 100 100 100 100 100 100 100 100 100 100 6 1 26 83 100
38 100 100 100 100 100 100 41 18 5 100 100 100 100 100 100 98 2 2 5 5 5 24 71 47 49 97 95 83 100 90 100 100 100 100 100 100 100 98 100 44 5 5 77 69
92 100 100 100 100 100 60 54 73 58 100 100 100 100 100 100 56 5 5 5 40 57 9 48 79 96 20 72 91 100 100 100 100 100 100 100 100 100 100 100 46 48 100 100 100
100 100 100 100 100 99 24 38 90 100 100 100 100 100 100 100 71 5 14 78 97 25 85 41 71 92 56 79 42 50 97 100 100 100 100 100 100 100 100 100 79 100 100 75 96
39 100 100 100 100 100 52 100 100 100 100 100 100 100 100 100 33 5 5 41 82 100 98 100 100 100 90 100 87 99 100 100 100 100 100 100 100 57 100 50 7 100 100 100 100
0 98 100 100 100 100 5 100 100 100 100 100 100 100 100 100 7 5 5 5 100 93 100 90 72 66 70 51 82 100 99 100 100 100 100 100 100 100 99 41 33 95 29 100 100
0 88 100 100 100 100 40 100 100 100 100 100 100 100 100 100 62 4 5 5 96 30 68 100 100 96 81 100 64 100 100 100 100 100 100 100 100 100 6 41 5 100 100 100 100
0 25 22 99 100 100 33 100 100 100 100 100 100 100 100 100 62 3 5 73 88 47 65 39 94 100 100 100 52 97 100 100 100 100 100 100 100 100 58 95 11 100 100 100 100
0 0 0 0 94 100 100 100 100 100 100 100 100 100 100 100 70 0 5 5 42 92 69 79 94 93 100 61 9 97 100 90 92 89 99 100 100 100 84 92 34 100 100 100 100
0 0 6 5 100 100 93 100 100 100 100 100 100 100 100 100 43 0 0 2 5 18 45 48 94 82 99 28 25 88 37 17 79 42 100 99 99 100 93 74 83 100 100 100 100
0 0 100 100 100 100 100 100 100 100 100 100 100 100 100 100 9 0 0 0 0 1 5 42 17 5 42 12 29 22 15 60 60 60 76 69 90 100 100 70 43 100 100 100 100
10 3 5 100 77 100 100 100 100 100 100 100 100 100 100 100 25 0 0 0 0 4 0 2 3 5 5 9 7 12 5 7 81 47 88 100 73 81 100 62 100 100 100 100 100
89 0 0 98 100 100 100 100 100 100 100 100 100 100 100 99 7 2 0 0 1 2 2 3 1 4 5 5 5 60 95 6 12 48 52 100 98 75 100 98 99 100 100 100 100
97 0 0 69 100 100 100 100 100 100 100 100 100 100 100 75 5 0 0 0 0 2 0 4 3 4 5 1 5 5 32 96 58 97 100 100 100 33 89 100 100 100 100 100 100
100 6 43 74 100 100 100 100 100 100 100 100 100 100 100 30 5 0 0 0 1 0 4 3 0 2 5 5 4 4 10 88 99 100 100 100 96 100 100 98 100 100 100 100 100
98 94 49 43 100 100 100 100 100 100 100 100 100 100 100 40 5 5 5 0 0 2 5 4 4 2 4 8 20 37 44 87 95 87 100 83 96 100 61 100 100 100 100 100 100
100 100 100 100 100 100 100 100 100 100 100 100 100 100 76 31 5 5 5 3 0 4 4 5 5 0 0 4 8 98 55 80 54 6 100 100 100 100 100 100 100 100 100 100 100
100 100 100 100 100 100 100 100 100 100 100 100 100 100 54 45 5 5 1 1 3 1 5 5 43 1 4 1 8 45 58 100 98 79 82 63 100 100 100 99 21 100 100 100 100
100 100 100 100 100 100 100 100 100 100 100 100 100 100 60 53 5 5 2 3 5 5 5 5 12 39 0 5 34 39 91 100 100 77 88 81 100 100 100 100 100 100 100 100 100
99 100 100 100 100 100 99 98 100 100 100 100 100 100 98 18 16 5 5 4 4 5 5 5 6 48 5 5 5 81 100 99 100 100 100 80 100 100 100 69 67 87 12 93 100
100 100 100 100 100 100 100 100 97 100 100 100 100 89 100 6 49 5 4 2 5 5 4 2 36 30 4 51 67 100 61 67 56 100 100 100 97 100 100 100 48 82 79 89 100
100 100 100 100 100 100 100 100 100 100 100 100 100 79 65 5 54 4 0 0 0 1 0 1 6 7 20 33 17 76 21 41 67 95 100 91 90 40 100 100 100 28 73 66 8
88 100 100 100 100 100 100 100 100 100 100 100 100 72 8 5 42 5 0 0 0 0 0 0 2 5 5 5 5 5 56 5 98 6 65 94 98 48 80 100 100 100 7 55 92
100 100 100 100 100 100 95 100 100 100 100 100 97 36 6 30 14 5 0 0 0 0 0 5 8 28 5 43 68 5 5 5 5 5 37 73 99 100 84 43 100 100 100 100 100
100 100 100 100 100 100 100 99 100 100 100 100 88 20 8 41 32 4 0 0 0 0 4 2 5 8 5 5 32 47 13 97 100 100 100 97 100 52 94 85 100 100 100 100 100

GFSSW_prec_cloud_111.txt.gz
Cloud_Cover
100 93 100 88 94 99 40 31 5 9 1 3 4 7 100 100 100 100 100 74 5 42 59 85 100 75 42 100 54 57 98 72 100 95 46 100 100 100 100 100 100 99 100 39 23
100 90 75 100 100 53 22 21 5 5 3 2 5 7 100 100 100 100 100 59 4 91 5 21 86 100 56 4 13 52 92 74 98 92 100 100 100 98 100 100 48 35 54 42 37
100 96 99 100 100 76 98 6 7 8 5 5 12 100 100 100 100 100 70 2 3 25 5 6 36 83 56 96 70 82 89 100 100 100 100 99 100 100 100 90 37 5 59 33 48
100 100 100 98 100 94 100 79 10 32 5 5 62 100 100 100 100 97 3 4 5 5 55 71 9 75 83 26 37 12 100 100 100 96 100 100 100 100 100 90 98 4 79 73 100
100 84 100 100 100 100 100 67 32 95 15 22 100 100 100 100 100 47 5 0 5 20 61 31 32 100 99 91 24 15 100 100 100 99 100 100 100 96 100 97 100 100 100 22 100
22 10 100 100 100 100 100 94 89 13 5 100 100 100 100 100 100 11 2 5 5 7 28 37 65 99 91 100 78 92 100 100 100 100 100 100 100 100 99 100 100 100 100 40 6
13 33 53 97 100 100 100 100 31 34 94 100 100 100 100 100 98 5 5 5 5 90 87 94 39 87 96 100 100 100 92 100 100 100 100 100 100 100 100 100 100 100 100 44 60
25 15 2 36 100 100 100 100 96 98 100 100 100 100 100 100 80 8 3 5 6 6 43 91 76 83 99 97 100 100 100 100 100 100 100 100 100 100 100 78 100 100 96 37 65
89 3 4 0 36 100 100 100 100 100 100 100 100 100 100 100 90 4 1 4 70 42 62 83 99 68 72 98 100 100 100 100 100 100 100 100 100 100 100 100 80 78 62 100 75
21 5 0 46 0 39 100 100 100 100 100 100 100 100 100 100 70 0 3 5 5 44 98 64 78 71 92 100 100 100 100 100 100 100 99 46 96 100 86 48 92 100 87 100 100
76 4 0 30 11 18 64 100 100 97 100 100 100 100 100 100 28 5 0 5 5 9 86 81 92 100 100 91 100 100 100 96 92 100 100 51 17 53 93 100 50 33 48 100 100
95 3 0 98 100 100 100 99 100 100 100 100 100 100 100 100 10 1 0 1 5 63 83 44 96 100 100 79 100 100 94 94 84 100 100 98 92 100 92 98 85 5 5 100 100
50 69 0 1 100 100 84 100 100 100 100 100 100 100 88 100 5 1 0 0 2 6 76 90 100 7 29 97 100 100 100 95 100 100 95 31 12 100 40 58 100 60 56 100 100
5 92 38 0 51 92 100 100 100 100 100 100 100 99 96 88 4 0 0 0 4 5 5 8 56 5 10 93 88 100 35 92 64 90 100 21 99 54 14 26 100 34 100 100 100
99 100 100 65 16 100 100 90 100 100 100 100 100 49 92 86 2 0 0 0 5 28 5 14 5 6 5 79 14 80 5 37 100 86 87 100 32 100 69 41 100 96 91 100 100
100 100 100 100 40 87 100 100 100 96 100 100 100 99 95 33 2 1 3 0 0 5 3 3 5 5 29 4 5 5 10 29 70 100 62 100 57 82 73 76 100 91 100 100 100
100 100 100 85 59 100 97 100 96 100 100 100 100 100 100 29 5 3 4 5 11 4 16 3 2 3 2 6 5 5 59 94 98 77 76 42 98 100 54 99 100 100 100 100 100
100 100 100 75 99 100 100 100 100 100 100 100 100 100 98 35 5 4 5 5 2 5 5 5 41 2 4 45 49 84 90 98 99 99 87 32 76 92 38 6 100 100 100 100 100
100 100 100 74 97 100 100 100 100 100 100 100 100 100 84 24 5 3 0 3 5 5 5 5 27 2 0 5 23 66 46 79 94 100 70 89 42 92 16 6 100 100 100 100 100
100 100 100 100 100 100 100 100 100 100 100 100 100 100 79 7 4 0 0 2 4 1 4 49 77 7 4 8 18 36 100 96 95 96 100 100 100 100 95 5 97 100 100 100 100
100 100 100 100 100 100 100 100 100 100 100 100 100 86 65 5 3 0 0 2 1 2 5 8 66 66 36 75 94 88 82 69 100 97 100 100 100 5 94 3 12 100 100 100 100
100 100 100 100 100 100 100 100 100 100 100 100 100 51 46 5 2 0 3 5 0 5 57 13 32 46 46 6 21 99 99 31 100 100 100 100 100 57 89 25 49 48 100 100 100
100 100 100 100 100 100 100 100 100 100 100 100 97 84 6 36 4 0 4 0 2 5 37 17 44 44 70 59 37 91 100 94 67 92 75 80 100 98 73 95 100 98 99 100 100
90 100 100 100 100 100 99 100 100 100 100 100 94 60 34 51 28 1 3 0 0 2 0 1 11 5 5 39 18 29 46 5 68 90 68 82 100 100 100 85 96 99 100 100 100
70 100 100 100 100 98 100 100 99 100 100 88 58 72 42 74 44 2 0 0 0 0 0 2 2 4 5 13 5 5 5 0 3 22 31 29 29 73 95 100 99 40 71 100 100
87 100 100 100 100 99 97 100 100 100 68 80 42 45 38 74 13 2 0 0 0 0 0 0 10 5 5 5 26 1 0 0 2 6 8 6 24 33 62 56 98 100 99 50 100
44 58 96 100 100 76 83 68 59 100 58 48 26 63 66 53 7 5 0 0 0 1 4 2 5 30 3 4 12 44 60 30 83 100 92 91 45 5 25 94 46 26 56 100 92

GFSSW_prec_cloud_114.txt.gz
Cloud_Cover
100 100 100 92 96 94 100 46 85 5 47 7 2 0 0 4 6 77 100 96 100 100 39 4 5 86 99 99 16 91 100 49 5 5 0 1 88 87 55 9 100 100 100 100 100
100 100 100 100 98 100 100 92 96 9 5 2 1 5 3 6 12 100 100 100 100 80 4 6 69 100 99 10 95 84 52 5 5 11 43 33 18 100 93 71 100 100 99 100 25
100 100 100 100 100 74 100 100 92 56 35 2 2 5 5 5 62 100 100 100 100 7 4 4 50 50 24 33 52 5 4 8 26 86 100 96 100 100 96 63 97 100 96 100 100
100 100 100 100 100 96 100 100 92 76 100 72 5 4 4 69 100 100 100 48 2 1 2 100 36 98 100 87 91 82 5 5 86 100 100 100 100 100 100 100 100 99 100 96 78
100 100 100 100 99 100 100 100 100 100 66 14 5 0 1 100 100 100 52 5 0 0 3 20 82 36 54 85 94 100 68 18 19 87 100 100 100 100 100 100 100 100 44 84 100
98 100 100 100 100 100 100 100 94 100 100 6 5 0 100 100 100 100 59 4 5 2 37 47 96 92 9 85 71 89 54 24 99 100 100 100 100 100 100 99 58 100 63 93 97
100 100 100 100 82 98 100 100 100 100 100 14 5 98 100 100 100 100 5 5 1 5 49 52 22 5 16 66 100 100 100 100 100 98 100 100 100 100 100 97 97 8 50 25 100
100 100 100 91 90 23 100 100 100 100 100 13 100 100 100 100 100 52 5 5 3 5 5 24 71 8 46 54 76 100 100 100 100 100 100 100 100 100 79 43 97 7 100 100 100
100 100 100 100 83 46 60 52 100 100 100 100 100 100 100 100 100 71 5 5 5 5 5 14 7 23 85 90 90 100 98 100 100 100 99 70 100 78 97 96 100 82 100 100 100
100 100 100 100 8 52 3 100 53 100 65 100 100 100 100 100 100 15 13 3 5 5 8 37 27 23 100 100 100 100 100 100 99 100 100 85 89 100 95 100 100 100 100 100 100
100 100 95 100 88 92 38 1 57 29 100 100 100 100 100 100 91 28 10 2 5 5 5 63 39 86 100 100 99 100 100 100 100 100 95 87 39 40 100 100 100 100 100 100 100
65 22 93 16 8 100 96 39 7 72 100 100 100 100 100 98 22 53 2 0 47 57 100 91 27 82 31 49 100 100 100 98 100 100 100 78 18 58 100 100 100 100 100 100 100
6 76 100 80 5 36 100 91 87 100 100 100 100 100 100 100 15 41 0 3 0 4 25 97 28 99 16 33 100 100 100 100 100 32 100 100 10 5 100 100 100 100 100 100 100
15 100 100 100 15 46 100 26 100 100 100 100 100 100 100 55 74 2 0 0 2 3 1 5 12 28 5 14 86 12 96 80 100 100 100 66 76 18 54 100 100 100 100 100 100
100 100 100 100 11 78 100 86 100 100 100 94 99 100 100 72 17 0 0 0 0 5 4 2 20 5 5 71 8 5 5 19 5 93 100 100 100 100 84 17 100 100 100 100 100
100 100 100 100 84 83 100 100 100 96 95 100 93 100 93 74 4 0 2 0 0 0 1 0 0 0 4 1 0 2 1 2 62 100 77 100 97 100 98 99 100 99 100 100 100
100 100 100 100 73 99 86 100 100 100 100 100 100 100 99 14 2 0 1 1 1 3 4 4 0 0 5 5 23 97 43 41 55 22 33 97 100 97 96 100 100 100 93 98 100
100 99 100 100 37 100 100 100 100 100 100 100 100 100 21 5 2 1 0 5 4 1 5 5 7 4 0 28 14 57 96 100 98 96 93 89 93 100 56 40 100 100 100 100 100
100 100 100 87 4 96 100 100 100 100 94 100 100 99 8 14 0 4 0 2 3 3 3 58 19 5 4 0 4 42 66 100 100 100 99 99 36 100 9 6 100 100 100 100 100
100 95 100 100 98 100 100 96 100 100 100 100 100 10 31 5 2 0 0 3 4 2 4 85 59 5 2 17 66 81 75 92 94 100 94 100 59 72 84 5 77 100 100 100 100
95 99 100 100 100 100 100 100 100 100 100 100 93 5 24 3 0 0 0 3 0 2 21 51 61 2 47 7 11 8 21 72 70 93 100 100 100 99 42 5 4 100 100 100 100
50 100 100 100 99 100 100 100 100 100 100 100 59 5 5 2 0 0 3 0 0 2 5 4 3 5 5 5 66 5 60 5 75 99 100 100 100 96 57 5 5 98 100 100 100
100 100 100 99 100 98 96 90 100 100 100 99 7 15 5 0 0 0 0 0 0 0 0 0 4 5 68 72 77 12 10 8 45 91 42 82 100 63 33 97 12 6 100 98 100
36 100 35 84 81 82 86 100 100 100 89 31 6 12 5 0 0 0 0 0 0 0 0 1 29 5 5 38 4 3 0 4 4 21 17 94 100 95 100 96 28 5 61 96 100
49 100 100 55 60 62 43 100 100 86 64 43 5 9 5 3 0 0 0 0 0 0 0 0 5 2 1 5 5 4 0 0 5 3 12 8 14 94 74 86 96 58 22 93 38
8 2 9 88 10 94 100 100 100 90 29 16 5 5 5 5 2 0 0 0 0 0 0 0 5 5 5 0 0 0 0 0 2 6 5 5 88 100 99 5 25 99 100 26 72
8 26 16 47 13 96 100 100 100 100 26 82 5 34 5 5 4 0 0 0 0 0 0 2 5 8 4 0 5 5 5 5 5 91 57 81 9 5 15 74 63 5 38 65 45

GFSSW_prec_cloud_117.txt.gz
Cloud_Cover
100 100 100 100 100 100 100 100 96 100 91 25 32 23 48 0 0 4 3 5 44 38 42 65 30 61 100 73 86 76 100 100 67 5 0 0 1 0 0 3 0 10 0 0 5
100 100 100 99 100 100 92 100 100 99 82 7 33 4 8 0 10 16 4 5 99 100 26 93 63 99 100 38 13 46 100 100 85 3 0 0 5 2 0 27 0 12 4 3 30
100 100 100 100 100 84 89 100 100 92 100 46 2 5 5 0 49 4 5 10 99 7 74 9 5 6 89 85 70 5 9 3 4 1 5 5 5 5 3 0 0 0 91 60 94
100 100 100 100 100 100 100 100 92 97 100 98 100 5 2 4 2 3 5 100 100 50 29 30 40 100 100 95 24 87 23 3 5 5 50 38 5 5 8 1 41 3 46 100 86
100 100 100 100 100 100 100 100 100 100 100 100 9 5 1 16 12 5 92 99 15 6 5 34 49 80 46 8 12 42 21 11 3 7 5 18 35 67 12 70 79 74 78 100 42
100 100 100 100 100 100 100 69 100 100 100 99 10 5 24 41 10 100 100 43 5 14 5 98 23 100 100 12 6 5 5 31 81 60 29 28 5 6 99 100 100 82 39 97 100
100 100 100 100 100 100 100 100 100 100 97 73 5 5 5 60 100 100 86 98 88 5 5 50 34 32 62 5 12 5 98 100 81 98 95 100 100 96 100 100 100 100 28 100 100
100 100 100 100 100 100 100 100 98 100 100 6 42 48 75 100 100 100 100 80 8 5 28 5 5 17 73 20 91 100 92 100 100 25 70 70 100 100 99 71 99 87 99 100 90
100 100 100 100 100 100 100 95 44 33 100 5 20 74 100 100 100 100 100 62 8 6 5 5 5 9 93 94 55 24 46 77 98 100 100 44 96 100 100 91 88 100 100 100 96
100 100 100 99 100 100 96 27 63 14 62 38 64 100 100 100 100 100 48 14 50 12 5 18 21 5 89 99 94 98 100 99 100 100 100 69 97 100 91 73 100 100 100 100 99
24 79 77 100 90 62 100 100 5 36 32 56 100 100 100 100 93 90 56 70 5 5 5 5 82 55 83 96 100 75 69 100 100 100 99 100 35 100 100 100 91 100 100 100 100
100 100 100 100 99 36 76 100 20 49 52 100 100 100 100 100 100 95 65 2 39 2 21 82 11 5 40 84 69 94 95 76 100 100 100 100 100 94 100 100 100 77 93 100 100
100 100 100 100 100 37 70 82 100 45 100 100 100 100 97 100 100 100 2 2 2 0 5 40 15 94 5 6 5 78 87 84 100 93 100 82 98 18 100 100 100 100 94 100 100
100 100 100 100 94 83 99 98 100 100 100 95 100 100 75 100 100 10 0 0 3 4 5 1 61 45 5 5 26 5 12 18 6 34 100 100 99 99 100 100 100 100 100 100 100
100 100 100 100 19 100 100 70 100 100 100 100 100 87 100 100 28 1 0 0 0 0 0 0 0 0 0 1 65 13 0 1 5 5 100 100 100 100 100 100 100 100 100 100 100
100 100 100 100 75 94 100 98 99 100 100 100 84 100 100 86 4 0 0 0 0 0 1 2 5 3 4 0 16 4 5 0 0 18 30 99 100 100 100 100 100 100 100 100 100
70 99 61 12 48 80 96 100 100 100 94 95 100 100 100 10 0 0 1 5 1 0 2 0 5 72 4 0 51 100 29 65 16 22 86 75 99 100 100 100 100 100 100 100 100
51 81 87 91 27 97 100 100 100 99 100 100 100 100 75 5 0 0 4 1 0 0 2 7 5 3 5 11 9 86 83 100 100 89 87 98 80 100 100 100 100 100 100 100 100
61 99 75 51 100 100 91 100 97 99 100 100 100 97 14 1 0 0 0 2 4 0 2 38 3 32 69 80 81 6 100 94 100 100 74 100 78 95 74 100 100 100 100 100 100
6 98 100 93 100 67 85 94 88 100 100 100 98 52 0 0 0 0 0 4 0 0 5 16 24 4 5 4 0 6 11 68 100 100 100 95 90 100 21 35 100 100 100 100 100
27 100 78 6 50 100 92 76 100 100 100 100 17 7 0 0 0 0 0 2 0 0 4 1 4 3 1 44 5 4 5 10 36 88 100 93 100 100 100 78 70 100 100 100 100
5 99 2 5 12 6 5 89 100 100 99 74 11 0 0 0 0 0 0 0 0 0 0 0 4 41 75 23 5 5 4 5 5 65 73 50 100 100 100 100 36 9 100 100 100
96 61 2 0 5 26 5 100 100 100 69 25 5 0 0 0 0 0 0 0 0 0 0 0 5 54 77 3 0 0 0 5 40 38 97 97 96 45 66 98 92 5 10 100 100
64 12 5 1 17 22 27 100 100 69 8 16 5 0 0 0 0 0 0 0 0 0 0 0 15 4 5 4 3 2 0 0 3 28 86 26 52 7 30 54 19 28 5 5 54
88 93 45 8 5 6 33 100 60 63 54 59 5 0 0 0 0 0 0 0 0 0 0 0 5 5 0 1 0 0 0 0 2 2 18 5 70 27 5 46 97 12 7 5 5
90 62 11 10 5 5 56 100 100 100 97 100 31 5 1 0 0 0 0 0 0 0 0 0 28 7 50 0 2 0 0 0 5 5 5 5 23 5 5 5 5 5 0 5 5
100 87 90 5 5 5 5 100 100 100 100 100 100 82 7 3 0 0 0 0 0 0 0 2 11 10 4 0 5 3 0 0 5 5 5 5 5 5 44 64 5 5 5 5 5

GFSSW_prec_cloud_120.txt.gz
Cloud_Cover
100 100 100 100 100 100 100 100 100 100 89 36 99 92 100 92 1 5 8 0 0 6 0 0 26 68 19 98 48 72 87 44 5 6 3 5 3 0 0 0 0 0 0 0 0
100 100 100 100 100 100 100 100 100 100 97 100 72 8 14 3 4 35 0 0 0 0 0 6 64 97 100 100 96 98 81 70 5 5 4 0 1 5 0 0 0 0 0 3 4
100 100 100 100 100 100 100 100 100 100 100 100 98 8 23 18 29 0 4 0 0 0 5 46 100 100 100 86 10 65 70 5 0 0 0 1 3 0 0 0 0 0 0 18 11
100 100 100 100 100 100 100 100 100 100 100 100 100 84 50 28 1 0 0 2 1 3 25 100 100 87 42 86 77 96 6 5 3 0 3 5 5 0 4 0 1 0 0 0 0
100 100 100 100 100 100 100 100 100 100 100 100 100 100 10 32 22 0 0 5 3 32 100 91 16 27 38 62 100 95 5 5 5 3 0 4 2 5 2 9 15 3 0 0 0
100 100 100 100 100 100 100 100 100 100 100 76 96 98 6 5 0 0 0 3 99 100 69 5 6 66 98 99 70 69 33 5 5 5 4 4 2 5 3 5 1 2 2 0 0
100 100 100 100 100 100 100 100 100 100 100 93 37 38 5 2 0 0 20 100 89 10 34 82 100 99 42 6 75 98 36 5 45 88 76 36 82 48 75 23 5 26 62 5 0
100 100 100 100 100 100 100 100 100 100 97 99 52 6 31 0 8 100 100 100 99 19 50 32 76 69 92 68 37 15 29 53 74 67 50 60 98 58 55 94 81 11 23 5 5
100 100 100 100 100 100 100 100 100 98 100 100 21 5 41 88 100 100 100 77 11 17 95 80 91 46 20 98 53 40 87 97 100 99 81 99 91 100 45 54 95 34 83 95 80
98 98 99 100 100 100 100 100 100 100 20 89 22 28 99 100 100 100 100 72 99 5 57 60 94 55 84 100 100 88 96 89 100 100 100 100 100 91 98 96 81 7 98 100 100
100 100 100 100 100 100 98 100 100 38 13 3 52 100 100 100 100 100 54 99 8 5 5 99 90 96 81 100 99 61 99 82 97 100 100 100 100 100 100 91 10 100 100 100 100
100 100 90 100 100 99 100 68 100 5 4 88 100 100 100 100 99 97 93 3 20 5 66 86 58 28 97 99 100 100 77 17 42 100 100 100 99 100 100 99 100 100 100 100 100
100 100 100 86 100 55 100 100 93 7 87 100 100 100 100 97 100 82 2 2 5 5 3 34 8 56 98 14 8 28 86 79 28 89 100 96 98 100 100 100 100 100 100 100 100
100 100 100 96 67 100 100 98 18 98 95 100 100 100 100 100 92 1 1 0 5 5 3 3 66 32 21 3 4 5 33 98 6 22 35 92 100 100 100 100 100 100 100 100 100
100 98 99 34 96 100 86 47 82 93 99 100 95 98 100 96 1 0 0 0 0 0 0 2 2 0 1 0 16 8 0 0 3 3 45 97 76 100 100 100 100 100 100 100 100
25 5 4 3 39 89 93 53 87 94 100 88 95 100 92 0 0 0 0 0 0 0 0 4 5 5 5 0 41 76 5 1 0 2 100 88 100 100 100 100 100 100 100 100 100
4 0 0 0 30 100 11 92 88 70 44 82 100 98 3 0 0 0 3 0 0 2 2 5 5 5 21 68 26 83 5 100 5 94 100 100 100 100 100 100 100 100 100 100 100
3 20 84 77 38 35 46 72 23 98 95 100 97 6 0 0 0 0 1 0 0 0 5 5 4 60 5 73 34 53 99 100 54 100 100 95 100 100 100 100 100 100 100 100 100
0 4 8 5 5 5 6 21 100 100 100 99 9 1 0 1 0 0 3 4 5 5 3 5 3 6 2 0 21 98 100 100 100 87 11 91 100 100 100 100 100 100 100 100 100
0 0 0 0 1 5 22 100 100 100 69 5 5 0 0 0 0 0 0 2 0 2 5 2 5 3 0 3 1 10 71 93 96 47 74 98 90 100 100 100 100 100 100 100 100
0 0 0 0 5 8 100 100 99 58 25 12 2 0 0 0 0 0 2 1 0 0 0 0 1 0 3 5 4 0 5 30 58 70 44 78 100 100 100 99 100 100 100 100 99
52 9 0 3 5 97 100 100 100 96 19 0 0 0 0 0 0 0 0 0 0 0 0 0 2 23 40 5 1 0 4 5 5 7 100 17 100 100 100 100 100 100 100 100 100
15 28 0 4 10 89 93 100 100 73 6 0 0 0 0 0 0 0 0 0 0 0 0 0 5 22 0 0 0 0 0 4 6 5 70 36 95 100 100 100 100 100 97 100 100
100 100 33 4 14 87 100 100 71 71 19 5 0 0 0 0 0 0 0 0 0 0 0 0 5 4 2 0 1 3 0 0 4 8 11 7 13 45 59 100 86 11 91 98 100
100 100 100 80 17 4 99 100 100 54 40 17 0 0 0 0 0 0 0 0 0 0 0 0 3 5 0 0 0 1 0 0 2 4 5 1 5 5 5 5 18 12 13 47 23
100 100 100 100 96 37 8 5 100 79 74 47 12 5 0 0 0 0 0 0 0 0 0 3 6 5 5 0 5 0 0 0 3 3 2 5 4 5 5 5 5 5 3 5 13
100 64 97 77 100 100 4 78 7 59 60 37 13 19 7 3 0 0 0 0 0 0 0 2 5 7 4 5 3 0 0 0 0 1 0 5 0 5 5 36 5 5 5 5 3

GFSSW_prec_cloud_123.txt.gz
Cloud_Cover
100 100 100 100 100 100 100 100 100 100 100 100 89 100 100 100 81 8 24 2 0 0 0 0 0 0 0 0 2 5 28 89 7 0 0 0 0 0 0 0 0 0 0 1 4
100 100 100 100 100 100 100 100 100 100 100 100 100 100 100 100 85 36 6 0 0 0 0 0 0 5 7 8 5 70 73 6 3 0 0 0 0 0 0 0 0 0 0 0 42
100 100 100 100 100 100 100 100 100 100 100 100 100 100 100 99 99 34 0 0 0 9 0 2 83 13 60 58 35 62 24 2 0 0 4 3 0 0 0 0 0 0 0 0 0
100 100 100 100 100 100 100 100 100 100 100 100 100 100 100 98 36 1 0 1 7 0 5 5 15 99 56 100 100 20 0 0 0 4 5 5 6 0 0 0 0 0 0 0 0
100 100 100 100 100 100 100 100 100 100 100 100 100 100 58 83 5 3 0 3 10 2 5 5 5 43 98 100 31 5 1 5 5 5 5 5 4 0 0 0 0 0 0 0 0
100 100 100 100 100 100 100 100 100 100 100 100 100 98 88 24 0 0 0 0 2 5 5 89 98 99 76 33 85 67 65 5 5 0 5 4 0 2 1 3 0 0 0 0 0
100 100 100 100 100 100 100 100 100 100 100 100 100 29 6 5 0 0 0 0 5 21 100 100 100 34 28 5 55 6 44 5 4 5 5 5 1 3 5 57 5 5 4 0 0
100 100 94 100 100 100 100 100 100 100 100 100 91 8 58 0 0 0 2 30 100 99 92 100 59 77 61 98 36 93 89 100 5 5 10 10 28 81 72 21 3 1 0 5 3
100 100 100 100 100 100 100 100 100 100 100 94 5 5 99 1 64 100 100 88 61 48 100 86 99 93 100 99 100 67 95 96 9 6 67 87 79 28 8 47 5 4 0 0 0
100 44 100 100 100 100 100 100 100 79 100 51 4 20 46 100 99 48 24 24 5 28 93 96 99 100 100 100 100 88 100 98 43 87 95 86 54 21 92 56 6 91 3 1 0
97 100 100 100 100 88 100 100 100 100 70 3 59 100 100 88 7 83 64 5 5 17 94 100 98 91 100 100 100 89 100 100 6 42 46 30 22 100 97 98 14 42 5 44 6
70 54 96 100 99 47 100 94 76 4 77 100 100 96 67 100 100 71 0 3 8 6 100 100 88 98 100 100 100 75 63 12 3 5 8 29 81 99 100 100 100 100 100 99 99
5 5 56 54 97 65 62 63 50 100 100 98 63 66 100 91 5 4 0 1 7 5 25 66 4 84 78 100 97 27 27 5 12 17 7 5 100 100 100 100 100 100 100 100 100
3 5 32 4 68 100 100 100 31 8 21 63 97 100 43 0 0 2 3 3 5 5 8 2 73 86 20 12 0 5 0 64 5 5 34 80 100 99 90 100 100 86 100 100 100
5 3 2 5 59 80 11 5 5 11 37 100 99 9 1 2 0 0 0 0 0 0 5 18 33 7 4 5 5 1 60 4 0 10 63 94 100 100 96 100 100 100 100 100 100
0 0 1 5 2 3 5 5 33 84 100 34 2 0 0 0 0 3 3 0 0 0 0 50 86 3 88 5 15 100 79 5 5 25 92 64 86 100 100 100 100 100 100 100 100
0 0 1 15 11 4 14 87 100 100 10 1 0 0 0 0 0 4 1 0 2 3 2 8 19 2 7 28 71 100 5 46 12 99 99 79 87 100 100 100 100 100 100 100 100
0 0 0 29 5 5 60 62 68 52 6 5 0 0 0 0 0 0 0 2 5 5 5 5 4 1 0 20 99 100 89 71 98 100 91 100 90 100 100 100 100 100 100 100 100
5 2 0 5 4 4 5 34 95 5 4 2 0 0 0 0 0 0 0 0 3 5 25 4 2 0 5 6 30 79 86 67 75 46 29 97 93 100 100 95 100 100 100 100 100
75 80 20 0 1 1 3 86 8 5 0 0 0 0 0 0 0 0 1 0 0 2 2 0 5 0 0 2 49 5 5 6 14 17 79 64 100 100 99 100 100 100 100 100 100
100 100 46 96 19 0 4 87 21 5 4 0 0 0 0 0 0 0 0 0 0 0 0 0 0 0 0 0 0 0 5 6 60 96 15 75 100 100 100 100 100 100 100 100 100
100 100 100 94 100 69 5 5 5 5 1 0 0 0 0 0 0 0 0 0 0 0 0 0 0 23 5 0 0 0 4 6 5 42 85 14 100 100 100 100 100 100 100 100 100
95 100 100 100 65 78 100 73 5 5 5 0 0 0 0 0 0 0 0 0 0 0 0 0 4 4 0 0 0 0 0 0 7 5 90 10 56 86 96 67 80 97 100 100 100
97 62 100 100 100 100 24 59 85 80 6 3 0 0 0 0 0 0 0 0 0 0 0 0 4 0 0 0 1 4 0 0 4 8 10 15 5 5 43 6 20 100 99 100 48
91 100 89 100 100 100 100 77 5 5 37 85 5 5 2 0 0 0 0 0 0 0 0 0 0 5 0 0 0 0 0 0 2 5 5 0 5 5 5 5 6 4 83 100 99
99 66 100 100 98 100 100 100 100 51 5 5 5 5 5 5 4 0 0 0 0 0 0 0 23 5 4 0 4 5 0 0 0 0 0 3 4 5 5 5 5 9 13 100 100
100 59 16 26 100 100 100 100 97 100 100 4 3 5 5 42 50 5 1 0 0 0 0 3 11 5 0 4 1 0 0 0 0 0 0 5 0 5 5 5 5 5 5 5 12

GFSSW_prec_cloud_126.txt.gz
Cloud_Cover
100 100 100 100 100 100 100 100 100 100 100 100 100 100 100 100 100 100 79 100 100 100 54 2 0 0 0 0 3 3 10 92 4 1 0 0 0 0 0 0 0 0 0 0 5
100 100 100 100 100 100 100 100 100 100 100 100 100 100 100 100 100 100 100 75 63 40 24 2 0 0 0 1 35 73 57 4 0 0 0 0 0 0 0 0 0 0 0 0 0
100 100 100 100 100 100 100 100 100 100 100 100 100 100 100 100 100 100 100 100 100 96 9 0 0 0 3 97 8 34 59 3 0 0 2 0 0 5 0 0 0 0 0 0 0
100 100 100 100 100 100 100 100 100 100 100 100 100 100 100 100 100 100 100 22 66 26 0 0 0 7 22 84 5 47 3 0 0 0 0 0 0 0 0 0 0 0 0 0 0
100 100 100 100 100 100 100 100 100 100 100 100 100 100 100 97 85 100 93 49 11 0 2 0 0 15 30 8 10 71 4 4 0 0 0 0 0 0 0 0 0 0 0 0 0
100 100 100 100 100 100 100 100 100 100 100 100 100 100 100 100 89 8 5 0 2 2 2 4 6 52 7 58 93 66 7 4 4 0 0 3 0 9 0 1 0 0 0 0 0
100 100 100 100 100 100 100 100 100 100 100 100 100 90 99 52 5 0 0 1 2 5 62 76 100 21 100 93 100 62 16 4 2 3 5 4 1 4 5 5 0 0 0 0 0
100 85 95 100 100 100 100 100 100 100 100 100 87 100 20 5 2 0 0 2 5 37 100 94 95 83 100 76 18 13 79 89 5 5 5 22 14 12 5 4 4 0 0 0 0
30 29 93 36 70 100 100 100 100 100 100 100 5 5 6 4 0 5 66 90 53 46 100 50 81 98 66 55 100 97 70 97 21 5 84 82 9 3 1 2 5 3 1 0 0
30 100 8 100 97 100 100 100 100 97 50 5 5 3 5 51 94 59 7 4 8 22 71 8 73 97 100 100 100 84 100 92 71 4 5 10 5 4 5 19 11 39 50 13 0
5 5 9 13 83 100 100 100 38 4 2 0 45 100 94 84 69 1 2 5 5 5 10 45 43 35 17 99 90 100 100 100 76 42 41 2 5 5 5 48 99 100 100 99 8
4 5 21 5 99 92 41 88 9 2 60 100 98 85 71 27 0 0 0 2 5 5 19 15 73 68 84 100 100 95 93 18 4 5 4 4 5 67 11 5 70 100 100 66 96
5 2 13 62 25 4 38 44 77 48 69 86 86 26 5 0 2 4 3 4 5 4 5 18 2 86 77 71 72 4 2 2 2 5 6 5 6 96 38 29 100 59 89 73 100
3 0 0 3 3 1 4 5 28 74 28 6 5 2 2 0 0 3 4 1 2 4 3 1 46 63 87 94 35 5 0 5 88 7 7 24 66 96 5 64 99 100 100 100 100
0 0 0 0 5 5 5 4 5 0 3 0 3 0 0 0 0 0 0 0 0 1 4 2 5 8 14 83 88 8 89 29 5 5 69 59 95 96 78 100 100 100 100 100 100
12 3 0 2 0 0 0 0 0 1 11 2 0 0 0 0 0 0 0 0 0 0 0 4 7 4 8 62 99 100 60 86 5 95 80 56 47 7 100 100 100 100 100 100 100
100 53 3 3 20 4 4 0 5 7 2 0 1 0 0 0 0 4 1 0 1 5 2 0 5 16 100 100 69 98 49 68 55 100 61 45 20 100 100 100 100 100 100 100 100
100 100 72 94 6 0 5 2 14 5 5 2 0 0 0 0 0 0 0 4 2 5 7 21 3 4 69 90 99 88 97 10 99 100 41 6 36 96 98 100 100 100 100 100 100
99 100 100 100 100 90 6 39 44 5 4 0 0 0 0 0 0 0 0 2 2 5 26 6 1 0 5 9 5 5 89 100 67 5 6 57 91 94 82 100 96 100 100 100 100
87 27 100 100 44 94 80 100 90 19 5 0 0 0 0 0 0 0 0 0 0 0 2 0 19 0 0 2 5 5 5 5 13 19 93 90 100 100 93 100 100 100 100 100 100
7 94 90 100 92 17 55 100 100 100 84 8 3 0 0 0 0 0 0 0 0 0 1 0 1 0 0 0 4 1 5 10 78 85 15 75 28 99 100 83 100 100 100 100 100
5 9 85 100 97 12 42 11 10 92 48 100 14 5 1 0 0 0 0 0 0 0 0 0 2 5 0 0 0 0 2 30 36 72 75 12 15 47 22 10 94 100 100 100 100
48 7 5 43 100 52 50 28 5 5 80 6 22 12 11 6 0 0 0 0 0 0 2 0 2 1 0 0 0 0 0 1 5 5 95 5 9 5 56 16 96 96 100 100 100
4 5 71 5 32 43 71 90 22 5 5 26 11 5 5 7 5 0 0 0 0 0 0 0 4 0 0 0 0 5 0 0 3 6 14 9 5 5 6 42 8 97 100 100 100
48 100 25 5 5 13 98 25 78 26 5 5 5 5 5 5 5 5 0 0 0 0 0 0 0 4 0 0 3 0 0 0 3 5 4 0 5 5 4 1 5 89 74 39 100
63 23 13 10 5 22 7 98 43 99 78 24 5 5 1 2 5 5 0 5 0 0 0 0 22 5 5 0 4 5 0 0 0 0 0 0 5 0 5 0 0 59 43 84 94
38 85 6 3 2 4 82 39 95 48 91 93 88 64 28 25 9 5 5 3 5 3 0 2 10 5 0 0 3 0 0 0 0 0 0 5 0 0 3 5 5 3 8 30 98